<?xml version="1.0" encoding="UTF-8" standalone="no" ?>
<gpx xmlns="http://www.topografix.com/GPX/1/1" xmlns:xsi="http://www.w3.org/2001/XMLSchema-instance" xsi:schemaLocation="http://www.topografix.com/GPX/1/1 http://www.topografix.com/GPX/1/1/gpx.xsd" version="1.1" creator="VisuGPX - https://www.visugpx.com">
  <metadata>
    <name>Gd Queyras- Fonzes- Tour Horaire</name>
    <desc><![CDATA[grp_trc:]]></desc>
  </metadata>
  <trk>
    <name><![CDATA[16 déc. 2021]]></name>
    <cmt><![CDATA[07:58:29]]></cmt>
    <desc><![CDATA[comment ...]]></desc>
    <trkseg>
      <trkpt lat="44.71897" lon="6.90434">
        <ele>1974</ele>
        <time>2021-12-16T06:58:28Z</time>
      </trkpt>
      <trkpt lat="44.71899" lon="6.90434">
        <ele>1974</ele>
        <time>2021-12-16T06:58:29Z</time>
      </trkpt>
      <trkpt lat="44.71901" lon="6.90436">
        <ele>1974</ele>
        <time>2021-12-16T06:58:41Z</time>
      </trkpt>
      <trkpt lat="44.71901" lon="6.90436">
        <ele>1974</ele>
        <time>2021-12-16T06:58:42Z</time>
      </trkpt>
      <trkpt lat="44.71899" lon="6.90434">
        <ele>1975</ele>
        <time>2021-12-16T06:58:52Z</time>
      </trkpt>
      <trkpt lat="44.719" lon="6.90433">
        <ele>1976</ele>
        <time>2021-12-16T06:59:15Z</time>
      </trkpt>
      <trkpt lat="44.71898" lon="6.90436">
        <ele>1976</ele>
        <time>2021-12-16T06:59:27Z</time>
      </trkpt>
      <trkpt lat="44.71896" lon="6.90435">
        <ele>1976</ele>
        <time>2021-12-16T06:59:33Z</time>
      </trkpt>
      <trkpt lat="44.71894" lon="6.90434">
        <ele>1975</ele>
        <time>2021-12-16T06:59:36Z</time>
      </trkpt>
      <trkpt lat="44.71894" lon="6.90439">
        <ele>1977</ele>
        <time>2021-12-16T06:59:48Z</time>
      </trkpt>
      <trkpt lat="44.71895" lon="6.90442">
        <ele>1977</ele>
        <time>2021-12-16T06:59:50Z</time>
      </trkpt>
      <trkpt lat="44.71895" lon="6.90449">
        <ele>1977</ele>
        <time>2021-12-16T06:59:59Z</time>
      </trkpt>
      <trkpt lat="44.71899" lon="6.90453">
        <ele>1978</ele>
        <time>2021-12-16T07:00:05Z</time>
      </trkpt>
      <trkpt lat="44.71899" lon="6.90455">
        <ele>1978</ele>
        <time>2021-12-16T07:00:07Z</time>
      </trkpt>
      <trkpt lat="44.719" lon="6.90458">
        <ele>1978</ele>
        <time>2021-12-16T07:00:09Z</time>
      </trkpt>
      <trkpt lat="44.71902" lon="6.90463">
        <ele>1979</ele>
        <time>2021-12-16T07:00:13Z</time>
      </trkpt>
      <trkpt lat="44.71902" lon="6.90466">
        <ele>1979</ele>
        <time>2021-12-16T07:00:16Z</time>
      </trkpt>
      <trkpt lat="44.71902" lon="6.90472">
        <ele>1979</ele>
        <time>2021-12-16T07:00:20Z</time>
      </trkpt>
      <trkpt lat="44.71905" lon="6.90477">
        <ele>1978</ele>
        <time>2021-12-16T07:00:24Z</time>
      </trkpt>
      <trkpt lat="44.71906" lon="6.9048">
        <ele>1977</ele>
        <time>2021-12-16T07:00:26Z</time>
      </trkpt>
      <trkpt lat="44.71908" lon="6.90481">
        <ele>1976</ele>
        <time>2021-12-16T07:00:28Z</time>
      </trkpt>
      <trkpt lat="44.71909" lon="6.90484">
        <ele>1976</ele>
        <time>2021-12-16T07:00:30Z</time>
      </trkpt>
      <trkpt lat="44.71911" lon="6.90489">
        <ele>1975</ele>
        <time>2021-12-16T07:00:34Z</time>
      </trkpt>
      <trkpt lat="44.71914" lon="6.90497">
        <ele>1975</ele>
        <time>2021-12-16T07:00:41Z</time>
      </trkpt>
      <trkpt lat="44.71914" lon="6.90503">
        <ele>1975</ele>
        <time>2021-12-16T07:00:46Z</time>
      </trkpt>
      <trkpt lat="44.71916" lon="6.90508">
        <ele>1975</ele>
        <time>2021-12-16T07:00:52Z</time>
      </trkpt>
      <trkpt lat="44.71916" lon="6.90511">
        <ele>1976</ele>
        <time>2021-12-16T07:00:55Z</time>
      </trkpt>
      <trkpt lat="44.71918" lon="6.9052">
        <ele>1977</ele>
        <time>2021-12-16T07:01:04Z</time>
      </trkpt>
      <trkpt lat="44.7192" lon="6.90534">
        <ele>1981</ele>
        <time>2021-12-16T07:01:24Z</time>
      </trkpt>
      <trkpt lat="44.7192" lon="6.9054">
        <ele>1982</ele>
        <time>2021-12-16T07:01:29Z</time>
      </trkpt>
      <trkpt lat="44.71924" lon="6.90547">
        <ele>1984</ele>
        <time>2021-12-16T07:01:39Z</time>
      </trkpt>
      <trkpt lat="44.71925" lon="6.9055">
        <ele>1986</ele>
        <time>2021-12-16T07:01:42Z</time>
      </trkpt>
      <trkpt lat="44.71928" lon="6.90558">
        <ele>1988</ele>
        <time>2021-12-16T07:01:51Z</time>
      </trkpt>
      <trkpt lat="44.71929" lon="6.90564">
        <ele>1990</ele>
        <time>2021-12-16T07:01:57Z</time>
      </trkpt>
      <trkpt lat="44.71931" lon="6.90566">
        <ele>1990</ele>
        <time>2021-12-16T07:02:01Z</time>
      </trkpt>
      <trkpt lat="44.71932" lon="6.90569">
        <ele>1991</ele>
        <time>2021-12-16T07:02:04Z</time>
      </trkpt>
      <trkpt lat="44.71932" lon="6.90572">
        <ele>1992</ele>
        <time>2021-12-16T07:02:06Z</time>
      </trkpt>
      <trkpt lat="44.71931" lon="6.90575">
        <ele>1993</ele>
        <time>2021-12-16T07:02:08Z</time>
      </trkpt>
      <trkpt lat="44.71933" lon="6.9058">
        <ele>1995</ele>
        <time>2021-12-16T07:02:14Z</time>
      </trkpt>
      <trkpt lat="44.71934" lon="6.90583">
        <ele>1995</ele>
        <time>2021-12-16T07:02:17Z</time>
      </trkpt>
      <trkpt lat="44.71936" lon="6.90589">
        <ele>1995</ele>
        <time>2021-12-16T07:02:23Z</time>
      </trkpt>
      <trkpt lat="44.71937" lon="6.90592">
        <ele>1995</ele>
        <time>2021-12-16T07:02:25Z</time>
      </trkpt>
      <trkpt lat="44.71938" lon="6.90597">
        <ele>1996</ele>
        <time>2021-12-16T07:02:30Z</time>
      </trkpt>
      <trkpt lat="44.71939" lon="6.90603">
        <ele>1997</ele>
        <time>2021-12-16T07:02:34Z</time>
      </trkpt>
      <trkpt lat="44.71942" lon="6.9061">
        <ele>1998</ele>
        <time>2021-12-16T07:02:41Z</time>
      </trkpt>
      <trkpt lat="44.71943" lon="6.90622">
        <ele>2003</ele>
        <time>2021-12-16T07:02:51Z</time>
      </trkpt>
      <trkpt lat="44.71943" lon="6.90626">
        <ele>2004</ele>
        <time>2021-12-16T07:02:54Z</time>
      </trkpt>
      <trkpt lat="44.71943" lon="6.90629">
        <ele>2005</ele>
        <time>2021-12-16T07:02:57Z</time>
      </trkpt>
      <trkpt lat="44.71943" lon="6.90632">
        <ele>2007</ele>
        <time>2021-12-16T07:03:03Z</time>
      </trkpt>
      <trkpt lat="44.71945" lon="6.90637">
        <ele>2008</ele>
        <time>2021-12-16T07:03:09Z</time>
      </trkpt>
      <trkpt lat="44.71946" lon="6.90639">
        <ele>2009</ele>
        <time>2021-12-16T07:03:12Z</time>
      </trkpt>
      <trkpt lat="44.71947" lon="6.90642">
        <ele>2010</ele>
        <time>2021-12-16T07:03:15Z</time>
      </trkpt>
      <trkpt lat="44.7195" lon="6.90651">
        <ele>2011</ele>
        <time>2021-12-16T07:03:24Z</time>
      </trkpt>
      <trkpt lat="44.71951" lon="6.90653">
        <ele>2011</ele>
        <time>2021-12-16T07:03:26Z</time>
      </trkpt>
      <trkpt lat="44.71953" lon="6.9066">
        <ele>2011</ele>
        <time>2021-12-16T07:03:34Z</time>
      </trkpt>
      <trkpt lat="44.71956" lon="6.90665">
        <ele>2010</ele>
        <time>2021-12-16T07:03:40Z</time>
      </trkpt>
      <trkpt lat="44.71957" lon="6.90673">
        <ele>2010</ele>
        <time>2021-12-16T07:03:47Z</time>
      </trkpt>
      <trkpt lat="44.7196" lon="6.90678">
        <ele>2012</ele>
        <time>2021-12-16T07:03:53Z</time>
      </trkpt>
      <trkpt lat="44.71961" lon="6.90683">
        <ele>2013</ele>
        <time>2021-12-16T07:04:03Z</time>
      </trkpt>
      <trkpt lat="44.71963" lon="6.90684">
        <ele>2013</ele>
        <time>2021-12-16T07:04:06Z</time>
      </trkpt>
      <trkpt lat="44.71965" lon="6.9069">
        <ele>2012</ele>
        <time>2021-12-16T07:04:11Z</time>
      </trkpt>
      <trkpt lat="44.71966" lon="6.90692">
        <ele>2012</ele>
        <time>2021-12-16T07:04:14Z</time>
      </trkpt>
      <trkpt lat="44.71972" lon="6.90705">
        <ele>2013</ele>
        <time>2021-12-16T07:04:29Z</time>
      </trkpt>
      <trkpt lat="44.71973" lon="6.90707">
        <ele>2013</ele>
        <time>2021-12-16T07:04:32Z</time>
      </trkpt>
      <trkpt lat="44.71974" lon="6.9071">
        <ele>2012</ele>
        <time>2021-12-16T07:04:35Z</time>
      </trkpt>
      <trkpt lat="44.71975" lon="6.90713">
        <ele>2013</ele>
        <time>2021-12-16T07:04:38Z</time>
      </trkpt>
      <trkpt lat="44.71976" lon="6.90716">
        <ele>2014</ele>
        <time>2021-12-16T07:04:41Z</time>
      </trkpt>
      <trkpt lat="44.71977" lon="6.90719">
        <ele>2014</ele>
        <time>2021-12-16T07:04:45Z</time>
      </trkpt>
      <trkpt lat="44.71978" lon="6.90722">
        <ele>2015</ele>
        <time>2021-12-16T07:04:48Z</time>
      </trkpt>
      <trkpt lat="44.71981" lon="6.90733">
        <ele>2019</ele>
        <time>2021-12-16T07:05:01Z</time>
      </trkpt>
      <trkpt lat="44.71982" lon="6.90736">
        <ele>2021</ele>
        <time>2021-12-16T07:05:04Z</time>
      </trkpt>
      <trkpt lat="44.71983" lon="6.90738">
        <ele>2021</ele>
        <time>2021-12-16T07:05:07Z</time>
      </trkpt>
      <trkpt lat="44.71984" lon="6.90741">
        <ele>2023</ele>
        <time>2021-12-16T07:05:11Z</time>
      </trkpt>
      <trkpt lat="44.71985" lon="6.90743">
        <ele>2023</ele>
        <time>2021-12-16T07:05:14Z</time>
      </trkpt>
      <trkpt lat="44.71986" lon="6.90746">
        <ele>2025</ele>
        <time>2021-12-16T07:05:18Z</time>
      </trkpt>
      <trkpt lat="44.71986" lon="6.90748">
        <ele>2026</ele>
        <time>2021-12-16T07:05:21Z</time>
      </trkpt>
      <trkpt lat="44.71987" lon="6.90756">
        <ele>2030</ele>
        <time>2021-12-16T07:05:30Z</time>
      </trkpt>
      <trkpt lat="44.71987" lon="6.90759">
        <ele>2031</ele>
        <time>2021-12-16T07:05:33Z</time>
      </trkpt>
      <trkpt lat="44.71987" lon="6.90762">
        <ele>2032</ele>
        <time>2021-12-16T07:05:36Z</time>
      </trkpt>
      <trkpt lat="44.71987" lon="6.90768">
        <ele>2034</ele>
        <time>2021-12-16T07:05:42Z</time>
      </trkpt>
      <trkpt lat="44.71988" lon="6.90771">
        <ele>2035</ele>
        <time>2021-12-16T07:05:46Z</time>
      </trkpt>
      <trkpt lat="44.7199" lon="6.90781">
        <ele>2038</ele>
        <time>2021-12-16T07:05:55Z</time>
      </trkpt>
      <trkpt lat="44.71991" lon="6.90784">
        <ele>2039</ele>
        <time>2021-12-16T07:05:58Z</time>
      </trkpt>
      <trkpt lat="44.71991" lon="6.90787">
        <ele>2040</ele>
        <time>2021-12-16T07:06:02Z</time>
      </trkpt>
      <trkpt lat="44.71991" lon="6.9079">
        <ele>2041</ele>
        <time>2021-12-16T07:06:05Z</time>
      </trkpt>
      <trkpt lat="44.71991" lon="6.90793">
        <ele>2043</ele>
        <time>2021-12-16T07:06:07Z</time>
      </trkpt>
      <trkpt lat="44.71992" lon="6.90799">
        <ele>2046</ele>
        <time>2021-12-16T07:06:14Z</time>
      </trkpt>
      <trkpt lat="44.71993" lon="6.90805">
        <ele>2047</ele>
        <time>2021-12-16T07:06:20Z</time>
      </trkpt>
      <trkpt lat="44.71996" lon="6.90824">
        <ele>2050</ele>
        <time>2021-12-16T07:06:36Z</time>
      </trkpt>
      <trkpt lat="44.71997" lon="6.90827">
        <ele>2050</ele>
        <time>2021-12-16T07:06:38Z</time>
      </trkpt>
      <trkpt lat="44.71995" lon="6.90832">
        <ele>2050</ele>
        <time>2021-12-16T07:06:42Z</time>
      </trkpt>
      <trkpt lat="44.71993" lon="6.90839">
        <ele>2049</ele>
        <time>2021-12-16T07:06:51Z</time>
      </trkpt>
      <trkpt lat="44.71992" lon="6.90841">
        <ele>2049</ele>
        <time>2021-12-16T07:06:53Z</time>
      </trkpt>
      <trkpt lat="44.71992" lon="6.90844">
        <ele>2049</ele>
        <time>2021-12-16T07:06:56Z</time>
      </trkpt>
      <trkpt lat="44.7199" lon="6.90856">
        <ele>2049</ele>
        <time>2021-12-16T07:07:06Z</time>
      </trkpt>
      <trkpt lat="44.7199" lon="6.90859">
        <ele>2049</ele>
        <time>2021-12-16T07:07:09Z</time>
      </trkpt>
      <trkpt lat="44.7199" lon="6.90862">
        <ele>2049</ele>
        <time>2021-12-16T07:07:12Z</time>
      </trkpt>
      <trkpt lat="44.7199" lon="6.90865">
        <ele>2049</ele>
        <time>2021-12-16T07:07:16Z</time>
      </trkpt>
      <trkpt lat="44.7199" lon="6.90868">
        <ele>2049</ele>
        <time>2021-12-16T07:07:20Z</time>
      </trkpt>
      <trkpt lat="44.7199" lon="6.90871">
        <ele>2049</ele>
        <time>2021-12-16T07:07:23Z</time>
      </trkpt>
      <trkpt lat="44.71989" lon="6.90873">
        <ele>2048</ele>
        <time>2021-12-16T07:07:27Z</time>
      </trkpt>
      <trkpt lat="44.71989" lon="6.90876">
        <ele>2048</ele>
        <time>2021-12-16T07:07:31Z</time>
      </trkpt>
      <trkpt lat="44.71987" lon="6.90877">
        <ele>2048</ele>
        <time>2021-12-16T07:07:33Z</time>
      </trkpt>
      <trkpt lat="44.71983" lon="6.90889">
        <ele>2048</ele>
        <time>2021-12-16T07:07:48Z</time>
      </trkpt>
      <trkpt lat="44.71982" lon="6.90892">
        <ele>2048</ele>
        <time>2021-12-16T07:07:51Z</time>
      </trkpt>
      <trkpt lat="44.71996" lon="6.90897">
        <ele>2052</ele>
        <time>2021-12-16T07:08:14Z</time>
      </trkpt>
      <trkpt lat="44.72009" lon="6.90907">
        <ele>2058</ele>
        <time>2021-12-16T07:08:35Z</time>
      </trkpt>
      <trkpt lat="44.72011" lon="6.90907">
        <ele>2059</ele>
        <time>2021-12-16T07:08:38Z</time>
      </trkpt>
      <trkpt lat="44.72013" lon="6.9091">
        <ele>2059</ele>
        <time>2021-12-16T07:08:41Z</time>
      </trkpt>
      <trkpt lat="44.72015" lon="6.90911">
        <ele>2060</ele>
        <time>2021-12-16T07:08:44Z</time>
      </trkpt>
      <trkpt lat="44.72017" lon="6.90913">
        <ele>2060</ele>
        <time>2021-12-16T07:08:48Z</time>
      </trkpt>
      <trkpt lat="44.7202" lon="6.90914">
        <ele>2060</ele>
        <time>2021-12-16T07:08:51Z</time>
      </trkpt>
      <trkpt lat="44.72021" lon="6.90915">
        <ele>2061</ele>
        <time>2021-12-16T07:08:53Z</time>
      </trkpt>
      <trkpt lat="44.72027" lon="6.90923">
        <ele>2063</ele>
        <time>2021-12-16T07:09:05Z</time>
      </trkpt>
      <trkpt lat="44.7203" lon="6.90926">
        <ele>2065</ele>
        <time>2021-12-16T07:09:09Z</time>
      </trkpt>
      <trkpt lat="44.72032" lon="6.90927">
        <ele>2066</ele>
        <time>2021-12-16T07:09:12Z</time>
      </trkpt>
      <trkpt lat="44.72034" lon="6.90927">
        <ele>2067</ele>
        <time>2021-12-16T07:09:16Z</time>
      </trkpt>
      <trkpt lat="44.72036" lon="6.90928">
        <ele>2067</ele>
        <time>2021-12-16T07:09:27Z</time>
      </trkpt>
      <trkpt lat="44.72038" lon="6.90929">
        <ele>2068</ele>
        <time>2021-12-16T07:09:37Z</time>
      </trkpt>
      <trkpt lat="44.72038" lon="6.90932">
        <ele>2068</ele>
        <time>2021-12-16T07:09:42Z</time>
      </trkpt>
      <trkpt lat="44.72035" lon="6.90937">
        <ele>2068</ele>
        <time>2021-12-16T07:09:46Z</time>
      </trkpt>
      <trkpt lat="44.72033" lon="6.90939">
        <ele>2068</ele>
        <time>2021-12-16T07:09:48Z</time>
      </trkpt>
      <trkpt lat="44.72033" lon="6.90941">
        <ele>2068</ele>
        <time>2021-12-16T07:09:51Z</time>
      </trkpt>
      <trkpt lat="44.72037" lon="6.90944">
        <ele>2069</ele>
        <time>2021-12-16T07:09:56Z</time>
      </trkpt>
      <trkpt lat="44.72039" lon="6.90945">
        <ele>2069</ele>
        <time>2021-12-16T07:09:58Z</time>
      </trkpt>
      <trkpt lat="44.72043" lon="6.90952">
        <ele>2070</ele>
        <time>2021-12-16T07:10:05Z</time>
      </trkpt>
      <trkpt lat="44.72044" lon="6.90954">
        <ele>2070</ele>
        <time>2021-12-16T07:10:07Z</time>
      </trkpt>
      <trkpt lat="44.72045" lon="6.9096">
        <ele>2071</ele>
        <time>2021-12-16T07:10:13Z</time>
      </trkpt>
      <trkpt lat="44.72047" lon="6.90963">
        <ele>2072</ele>
        <time>2021-12-16T07:10:16Z</time>
      </trkpt>
      <trkpt lat="44.72047" lon="6.90965">
        <ele>2072</ele>
        <time>2021-12-16T07:10:18Z</time>
      </trkpt>
      <trkpt lat="44.72047" lon="6.90968">
        <ele>2072</ele>
        <time>2021-12-16T07:10:20Z</time>
      </trkpt>
      <trkpt lat="44.72047" lon="6.9097">
        <ele>2073</ele>
        <time>2021-12-16T07:10:24Z</time>
      </trkpt>
      <trkpt lat="44.72047" lon="6.90973">
        <ele>2073</ele>
        <time>2021-12-16T07:10:27Z</time>
      </trkpt>
      <trkpt lat="44.72036" lon="6.90977">
        <ele>2074</ele>
        <time>2021-12-16T07:10:40Z</time>
      </trkpt>
      <trkpt lat="44.72033" lon="6.90976">
        <ele>2074</ele>
        <time>2021-12-16T07:10:45Z</time>
      </trkpt>
      <trkpt lat="44.72031" lon="6.90977">
        <ele>2074</ele>
        <time>2021-12-16T07:10:48Z</time>
      </trkpt>
      <trkpt lat="44.72029" lon="6.90978">
        <ele>2074</ele>
        <time>2021-12-16T07:10:52Z</time>
      </trkpt>
      <trkpt lat="44.72031" lon="6.90984">
        <ele>2075</ele>
        <time>2021-12-16T07:10:59Z</time>
      </trkpt>
      <trkpt lat="44.72033" lon="6.90992">
        <ele>2076</ele>
        <time>2021-12-16T07:11:08Z</time>
      </trkpt>
      <trkpt lat="44.72035" lon="6.90991">
        <ele>2076</ele>
        <time>2021-12-16T07:11:11Z</time>
      </trkpt>
      <trkpt lat="44.72037" lon="6.90992">
        <ele>2076</ele>
        <time>2021-12-16T07:11:16Z</time>
      </trkpt>
      <trkpt lat="44.7204" lon="6.91">
        <ele>2077</ele>
        <time>2021-12-16T07:11:27Z</time>
      </trkpt>
      <trkpt lat="44.7204" lon="6.91003">
        <ele>2077</ele>
        <time>2021-12-16T07:11:31Z</time>
      </trkpt>
      <trkpt lat="44.7204" lon="6.91007">
        <ele>2078</ele>
        <time>2021-12-16T07:11:34Z</time>
      </trkpt>
      <trkpt lat="44.72039" lon="6.9101">
        <ele>2079</ele>
        <time>2021-12-16T07:11:37Z</time>
      </trkpt>
      <trkpt lat="44.72041" lon="6.91016">
        <ele>2080</ele>
        <time>2021-12-16T07:11:44Z</time>
      </trkpt>
      <trkpt lat="44.72043" lon="6.91021">
        <ele>2079</ele>
        <time>2021-12-16T07:11:49Z</time>
      </trkpt>
      <trkpt lat="44.72044" lon="6.91023">
        <ele>2079</ele>
        <time>2021-12-16T07:11:52Z</time>
      </trkpt>
      <trkpt lat="44.72045" lon="6.91025">
        <ele>2079</ele>
        <time>2021-12-16T07:11:55Z</time>
      </trkpt>
      <trkpt lat="44.72045" lon="6.91035">
        <ele>2082</ele>
        <time>2021-12-16T07:12:04Z</time>
      </trkpt>
      <trkpt lat="44.72047" lon="6.9104">
        <ele>2084</ele>
        <time>2021-12-16T07:12:12Z</time>
      </trkpt>
      <trkpt lat="44.72049" lon="6.9104">
        <ele>2084</ele>
        <time>2021-12-16T07:12:15Z</time>
      </trkpt>
      <trkpt lat="44.72051" lon="6.91041">
        <ele>2086</ele>
        <time>2021-12-16T07:12:19Z</time>
      </trkpt>
      <trkpt lat="44.7205" lon="6.91043">
        <ele>2087</ele>
        <time>2021-12-16T07:12:49Z</time>
      </trkpt>
      <trkpt lat="44.7205" lon="6.91049">
        <ele>2089</ele>
        <time>2021-12-16T07:12:55Z</time>
      </trkpt>
      <trkpt lat="44.72052" lon="6.91055">
        <ele>2089</ele>
        <time>2021-12-16T07:13:01Z</time>
      </trkpt>
      <trkpt lat="44.72054" lon="6.91057">
        <ele>2089</ele>
        <time>2021-12-16T07:13:04Z</time>
      </trkpt>
      <trkpt lat="44.72055" lon="6.9106">
        <ele>2090</ele>
        <time>2021-12-16T07:13:07Z</time>
      </trkpt>
      <trkpt lat="44.72055" lon="6.91062">
        <ele>2090</ele>
        <time>2021-12-16T07:13:09Z</time>
      </trkpt>
      <trkpt lat="44.72056" lon="6.91067">
        <ele>2091</ele>
        <time>2021-12-16T07:13:13Z</time>
      </trkpt>
      <trkpt lat="44.72056" lon="6.91069">
        <ele>2092</ele>
        <time>2021-12-16T07:13:15Z</time>
      </trkpt>
      <trkpt lat="44.72057" lon="6.91072">
        <ele>2092</ele>
        <time>2021-12-16T07:13:17Z</time>
      </trkpt>
      <trkpt lat="44.72058" lon="6.91077">
        <ele>2094</ele>
        <time>2021-12-16T07:13:23Z</time>
      </trkpt>
      <trkpt lat="44.72059" lon="6.9108">
        <ele>2095</ele>
        <time>2021-12-16T07:13:26Z</time>
      </trkpt>
      <trkpt lat="44.72058" lon="6.91093">
        <ele>2097</ele>
        <time>2021-12-16T07:13:41Z</time>
      </trkpt>
      <trkpt lat="44.72055" lon="6.91107">
        <ele>2099</ele>
        <time>2021-12-16T07:13:59Z</time>
      </trkpt>
      <trkpt lat="44.72055" lon="6.91112">
        <ele>2100</ele>
        <time>2021-12-16T07:14:05Z</time>
      </trkpt>
      <trkpt lat="44.72055" lon="6.91115">
        <ele>2101</ele>
        <time>2021-12-16T07:14:08Z</time>
      </trkpt>
      <trkpt lat="44.72054" lon="6.91128">
        <ele>2104</ele>
        <time>2021-12-16T07:14:26Z</time>
      </trkpt>
      <trkpt lat="44.72056" lon="6.9113">
        <ele>2106</ele>
        <time>2021-12-16T07:14:31Z</time>
      </trkpt>
      <trkpt lat="44.72057" lon="6.91133">
        <ele>2107</ele>
        <time>2021-12-16T07:14:35Z</time>
      </trkpt>
      <trkpt lat="44.72062" lon="6.91138">
        <ele>2109</ele>
        <time>2021-12-16T07:14:45Z</time>
      </trkpt>
      <trkpt lat="44.72063" lon="6.9114">
        <ele>2109</ele>
        <time>2021-12-16T07:14:48Z</time>
      </trkpt>
      <trkpt lat="44.72063" lon="6.91144">
        <ele>2109</ele>
        <time>2021-12-16T07:14:51Z</time>
      </trkpt>
      <trkpt lat="44.72058" lon="6.91167">
        <ele>2115</ele>
        <time>2021-12-16T07:15:21Z</time>
      </trkpt>
      <trkpt lat="44.72058" lon="6.91169">
        <ele>2116</ele>
        <time>2021-12-16T07:15:24Z</time>
      </trkpt>
      <trkpt lat="44.7206" lon="6.91174">
        <ele>2118</ele>
        <time>2021-12-16T07:15:32Z</time>
      </trkpt>
      <trkpt lat="44.72061" lon="6.91176">
        <ele>2118</ele>
        <time>2021-12-16T07:15:36Z</time>
      </trkpt>
      <trkpt lat="44.72062" lon="6.91179">
        <ele>2119</ele>
        <time>2021-12-16T07:15:39Z</time>
      </trkpt>
      <trkpt lat="44.72063" lon="6.91181">
        <ele>2119</ele>
        <time>2021-12-16T07:15:43Z</time>
      </trkpt>
      <trkpt lat="44.72065" lon="6.91186">
        <ele>2120</ele>
        <time>2021-12-16T07:15:51Z</time>
      </trkpt>
      <trkpt lat="44.72067" lon="6.91188">
        <ele>2120</ele>
        <time>2021-12-16T07:15:55Z</time>
      </trkpt>
      <trkpt lat="44.72067" lon="6.91191">
        <ele>2120</ele>
        <time>2021-12-16T07:15:58Z</time>
      </trkpt>
      <trkpt lat="44.72069" lon="6.91193">
        <ele>2121</ele>
        <time>2021-12-16T07:16:02Z</time>
      </trkpt>
      <trkpt lat="44.72072" lon="6.91199">
        <ele>2120</ele>
        <time>2021-12-16T07:16:12Z</time>
      </trkpt>
      <trkpt lat="44.72073" lon="6.912">
        <ele>2119</ele>
        <time>2021-12-16T07:16:15Z</time>
      </trkpt>
      <trkpt lat="44.72074" lon="6.91202">
        <ele>2119</ele>
        <time>2021-12-16T07:16:19Z</time>
      </trkpt>
      <trkpt lat="44.72075" lon="6.91205">
        <ele>2119</ele>
        <time>2021-12-16T07:16:23Z</time>
      </trkpt>
      <trkpt lat="44.72077" lon="6.91207">
        <ele>2118</ele>
        <time>2021-12-16T07:16:27Z</time>
      </trkpt>
      <trkpt lat="44.72078" lon="6.91229">
        <ele>2120</ele>
        <time>2021-12-16T07:16:50Z</time>
      </trkpt>
      <trkpt lat="44.72079" lon="6.91234">
        <ele>2120</ele>
        <time>2021-12-16T07:16:56Z</time>
      </trkpt>
      <trkpt lat="44.72079" lon="6.91241">
        <ele>2121</ele>
        <time>2021-12-16T07:17:06Z</time>
      </trkpt>
      <trkpt lat="44.72079" lon="6.91246">
        <ele>2122</ele>
        <time>2021-12-16T07:17:12Z</time>
      </trkpt>
      <trkpt lat="44.72081" lon="6.91255">
        <ele>2124</ele>
        <time>2021-12-16T07:17:23Z</time>
      </trkpt>
      <trkpt lat="44.72082" lon="6.91265">
        <ele>2126</ele>
        <time>2021-12-16T07:17:37Z</time>
      </trkpt>
      <trkpt lat="44.72081" lon="6.91268">
        <ele>2127</ele>
        <time>2021-12-16T07:17:40Z</time>
      </trkpt>
      <trkpt lat="44.72081" lon="6.9127">
        <ele>2127</ele>
        <time>2021-12-16T07:17:42Z</time>
      </trkpt>
      <trkpt lat="44.72082" lon="6.91273">
        <ele>2128</ele>
        <time>2021-12-16T07:17:46Z</time>
      </trkpt>
      <trkpt lat="44.72082" lon="6.91275">
        <ele>2129</ele>
        <time>2021-12-16T07:17:49Z</time>
      </trkpt>
      <trkpt lat="44.72081" lon="6.91284">
        <ele>2132</ele>
        <time>2021-12-16T07:17:57Z</time>
      </trkpt>
      <trkpt lat="44.72082" lon="6.91286">
        <ele>2132</ele>
        <time>2021-12-16T07:17:59Z</time>
      </trkpt>
      <trkpt lat="44.72083" lon="6.91291">
        <ele>2134</ele>
        <time>2021-12-16T07:18:08Z</time>
      </trkpt>
      <trkpt lat="44.72084" lon="6.91296">
        <ele>2136</ele>
        <time>2021-12-16T07:18:16Z</time>
      </trkpt>
      <trkpt lat="44.72082" lon="6.91309">
        <ele>2144</ele>
        <time>2021-12-16T07:18:32Z</time>
      </trkpt>
      <trkpt lat="44.72084" lon="6.91322">
        <ele>2148</ele>
        <time>2021-12-16T07:18:52Z</time>
      </trkpt>
      <trkpt lat="44.72084" lon="6.91324">
        <ele>2149</ele>
        <time>2021-12-16T07:18:56Z</time>
      </trkpt>
      <trkpt lat="44.72084" lon="6.91326">
        <ele>2150</ele>
        <time>2021-12-16T07:18:59Z</time>
      </trkpt>
      <trkpt lat="44.72083" lon="6.91329">
        <ele>2150</ele>
        <time>2021-12-16T07:19:01Z</time>
      </trkpt>
      <trkpt lat="44.72082" lon="6.91331">
        <ele>2151</ele>
        <time>2021-12-16T07:19:03Z</time>
      </trkpt>
      <trkpt lat="44.72081" lon="6.91333">
        <ele>2152</ele>
        <time>2021-12-16T07:19:06Z</time>
      </trkpt>
      <trkpt lat="44.72081" lon="6.91336">
        <ele>2152</ele>
        <time>2021-12-16T07:19:10Z</time>
      </trkpt>
      <trkpt lat="44.72082" lon="6.91345">
        <ele>2153</ele>
        <time>2021-12-16T07:19:19Z</time>
      </trkpt>
      <trkpt lat="44.72082" lon="6.91347">
        <ele>2154</ele>
        <time>2021-12-16T07:19:23Z</time>
      </trkpt>
      <trkpt lat="44.72084" lon="6.91348">
        <ele>2155</ele>
        <time>2021-12-16T07:19:26Z</time>
      </trkpt>
      <trkpt lat="44.72086" lon="6.91347">
        <ele>2155</ele>
        <time>2021-12-16T07:19:29Z</time>
      </trkpt>
      <trkpt lat="44.72088" lon="6.91347">
        <ele>2155</ele>
        <time>2021-12-16T07:19:35Z</time>
      </trkpt>
      <trkpt lat="44.72088" lon="6.91349">
        <ele>2156</ele>
        <time>2021-12-16T07:19:39Z</time>
      </trkpt>
      <trkpt lat="44.7209" lon="6.91349">
        <ele>2158</ele>
        <time>2021-12-16T07:19:44Z</time>
      </trkpt>
      <trkpt lat="44.72092" lon="6.91347">
        <ele>2158</ele>
        <time>2021-12-16T07:19:47Z</time>
      </trkpt>
      <trkpt lat="44.72097" lon="6.91343">
        <ele>2160</ele>
        <time>2021-12-16T07:19:59Z</time>
      </trkpt>
      <trkpt lat="44.72099" lon="6.91341">
        <ele>2161</ele>
        <time>2021-12-16T07:20:03Z</time>
      </trkpt>
      <trkpt lat="44.721" lon="6.9134">
        <ele>2161</ele>
        <time>2021-12-16T07:20:06Z</time>
      </trkpt>
      <trkpt lat="44.72101" lon="6.91338">
        <ele>2162</ele>
        <time>2021-12-16T07:20:09Z</time>
      </trkpt>
      <trkpt lat="44.7212" lon="6.91329">
        <ele>2166</ele>
        <time>2021-12-16T07:20:42Z</time>
      </trkpt>
      <trkpt lat="44.72124" lon="6.91325">
        <ele>2166</ele>
        <time>2021-12-16T07:20:51Z</time>
      </trkpt>
      <trkpt lat="44.72125" lon="6.91323">
        <ele>2167</ele>
        <time>2021-12-16T07:20:54Z</time>
      </trkpt>
      <trkpt lat="44.72126" lon="6.91322">
        <ele>2167</ele>
        <time>2021-12-16T07:20:58Z</time>
      </trkpt>
      <trkpt lat="44.72128" lon="6.9132">
        <ele>2167</ele>
        <time>2021-12-16T07:21:01Z</time>
      </trkpt>
      <trkpt lat="44.72128" lon="6.91317">
        <ele>2167</ele>
        <time>2021-12-16T07:21:11Z</time>
      </trkpt>
      <trkpt lat="44.72133" lon="6.91316">
        <ele>2168</ele>
        <time>2021-12-16T07:21:37Z</time>
      </trkpt>
      <trkpt lat="44.72135" lon="6.91317">
        <ele>2168</ele>
        <time>2021-12-16T07:21:41Z</time>
      </trkpt>
      <trkpt lat="44.72136" lon="6.9132">
        <ele>2168</ele>
        <time>2021-12-16T07:21:46Z</time>
      </trkpt>
      <trkpt lat="44.72136" lon="6.91323">
        <ele>2168</ele>
        <time>2021-12-16T07:21:50Z</time>
      </trkpt>
      <trkpt lat="44.72137" lon="6.91325">
        <ele>2168</ele>
        <time>2021-12-16T07:21:53Z</time>
      </trkpt>
      <trkpt lat="44.72138" lon="6.91328">
        <ele>2168</ele>
        <time>2021-12-16T07:21:56Z</time>
      </trkpt>
      <trkpt lat="44.72137" lon="6.91332">
        <ele>2168</ele>
        <time>2021-12-16T07:22:05Z</time>
      </trkpt>
      <trkpt lat="44.72139" lon="6.91336">
        <ele>2170</ele>
        <time>2021-12-16T07:22:18Z</time>
      </trkpt>
      <trkpt lat="44.72138" lon="6.91339">
        <ele>2171</ele>
        <time>2021-12-16T07:22:21Z</time>
      </trkpt>
      <trkpt lat="44.72138" lon="6.91343">
        <ele>2173</ele>
        <time>2021-12-16T07:22:24Z</time>
      </trkpt>
      <trkpt lat="44.72138" lon="6.91345">
        <ele>2174</ele>
        <time>2021-12-16T07:22:27Z</time>
      </trkpt>
      <trkpt lat="44.72138" lon="6.91351">
        <ele>2177</ele>
        <time>2021-12-16T07:22:34Z</time>
      </trkpt>
      <trkpt lat="44.72136" lon="6.91354">
        <ele>2178</ele>
        <time>2021-12-16T07:22:37Z</time>
      </trkpt>
      <trkpt lat="44.72135" lon="6.91356">
        <ele>2179</ele>
        <time>2021-12-16T07:22:39Z</time>
      </trkpt>
      <trkpt lat="44.72135" lon="6.91359">
        <ele>2179</ele>
        <time>2021-12-16T07:22:42Z</time>
      </trkpt>
      <trkpt lat="44.72135" lon="6.91364">
        <ele>2181</ele>
        <time>2021-12-16T07:22:47Z</time>
      </trkpt>
      <trkpt lat="44.72135" lon="6.91367">
        <ele>2181</ele>
        <time>2021-12-16T07:22:50Z</time>
      </trkpt>
      <trkpt lat="44.72134" lon="6.91369">
        <ele>2182</ele>
        <time>2021-12-16T07:23:14Z</time>
      </trkpt>
      <trkpt lat="44.72135" lon="6.91371">
        <ele>2183</ele>
        <time>2021-12-16T07:23:17Z</time>
      </trkpt>
      <trkpt lat="44.72136" lon="6.91372">
        <ele>2183</ele>
        <time>2021-12-16T07:23:20Z</time>
      </trkpt>
      <trkpt lat="44.72138" lon="6.91375">
        <ele>2184</ele>
        <time>2021-12-16T07:23:23Z</time>
      </trkpt>
      <trkpt lat="44.72138" lon="6.91377">
        <ele>2185</ele>
        <time>2021-12-16T07:23:28Z</time>
      </trkpt>
      <trkpt lat="44.72139" lon="6.9138">
        <ele>2185</ele>
        <time>2021-12-16T07:23:31Z</time>
      </trkpt>
      <trkpt lat="44.72142" lon="6.91384">
        <ele>2186</ele>
        <time>2021-12-16T07:23:37Z</time>
      </trkpt>
      <trkpt lat="44.72142" lon="6.91386">
        <ele>2187</ele>
        <time>2021-12-16T07:23:41Z</time>
      </trkpt>
      <trkpt lat="44.72145" lon="6.91384">
        <ele>2188</ele>
        <time>2021-12-16T07:23:48Z</time>
      </trkpt>
      <trkpt lat="44.72148" lon="6.91381">
        <ele>2188</ele>
        <time>2021-12-16T07:23:56Z</time>
      </trkpt>
      <trkpt lat="44.72152" lon="6.91379">
        <ele>2189</ele>
        <time>2021-12-16T07:24:07Z</time>
      </trkpt>
      <trkpt lat="44.72154" lon="6.91378">
        <ele>2190</ele>
        <time>2021-12-16T07:24:11Z</time>
      </trkpt>
      <trkpt lat="44.72156" lon="6.91376">
        <ele>2191</ele>
        <time>2021-12-16T07:24:16Z</time>
      </trkpt>
      <trkpt lat="44.72158" lon="6.91375">
        <ele>2191</ele>
        <time>2021-12-16T07:24:20Z</time>
      </trkpt>
      <trkpt lat="44.72161" lon="6.91372">
        <ele>2193</ele>
        <time>2021-12-16T07:24:26Z</time>
      </trkpt>
      <trkpt lat="44.72162" lon="6.91371">
        <ele>2194</ele>
        <time>2021-12-16T07:24:29Z</time>
      </trkpt>
      <trkpt lat="44.72168" lon="6.91368">
        <ele>2195</ele>
        <time>2021-12-16T07:24:38Z</time>
      </trkpt>
      <trkpt lat="44.72169" lon="6.91365">
        <ele>2196</ele>
        <time>2021-12-16T07:24:42Z</time>
      </trkpt>
      <trkpt lat="44.72175" lon="6.91363">
        <ele>2198</ele>
        <time>2021-12-16T07:24:50Z</time>
      </trkpt>
      <trkpt lat="44.72178" lon="6.9136">
        <ele>2199</ele>
        <time>2021-12-16T07:24:56Z</time>
      </trkpt>
      <trkpt lat="44.72179" lon="6.91358">
        <ele>2200</ele>
        <time>2021-12-16T07:25:00Z</time>
      </trkpt>
      <trkpt lat="44.72183" lon="6.91357">
        <ele>2202</ele>
        <time>2021-12-16T07:25:06Z</time>
      </trkpt>
      <trkpt lat="44.72186" lon="6.91357">
        <ele>2204</ele>
        <time>2021-12-16T07:25:14Z</time>
      </trkpt>
      <trkpt lat="44.72187" lon="6.91359">
        <ele>2204</ele>
        <time>2021-12-16T07:25:18Z</time>
      </trkpt>
      <trkpt lat="44.72188" lon="6.91362">
        <ele>2205</ele>
        <time>2021-12-16T07:25:22Z</time>
      </trkpt>
      <trkpt lat="44.7219" lon="6.91382">
        <ele>2203</ele>
        <time>2021-12-16T07:25:45Z</time>
      </trkpt>
      <trkpt lat="44.72189" lon="6.9139">
        <ele>2203</ele>
        <time>2021-12-16T07:25:55Z</time>
      </trkpt>
      <trkpt lat="44.72188" lon="6.91392">
        <ele>2203</ele>
        <time>2021-12-16T07:25:57Z</time>
      </trkpt>
      <trkpt lat="44.72188" lon="6.91395">
        <ele>2203</ele>
        <time>2021-12-16T07:26:00Z</time>
      </trkpt>
      <trkpt lat="44.72189" lon="6.91397">
        <ele>2203</ele>
        <time>2021-12-16T07:26:03Z</time>
      </trkpt>
      <trkpt lat="44.7219" lon="6.91399">
        <ele>2203</ele>
        <time>2021-12-16T07:26:08Z</time>
      </trkpt>
      <trkpt lat="44.72191" lon="6.914">
        <ele>2204</ele>
        <time>2021-12-16T07:26:11Z</time>
      </trkpt>
      <trkpt lat="44.72196" lon="6.91411">
        <ele>2206</ele>
        <time>2021-12-16T07:26:24Z</time>
      </trkpt>
      <trkpt lat="44.72197" lon="6.91419">
        <ele>2207</ele>
        <time>2021-12-16T07:26:34Z</time>
      </trkpt>
      <trkpt lat="44.72199" lon="6.91434">
        <ele>2210</ele>
        <time>2021-12-16T07:26:54Z</time>
      </trkpt>
      <trkpt lat="44.722" lon="6.91436">
        <ele>2210</ele>
        <time>2021-12-16T07:26:57Z</time>
      </trkpt>
      <trkpt lat="44.72201" lon="6.9144">
        <ele>2211</ele>
        <time>2021-12-16T07:27:03Z</time>
      </trkpt>
      <trkpt lat="44.722" lon="6.91442">
        <ele>2212</ele>
        <time>2021-12-16T07:27:05Z</time>
      </trkpt>
      <trkpt lat="44.722" lon="6.91445">
        <ele>2212</ele>
        <time>2021-12-16T07:27:08Z</time>
      </trkpt>
      <trkpt lat="44.722" lon="6.9145">
        <ele>2214</ele>
        <time>2021-12-16T07:27:14Z</time>
      </trkpt>
      <trkpt lat="44.722" lon="6.91452">
        <ele>2215</ele>
        <time>2021-12-16T07:27:17Z</time>
      </trkpt>
      <trkpt lat="44.722" lon="6.91457">
        <ele>2216</ele>
        <time>2021-12-16T07:27:21Z</time>
      </trkpt>
      <trkpt lat="44.722" lon="6.9146">
        <ele>2216</ele>
        <time>2021-12-16T07:27:25Z</time>
      </trkpt>
      <trkpt lat="44.72201" lon="6.91464">
        <ele>2218</ele>
        <time>2021-12-16T07:27:33Z</time>
      </trkpt>
      <trkpt lat="44.722" lon="6.9147">
        <ele>2221</ele>
        <time>2021-12-16T07:27:39Z</time>
      </trkpt>
      <trkpt lat="44.72201" lon="6.91475">
        <ele>2224</ele>
        <time>2021-12-16T07:27:49Z</time>
      </trkpt>
      <trkpt lat="44.72201" lon="6.91477">
        <ele>2225</ele>
        <time>2021-12-16T07:27:52Z</time>
      </trkpt>
      <trkpt lat="44.72202" lon="6.91483">
        <ele>2227</ele>
        <time>2021-12-16T07:28:19Z</time>
      </trkpt>
      <trkpt lat="44.72202" lon="6.91488">
        <ele>2228</ele>
        <time>2021-12-16T07:28:26Z</time>
      </trkpt>
      <trkpt lat="44.72203" lon="6.9149">
        <ele>2228</ele>
        <time>2021-12-16T07:28:29Z</time>
      </trkpt>
      <trkpt lat="44.72203" lon="6.91492">
        <ele>2228</ele>
        <time>2021-12-16T07:28:33Z</time>
      </trkpt>
      <trkpt lat="44.72202" lon="6.91505">
        <ele>2229</ele>
        <time>2021-12-16T07:28:48Z</time>
      </trkpt>
      <trkpt lat="44.72201" lon="6.91511">
        <ele>2229</ele>
        <time>2021-12-16T07:28:54Z</time>
      </trkpt>
      <trkpt lat="44.72202" lon="6.91513">
        <ele>2230</ele>
        <time>2021-12-16T07:28:58Z</time>
      </trkpt>
      <trkpt lat="44.72203" lon="6.91515">
        <ele>2230</ele>
        <time>2021-12-16T07:29:01Z</time>
      </trkpt>
      <trkpt lat="44.72205" lon="6.91513">
        <ele>2230</ele>
        <time>2021-12-16T07:29:04Z</time>
      </trkpt>
      <trkpt lat="44.72207" lon="6.91512">
        <ele>2230</ele>
        <time>2021-12-16T07:29:07Z</time>
      </trkpt>
      <trkpt lat="44.72209" lon="6.91508">
        <ele>2231</ele>
        <time>2021-12-16T07:29:12Z</time>
      </trkpt>
      <trkpt lat="44.72212" lon="6.91504">
        <ele>2232</ele>
        <time>2021-12-16T07:29:20Z</time>
      </trkpt>
      <trkpt lat="44.72214" lon="6.91504">
        <ele>2232</ele>
        <time>2021-12-16T07:29:24Z</time>
      </trkpt>
      <trkpt lat="44.72219" lon="6.91498">
        <ele>2235</ele>
        <time>2021-12-16T07:29:36Z</time>
      </trkpt>
      <trkpt lat="44.72225" lon="6.91495">
        <ele>2239</ele>
        <time>2021-12-16T07:29:45Z</time>
      </trkpt>
      <trkpt lat="44.72233" lon="6.91493">
        <ele>2242</ele>
        <time>2021-12-16T07:30:00Z</time>
      </trkpt>
      <trkpt lat="44.7224" lon="6.91488">
        <ele>2245</ele>
        <time>2021-12-16T07:30:12Z</time>
      </trkpt>
      <trkpt lat="44.72251" lon="6.91486">
        <ele>2248</ele>
        <time>2021-12-16T07:30:33Z</time>
      </trkpt>
      <trkpt lat="44.72262" lon="6.9148">
        <ele>2250</ele>
        <time>2021-12-16T07:30:55Z</time>
      </trkpt>
      <trkpt lat="44.72267" lon="6.91478">
        <ele>2253</ele>
        <time>2021-12-16T07:31:09Z</time>
      </trkpt>
      <trkpt lat="44.72269" lon="6.91478">
        <ele>2255</ele>
        <time>2021-12-16T07:31:15Z</time>
      </trkpt>
      <trkpt lat="44.72272" lon="6.91477">
        <ele>2256</ele>
        <time>2021-12-16T07:31:22Z</time>
      </trkpt>
      <trkpt lat="44.72286" lon="6.91479">
        <ele>2261</ele>
        <time>2021-12-16T07:31:46Z</time>
      </trkpt>
      <trkpt lat="44.72289" lon="6.91483">
        <ele>2263</ele>
        <time>2021-12-16T07:31:55Z</time>
      </trkpt>
      <trkpt lat="44.72289" lon="6.91501">
        <ele>2267</ele>
        <time>2021-12-16T07:32:18Z</time>
      </trkpt>
      <trkpt lat="44.72288" lon="6.91503">
        <ele>2267</ele>
        <time>2021-12-16T07:32:21Z</time>
      </trkpt>
      <trkpt lat="44.72288" lon="6.91506">
        <ele>2268</ele>
        <time>2021-12-16T07:32:25Z</time>
      </trkpt>
      <trkpt lat="44.72288" lon="6.91526">
        <ele>2271</ele>
        <time>2021-12-16T07:32:46Z</time>
      </trkpt>
      <trkpt lat="44.72288" lon="6.91544">
        <ele>2273</ele>
        <time>2021-12-16T07:33:07Z</time>
      </trkpt>
      <trkpt lat="44.72287" lon="6.91546">
        <ele>2273</ele>
        <time>2021-12-16T07:33:10Z</time>
      </trkpt>
      <trkpt lat="44.72286" lon="6.91555">
        <ele>2275</ele>
        <time>2021-12-16T07:33:23Z</time>
      </trkpt>
      <trkpt lat="44.72286" lon="6.91557">
        <ele>2275</ele>
        <time>2021-12-16T07:33:26Z</time>
      </trkpt>
      <trkpt lat="44.72286" lon="6.9156">
        <ele>2275</ele>
        <time>2021-12-16T07:33:30Z</time>
      </trkpt>
      <trkpt lat="44.72285" lon="6.91562">
        <ele>2275</ele>
        <time>2021-12-16T07:33:32Z</time>
      </trkpt>
      <trkpt lat="44.72285" lon="6.91564">
        <ele>2275</ele>
        <time>2021-12-16T07:33:34Z</time>
      </trkpt>
      <trkpt lat="44.72284" lon="6.91566">
        <ele>2274</ele>
        <time>2021-12-16T07:33:36Z</time>
      </trkpt>
      <trkpt lat="44.72284" lon="6.91572">
        <ele>2274</ele>
        <time>2021-12-16T07:33:42Z</time>
      </trkpt>
      <trkpt lat="44.72283" lon="6.91575">
        <ele>2274</ele>
        <time>2021-12-16T07:33:45Z</time>
      </trkpt>
      <trkpt lat="44.72282" lon="6.91587">
        <ele>2275</ele>
        <time>2021-12-16T07:34:02Z</time>
      </trkpt>
      <trkpt lat="44.72283" lon="6.91596">
        <ele>2277</ele>
        <time>2021-12-16T07:34:14Z</time>
      </trkpt>
      <trkpt lat="44.72282" lon="6.91601">
        <ele>2278</ele>
        <time>2021-12-16T07:34:23Z</time>
      </trkpt>
      <trkpt lat="44.72281" lon="6.91606">
        <ele>2279</ele>
        <time>2021-12-16T07:34:30Z</time>
      </trkpt>
      <trkpt lat="44.72281" lon="6.91614">
        <ele>2279</ele>
        <time>2021-12-16T07:34:38Z</time>
      </trkpt>
      <trkpt lat="44.7228" lon="6.91616">
        <ele>2279</ele>
        <time>2021-12-16T07:34:41Z</time>
      </trkpt>
      <trkpt lat="44.72279" lon="6.91627">
        <ele>2280</ele>
        <time>2021-12-16T07:34:53Z</time>
      </trkpt>
      <trkpt lat="44.72279" lon="6.91629">
        <ele>2281</ele>
        <time>2021-12-16T07:34:57Z</time>
      </trkpt>
      <trkpt lat="44.7228" lon="6.91632">
        <ele>2282</ele>
        <time>2021-12-16T07:35:01Z</time>
      </trkpt>
      <trkpt lat="44.72281" lon="6.91643">
        <ele>2284</ele>
        <time>2021-12-16T07:35:14Z</time>
      </trkpt>
      <trkpt lat="44.7228" lon="6.91646">
        <ele>2285</ele>
        <time>2021-12-16T07:35:17Z</time>
      </trkpt>
      <trkpt lat="44.72281" lon="6.91652">
        <ele>2287</ele>
        <time>2021-12-16T07:35:23Z</time>
      </trkpt>
      <trkpt lat="44.72281" lon="6.91654">
        <ele>2288</ele>
        <time>2021-12-16T07:35:27Z</time>
      </trkpt>
      <trkpt lat="44.72282" lon="6.91656">
        <ele>2289</ele>
        <time>2021-12-16T07:35:31Z</time>
      </trkpt>
      <trkpt lat="44.72282" lon="6.91659">
        <ele>2290</ele>
        <time>2021-12-16T07:35:34Z</time>
      </trkpt>
      <trkpt lat="44.72282" lon="6.91662">
        <ele>2291</ele>
        <time>2021-12-16T07:35:38Z</time>
      </trkpt>
      <trkpt lat="44.72284" lon="6.91661">
        <ele>2292</ele>
        <time>2021-12-16T07:35:46Z</time>
      </trkpt>
      <trkpt lat="44.72288" lon="6.91652">
        <ele>2295</ele>
        <time>2021-12-16T07:35:59Z</time>
      </trkpt>
      <trkpt lat="44.7229" lon="6.91651">
        <ele>2296</ele>
        <time>2021-12-16T07:36:02Z</time>
      </trkpt>
      <trkpt lat="44.72292" lon="6.9165">
        <ele>2296</ele>
        <time>2021-12-16T07:36:05Z</time>
      </trkpt>
      <trkpt lat="44.72299" lon="6.91642">
        <ele>2299</ele>
        <time>2021-12-16T07:36:20Z</time>
      </trkpt>
      <trkpt lat="44.723" lon="6.91641">
        <ele>2299</ele>
        <time>2021-12-16T07:36:24Z</time>
      </trkpt>
      <trkpt lat="44.72305" lon="6.91639">
        <ele>2301</ele>
        <time>2021-12-16T07:36:29Z</time>
      </trkpt>
      <trkpt lat="44.72316" lon="6.91631">
        <ele>2306</ele>
        <time>2021-12-16T07:37:29Z</time>
      </trkpt>
      <trkpt lat="44.72318" lon="6.9163">
        <ele>2306</ele>
        <time>2021-12-16T07:37:31Z</time>
      </trkpt>
      <trkpt lat="44.72321" lon="6.91629">
        <ele>2306</ele>
        <time>2021-12-16T07:37:38Z</time>
      </trkpt>
      <trkpt lat="44.72327" lon="6.91626">
        <ele>2306</ele>
        <time>2021-12-16T07:37:48Z</time>
      </trkpt>
      <trkpt lat="44.72329" lon="6.91624">
        <ele>2306</ele>
        <time>2021-12-16T07:37:52Z</time>
      </trkpt>
      <trkpt lat="44.7233" lon="6.91622">
        <ele>2306</ele>
        <time>2021-12-16T07:37:55Z</time>
      </trkpt>
      <trkpt lat="44.72337" lon="6.91615">
        <ele>2307</ele>
        <time>2021-12-16T07:38:07Z</time>
      </trkpt>
      <trkpt lat="44.72339" lon="6.91615">
        <ele>2307</ele>
        <time>2021-12-16T07:38:10Z</time>
      </trkpt>
      <trkpt lat="44.72341" lon="6.91614">
        <ele>2308</ele>
        <time>2021-12-16T07:38:15Z</time>
      </trkpt>
      <trkpt lat="44.72343" lon="6.91615">
        <ele>2309</ele>
        <time>2021-12-16T07:38:23Z</time>
      </trkpt>
      <trkpt lat="44.72345" lon="6.91614">
        <ele>2309</ele>
        <time>2021-12-16T07:38:34Z</time>
      </trkpt>
      <trkpt lat="44.72347" lon="6.91614">
        <ele>2310</ele>
        <time>2021-12-16T07:38:38Z</time>
      </trkpt>
      <trkpt lat="44.72356" lon="6.91615">
        <ele>2314</ele>
        <time>2021-12-16T07:38:52Z</time>
      </trkpt>
      <trkpt lat="44.72358" lon="6.91617">
        <ele>2315</ele>
        <time>2021-12-16T07:38:56Z</time>
      </trkpt>
      <trkpt lat="44.72359" lon="6.91618">
        <ele>2315</ele>
        <time>2021-12-16T07:38:59Z</time>
      </trkpt>
      <trkpt lat="44.7236" lon="6.9162">
        <ele>2317</ele>
        <time>2021-12-16T07:39:05Z</time>
      </trkpt>
      <trkpt lat="44.72361" lon="6.91626">
        <ele>2319</ele>
        <time>2021-12-16T07:39:12Z</time>
      </trkpt>
      <trkpt lat="44.72358" lon="6.91642">
        <ele>2322</ele>
        <time>2021-12-16T07:39:28Z</time>
      </trkpt>
      <trkpt lat="44.72357" lon="6.9165">
        <ele>2322</ele>
        <time>2021-12-16T07:39:35Z</time>
      </trkpt>
      <trkpt lat="44.72358" lon="6.91656">
        <ele>2324</ele>
        <time>2021-12-16T07:39:42Z</time>
      </trkpt>
      <trkpt lat="44.72358" lon="6.91658">
        <ele>2324</ele>
        <time>2021-12-16T07:39:45Z</time>
      </trkpt>
      <trkpt lat="44.72358" lon="6.91661">
        <ele>2324</ele>
        <time>2021-12-16T07:39:48Z</time>
      </trkpt>
      <trkpt lat="44.72357" lon="6.91663">
        <ele>2323</ele>
        <time>2021-12-16T07:39:51Z</time>
      </trkpt>
      <trkpt lat="44.72358" lon="6.91676">
        <ele>2320</ele>
        <time>2021-12-16T07:40:05Z</time>
      </trkpt>
      <trkpt lat="44.72357" lon="6.91678">
        <ele>2322</ele>
        <time>2021-12-16T07:40:08Z</time>
      </trkpt>
      <trkpt lat="44.72356" lon="6.91685">
        <ele>2325</ele>
        <time>2021-12-16T07:40:19Z</time>
      </trkpt>
      <trkpt lat="44.72355" lon="6.91695">
        <ele>2326</ele>
        <time>2021-12-16T07:40:31Z</time>
      </trkpt>
      <trkpt lat="44.72354" lon="6.91713">
        <ele>2331</ele>
        <time>2021-12-16T07:40:46Z</time>
      </trkpt>
      <trkpt lat="44.72353" lon="6.91716">
        <ele>2333</ele>
        <time>2021-12-16T07:40:49Z</time>
      </trkpt>
      <trkpt lat="44.72353" lon="6.91722">
        <ele>2335</ele>
        <time>2021-12-16T07:40:55Z</time>
      </trkpt>
      <trkpt lat="44.72352" lon="6.91724">
        <ele>2337</ele>
        <time>2021-12-16T07:40:57Z</time>
      </trkpt>
      <trkpt lat="44.7235" lon="6.91729">
        <ele>2338</ele>
        <time>2021-12-16T07:41:03Z</time>
      </trkpt>
      <trkpt lat="44.72349" lon="6.91731">
        <ele>2338</ele>
        <time>2021-12-16T07:41:06Z</time>
      </trkpt>
      <trkpt lat="44.72347" lon="6.91731">
        <ele>2339</ele>
        <time>2021-12-16T07:41:09Z</time>
      </trkpt>
      <trkpt lat="44.72345" lon="6.91735">
        <ele>2339</ele>
        <time>2021-12-16T07:41:15Z</time>
      </trkpt>
      <trkpt lat="44.72345" lon="6.91738">
        <ele>2340</ele>
        <time>2021-12-16T07:41:18Z</time>
      </trkpt>
      <trkpt lat="44.72345" lon="6.91742">
        <ele>2340</ele>
        <time>2021-12-16T07:41:21Z</time>
      </trkpt>
      <trkpt lat="44.72343" lon="6.91752">
        <ele>2340</ele>
        <time>2021-12-16T07:41:30Z</time>
      </trkpt>
      <trkpt lat="44.72344" lon="6.91755">
        <ele>2340</ele>
        <time>2021-12-16T07:41:33Z</time>
      </trkpt>
      <trkpt lat="44.72343" lon="6.91762">
        <ele>2342</ele>
        <time>2021-12-16T07:41:39Z</time>
      </trkpt>
      <trkpt lat="44.72343" lon="6.91765">
        <ele>2343</ele>
        <time>2021-12-16T07:41:42Z</time>
      </trkpt>
      <trkpt lat="44.72341" lon="6.91777">
        <ele>2342</ele>
        <time>2021-12-16T07:41:54Z</time>
      </trkpt>
      <trkpt lat="44.72339" lon="6.91791">
        <ele>2341</ele>
        <time>2021-12-16T07:42:02Z</time>
      </trkpt>
      <trkpt lat="44.72339" lon="6.91794">
        <ele>2340</ele>
        <time>2021-12-16T07:42:04Z</time>
      </trkpt>
      <trkpt lat="44.72336" lon="6.91812">
        <ele>2339</ele>
        <time>2021-12-16T07:42:13Z</time>
      </trkpt>
      <trkpt lat="44.72335" lon="6.91815">
        <ele>2339</ele>
        <time>2021-12-16T07:42:15Z</time>
      </trkpt>
      <trkpt lat="44.72333" lon="6.91819">
        <ele>2337</ele>
        <time>2021-12-16T07:42:20Z</time>
      </trkpt>
      <trkpt lat="44.72333" lon="6.91821">
        <ele>2337</ele>
        <time>2021-12-16T07:42:23Z</time>
      </trkpt>
      <trkpt lat="44.72334" lon="6.91827">
        <ele>2336</ele>
        <time>2021-12-16T07:42:28Z</time>
      </trkpt>
      <trkpt lat="44.72335" lon="6.91829">
        <ele>2336</ele>
        <time>2021-12-16T07:42:31Z</time>
      </trkpt>
      <trkpt lat="44.72335" lon="6.91832">
        <ele>2335</ele>
        <time>2021-12-16T07:42:36Z</time>
      </trkpt>
      <trkpt lat="44.72335" lon="6.91835">
        <ele>2335</ele>
        <time>2021-12-16T07:42:38Z</time>
      </trkpt>
      <trkpt lat="44.72335" lon="6.91838">
        <ele>2335</ele>
        <time>2021-12-16T07:42:40Z</time>
      </trkpt>
      <trkpt lat="44.72334" lon="6.91844">
        <ele>2334</ele>
        <time>2021-12-16T07:42:45Z</time>
      </trkpt>
      <trkpt lat="44.72333" lon="6.9185">
        <ele>2334</ele>
        <time>2021-12-16T07:42:49Z</time>
      </trkpt>
      <trkpt lat="44.72335" lon="6.91858">
        <ele>2332</ele>
        <time>2021-12-16T07:42:57Z</time>
      </trkpt>
      <trkpt lat="44.72336" lon="6.91861">
        <ele>2332</ele>
        <time>2021-12-16T07:43:00Z</time>
      </trkpt>
      <trkpt lat="44.72331" lon="6.91881">
        <ele>2332</ele>
        <time>2021-12-16T07:43:08Z</time>
      </trkpt>
      <trkpt lat="44.72331" lon="6.91885">
        <ele>2332</ele>
        <time>2021-12-16T07:43:10Z</time>
      </trkpt>
      <trkpt lat="44.72329" lon="6.91889">
        <ele>2333</ele>
        <time>2021-12-16T07:43:15Z</time>
      </trkpt>
      <trkpt lat="44.72328" lon="6.91895">
        <ele>2334</ele>
        <time>2021-12-16T07:43:21Z</time>
      </trkpt>
      <trkpt lat="44.72328" lon="6.91898">
        <ele>2334</ele>
        <time>2021-12-16T07:43:23Z</time>
      </trkpt>
      <trkpt lat="44.72327" lon="6.91901">
        <ele>2334</ele>
        <time>2021-12-16T07:43:25Z</time>
      </trkpt>
      <trkpt lat="44.72327" lon="6.91903">
        <ele>2334</ele>
        <time>2021-12-16T07:43:27Z</time>
      </trkpt>
      <trkpt lat="44.72326" lon="6.91908">
        <ele>2333</ele>
        <time>2021-12-16T07:43:32Z</time>
      </trkpt>
      <trkpt lat="44.72326" lon="6.91911">
        <ele>2333</ele>
        <time>2021-12-16T07:43:34Z</time>
      </trkpt>
      <trkpt lat="44.72325" lon="6.91914">
        <ele>2333</ele>
        <time>2021-12-16T07:43:37Z</time>
      </trkpt>
      <trkpt lat="44.72325" lon="6.91917">
        <ele>2333</ele>
        <time>2021-12-16T07:43:41Z</time>
      </trkpt>
      <trkpt lat="44.72327" lon="6.91925">
        <ele>2333</ele>
        <time>2021-12-16T07:43:53Z</time>
      </trkpt>
      <trkpt lat="44.72328" lon="6.91928">
        <ele>2333</ele>
        <time>2021-12-16T07:43:56Z</time>
      </trkpt>
      <trkpt lat="44.72329" lon="6.91931">
        <ele>2332</ele>
        <time>2021-12-16T07:44:00Z</time>
      </trkpt>
      <trkpt lat="44.72329" lon="6.91934">
        <ele>2332</ele>
        <time>2021-12-16T07:44:02Z</time>
      </trkpt>
      <trkpt lat="44.72331" lon="6.91935">
        <ele>2332</ele>
        <time>2021-12-16T07:44:05Z</time>
      </trkpt>
      <trkpt lat="44.72333" lon="6.91933">
        <ele>2332</ele>
        <time>2021-12-16T07:44:08Z</time>
      </trkpt>
      <trkpt lat="44.72335" lon="6.91933">
        <ele>2333</ele>
        <time>2021-12-16T07:44:14Z</time>
      </trkpt>
      <trkpt lat="44.72336" lon="6.91939">
        <ele>2333</ele>
        <time>2021-12-16T07:44:23Z</time>
      </trkpt>
      <trkpt lat="44.72336" lon="6.91942">
        <ele>2333</ele>
        <time>2021-12-16T07:44:27Z</time>
      </trkpt>
      <trkpt lat="44.72337" lon="6.91948">
        <ele>2334</ele>
        <time>2021-12-16T07:44:32Z</time>
      </trkpt>
      <trkpt lat="44.72335" lon="6.91957">
        <ele>2336</ele>
        <time>2021-12-16T07:44:41Z</time>
      </trkpt>
      <trkpt lat="44.72333" lon="6.91958">
        <ele>2337</ele>
        <time>2021-12-16T07:44:45Z</time>
      </trkpt>
      <trkpt lat="44.72331" lon="6.91958">
        <ele>2337</ele>
        <time>2021-12-16T07:44:48Z</time>
      </trkpt>
      <trkpt lat="44.7233" lon="6.91961">
        <ele>2338</ele>
        <time>2021-12-16T07:44:54Z</time>
      </trkpt>
      <trkpt lat="44.72327" lon="6.91972">
        <ele>2338</ele>
        <time>2021-12-16T07:45:06Z</time>
      </trkpt>
      <trkpt lat="44.72326" lon="6.91974">
        <ele>2338</ele>
        <time>2021-12-16T07:45:09Z</time>
      </trkpt>
      <trkpt lat="44.72323" lon="6.91985">
        <ele>2338</ele>
        <time>2021-12-16T07:45:21Z</time>
      </trkpt>
      <trkpt lat="44.72323" lon="6.91988">
        <ele>2339</ele>
        <time>2021-12-16T07:45:23Z</time>
      </trkpt>
      <trkpt lat="44.72319" lon="6.91997">
        <ele>2340</ele>
        <time>2021-12-16T07:45:31Z</time>
      </trkpt>
      <trkpt lat="44.72319" lon="6.92003">
        <ele>2341</ele>
        <time>2021-12-16T07:45:37Z</time>
      </trkpt>
      <trkpt lat="44.72317" lon="6.92007">
        <ele>2342</ele>
        <time>2021-12-16T07:45:42Z</time>
      </trkpt>
      <trkpt lat="44.72315" lon="6.92009">
        <ele>2342</ele>
        <time>2021-12-16T07:45:45Z</time>
      </trkpt>
      <trkpt lat="44.72312" lon="6.92016">
        <ele>2343</ele>
        <time>2021-12-16T07:45:52Z</time>
      </trkpt>
      <trkpt lat="44.72309" lon="6.92021">
        <ele>2343</ele>
        <time>2021-12-16T07:45:57Z</time>
      </trkpt>
      <trkpt lat="44.72307" lon="6.92022">
        <ele>2343</ele>
        <time>2021-12-16T07:45:59Z</time>
      </trkpt>
      <trkpt lat="44.72307" lon="6.92025">
        <ele>2343</ele>
        <time>2021-12-16T07:46:02Z</time>
      </trkpt>
      <trkpt lat="44.72306" lon="6.92027">
        <ele>2343</ele>
        <time>2021-12-16T07:46:04Z</time>
      </trkpt>
      <trkpt lat="44.72306" lon="6.9203">
        <ele>2343</ele>
        <time>2021-12-16T07:46:07Z</time>
      </trkpt>
      <trkpt lat="44.72305" lon="6.92033">
        <ele>2343</ele>
        <time>2021-12-16T07:46:09Z</time>
      </trkpt>
      <trkpt lat="44.72304" lon="6.92035">
        <ele>2343</ele>
        <time>2021-12-16T07:46:12Z</time>
      </trkpt>
      <trkpt lat="44.72304" lon="6.92037">
        <ele>2343</ele>
        <time>2021-12-16T07:46:14Z</time>
      </trkpt>
      <trkpt lat="44.72303" lon="6.92039">
        <ele>2343</ele>
        <time>2021-12-16T07:46:18Z</time>
      </trkpt>
      <trkpt lat="44.72301" lon="6.92041">
        <ele>2343</ele>
        <time>2021-12-16T07:46:21Z</time>
      </trkpt>
      <trkpt lat="44.72299" lon="6.92043">
        <ele>2343</ele>
        <time>2021-12-16T07:46:23Z</time>
      </trkpt>
      <trkpt lat="44.72296" lon="6.92046">
        <ele>2343</ele>
        <time>2021-12-16T07:46:28Z</time>
      </trkpt>
      <trkpt lat="44.72294" lon="6.92047">
        <ele>2343</ele>
        <time>2021-12-16T07:46:31Z</time>
      </trkpt>
      <trkpt lat="44.72293" lon="6.92052">
        <ele>2343</ele>
        <time>2021-12-16T07:46:36Z</time>
      </trkpt>
      <trkpt lat="44.72293" lon="6.92055">
        <ele>2343</ele>
        <time>2021-12-16T07:46:39Z</time>
      </trkpt>
      <trkpt lat="44.72292" lon="6.92057">
        <ele>2343</ele>
        <time>2021-12-16T07:46:41Z</time>
      </trkpt>
      <trkpt lat="44.72292" lon="6.9206">
        <ele>2343</ele>
        <time>2021-12-16T07:46:44Z</time>
      </trkpt>
      <trkpt lat="44.72292" lon="6.92063">
        <ele>2344</ele>
        <time>2021-12-16T07:46:47Z</time>
      </trkpt>
      <trkpt lat="44.72291" lon="6.92068">
        <ele>2345</ele>
        <time>2021-12-16T07:46:52Z</time>
      </trkpt>
      <trkpt lat="44.7229" lon="6.92072">
        <ele>2346</ele>
        <time>2021-12-16T07:46:55Z</time>
      </trkpt>
      <trkpt lat="44.72289" lon="6.92074">
        <ele>2348</ele>
        <time>2021-12-16T07:46:57Z</time>
      </trkpt>
      <trkpt lat="44.72284" lon="6.92086">
        <ele>2358</ele>
        <time>2021-12-16T07:47:10Z</time>
      </trkpt>
      <trkpt lat="44.72282" lon="6.92087">
        <ele>2359</ele>
        <time>2021-12-16T07:47:12Z</time>
      </trkpt>
      <trkpt lat="44.72282" lon="6.9209">
        <ele>2360</ele>
        <time>2021-12-16T07:47:15Z</time>
      </trkpt>
      <trkpt lat="44.72277" lon="6.92103">
        <ele>2365</ele>
        <time>2021-12-16T07:47:30Z</time>
      </trkpt>
      <trkpt lat="44.72277" lon="6.92105">
        <ele>2366</ele>
        <time>2021-12-16T07:47:33Z</time>
      </trkpt>
      <trkpt lat="44.72279" lon="6.92105">
        <ele>2366</ele>
        <time>2021-12-16T07:47:37Z</time>
      </trkpt>
      <trkpt lat="44.72281" lon="6.92104">
        <ele>2366</ele>
        <time>2021-12-16T07:47:40Z</time>
      </trkpt>
      <trkpt lat="44.72285" lon="6.92107">
        <ele>2365</ele>
        <time>2021-12-16T07:47:47Z</time>
      </trkpt>
      <trkpt lat="44.72287" lon="6.92109">
        <ele>2364</ele>
        <time>2021-12-16T07:47:50Z</time>
      </trkpt>
      <trkpt lat="44.72292" lon="6.92111">
        <ele>2364</ele>
        <time>2021-12-16T07:48:00Z</time>
      </trkpt>
      <trkpt lat="44.72293" lon="6.92112">
        <ele>2364</ele>
        <time>2021-12-16T07:48:04Z</time>
      </trkpt>
      <trkpt lat="44.72292" lon="6.92117">
        <ele>2364</ele>
        <time>2021-12-16T07:48:10Z</time>
      </trkpt>
      <trkpt lat="44.72291" lon="6.92121">
        <ele>2364</ele>
        <time>2021-12-16T07:48:15Z</time>
      </trkpt>
      <trkpt lat="44.7229" lon="6.92123">
        <ele>2364</ele>
        <time>2021-12-16T07:48:18Z</time>
      </trkpt>
      <trkpt lat="44.72284" lon="6.92132">
        <ele>2364</ele>
        <time>2021-12-16T07:48:33Z</time>
      </trkpt>
      <trkpt lat="44.72281" lon="6.92139">
        <ele>2365</ele>
        <time>2021-12-16T07:48:44Z</time>
      </trkpt>
      <trkpt lat="44.7228" lon="6.92142">
        <ele>2365</ele>
        <time>2021-12-16T07:48:47Z</time>
      </trkpt>
      <trkpt lat="44.72279" lon="6.92145">
        <ele>2366</ele>
        <time>2021-12-16T07:48:51Z</time>
      </trkpt>
      <trkpt lat="44.72279" lon="6.92156">
        <ele>2367</ele>
        <time>2021-12-16T07:49:07Z</time>
      </trkpt>
      <trkpt lat="44.72279" lon="6.92158">
        <ele>2368</ele>
        <time>2021-12-16T07:49:10Z</time>
      </trkpt>
      <trkpt lat="44.7228" lon="6.9216">
        <ele>2369</ele>
        <time>2021-12-16T07:49:13Z</time>
      </trkpt>
      <trkpt lat="44.72282" lon="6.92161">
        <ele>2369</ele>
        <time>2021-12-16T07:49:16Z</time>
      </trkpt>
      <trkpt lat="44.72283" lon="6.92162">
        <ele>2370</ele>
        <time>2021-12-16T07:49:20Z</time>
      </trkpt>
      <trkpt lat="44.72284" lon="6.92165">
        <ele>2371</ele>
        <time>2021-12-16T07:49:23Z</time>
      </trkpt>
      <trkpt lat="44.72284" lon="6.9217">
        <ele>2372</ele>
        <time>2021-12-16T07:49:29Z</time>
      </trkpt>
      <trkpt lat="44.72284" lon="6.92172">
        <ele>2372</ele>
        <time>2021-12-16T07:49:31Z</time>
      </trkpt>
      <trkpt lat="44.72282" lon="6.92175">
        <ele>2372</ele>
        <time>2021-12-16T07:49:35Z</time>
      </trkpt>
      <trkpt lat="44.7228" lon="6.92182">
        <ele>2373</ele>
        <time>2021-12-16T07:49:42Z</time>
      </trkpt>
      <trkpt lat="44.72279" lon="6.92184">
        <ele>2373</ele>
        <time>2021-12-16T07:49:44Z</time>
      </trkpt>
      <trkpt lat="44.72275" lon="6.92195">
        <ele>2376</ele>
        <time>2021-12-16T07:49:57Z</time>
      </trkpt>
      <trkpt lat="44.72265" lon="6.9221">
        <ele>2379</ele>
        <time>2021-12-16T07:50:24Z</time>
      </trkpt>
      <trkpt lat="44.72263" lon="6.9222">
        <ele>2382</ele>
        <time>2021-12-16T07:50:38Z</time>
      </trkpt>
      <trkpt lat="44.72263" lon="6.92222">
        <ele>2382</ele>
        <time>2021-12-16T07:50:41Z</time>
      </trkpt>
      <trkpt lat="44.72263" lon="6.92227">
        <ele>2384</ele>
        <time>2021-12-16T07:50:47Z</time>
      </trkpt>
      <trkpt lat="44.72262" lon="6.92231">
        <ele>2385</ele>
        <time>2021-12-16T07:50:52Z</time>
      </trkpt>
      <trkpt lat="44.72262" lon="6.92236">
        <ele>2386</ele>
        <time>2021-12-16T07:50:58Z</time>
      </trkpt>
      <trkpt lat="44.72261" lon="6.9224">
        <ele>2388</ele>
        <time>2021-12-16T07:51:04Z</time>
      </trkpt>
      <trkpt lat="44.7226" lon="6.92246">
        <ele>2390</ele>
        <time>2021-12-16T07:51:13Z</time>
      </trkpt>
      <trkpt lat="44.72257" lon="6.92266">
        <ele>2393</ele>
        <time>2021-12-16T07:51:40Z</time>
      </trkpt>
      <trkpt lat="44.72257" lon="6.92268">
        <ele>2394</ele>
        <time>2021-12-16T07:51:44Z</time>
      </trkpt>
      <trkpt lat="44.72255" lon="6.92276">
        <ele>2395</ele>
        <time>2021-12-16T07:51:53Z</time>
      </trkpt>
      <trkpt lat="44.72254" lon="6.92285">
        <ele>2396</ele>
        <time>2021-12-16T07:52:05Z</time>
      </trkpt>
      <trkpt lat="44.72255" lon="6.92297">
        <ele>2398</ele>
        <time>2021-12-16T07:52:24Z</time>
      </trkpt>
      <trkpt lat="44.72254" lon="6.92301">
        <ele>2398</ele>
        <time>2021-12-16T07:52:29Z</time>
      </trkpt>
      <trkpt lat="44.72253" lon="6.92304">
        <ele>2398</ele>
        <time>2021-12-16T07:52:31Z</time>
      </trkpt>
      <trkpt lat="44.72252" lon="6.92306">
        <ele>2398</ele>
        <time>2021-12-16T07:52:33Z</time>
      </trkpt>
      <trkpt lat="44.72249" lon="6.92313">
        <ele>2401</ele>
        <time>2021-12-16T07:52:41Z</time>
      </trkpt>
      <trkpt lat="44.72247" lon="6.92321">
        <ele>2403</ele>
        <time>2021-12-16T07:52:49Z</time>
      </trkpt>
      <trkpt lat="44.72246" lon="6.92323">
        <ele>2403</ele>
        <time>2021-12-16T07:52:52Z</time>
      </trkpt>
      <trkpt lat="44.72244" lon="6.92329">
        <ele>2404</ele>
        <time>2021-12-16T07:53:00Z</time>
      </trkpt>
      <trkpt lat="44.72244" lon="6.92334">
        <ele>2405</ele>
        <time>2021-12-16T07:53:06Z</time>
      </trkpt>
      <trkpt lat="44.72242" lon="6.92339">
        <ele>2405</ele>
        <time>2021-12-16T07:53:10Z</time>
      </trkpt>
      <trkpt lat="44.7224" lon="6.92342">
        <ele>2406</ele>
        <time>2021-12-16T07:53:14Z</time>
      </trkpt>
      <trkpt lat="44.7224" lon="6.92344">
        <ele>2406</ele>
        <time>2021-12-16T07:53:16Z</time>
      </trkpt>
      <trkpt lat="44.72236" lon="6.92356">
        <ele>2408</ele>
        <time>2021-12-16T07:53:32Z</time>
      </trkpt>
      <trkpt lat="44.72231" lon="6.92366">
        <ele>2409</ele>
        <time>2021-12-16T07:53:43Z</time>
      </trkpt>
      <trkpt lat="44.72231" lon="6.92368">
        <ele>2409</ele>
        <time>2021-12-16T07:53:47Z</time>
      </trkpt>
      <trkpt lat="44.72231" lon="6.9237">
        <ele>2409</ele>
        <time>2021-12-16T07:53:49Z</time>
      </trkpt>
      <trkpt lat="44.72231" lon="6.92373">
        <ele>2409</ele>
        <time>2021-12-16T07:53:52Z</time>
      </trkpt>
      <trkpt lat="44.7223" lon="6.92376">
        <ele>2409</ele>
        <time>2021-12-16T07:53:55Z</time>
      </trkpt>
      <trkpt lat="44.72227" lon="6.92388">
        <ele>2410</ele>
        <time>2021-12-16T07:54:06Z</time>
      </trkpt>
      <trkpt lat="44.72227" lon="6.92395">
        <ele>2410</ele>
        <time>2021-12-16T07:54:12Z</time>
      </trkpt>
      <trkpt lat="44.72227" lon="6.92398">
        <ele>2410</ele>
        <time>2021-12-16T07:54:14Z</time>
      </trkpt>
      <trkpt lat="44.72228" lon="6.924">
        <ele>2410</ele>
        <time>2021-12-16T07:54:17Z</time>
      </trkpt>
      <trkpt lat="44.72228" lon="6.92402">
        <ele>2410</ele>
        <time>2021-12-16T07:54:19Z</time>
      </trkpt>
      <trkpt lat="44.72225" lon="6.92408">
        <ele>2410</ele>
        <time>2021-12-16T07:54:26Z</time>
      </trkpt>
      <trkpt lat="44.72225" lon="6.92411">
        <ele>2410</ele>
        <time>2021-12-16T07:54:28Z</time>
      </trkpt>
      <trkpt lat="44.72224" lon="6.92416">
        <ele>2410</ele>
        <time>2021-12-16T07:54:33Z</time>
      </trkpt>
      <trkpt lat="44.72224" lon="6.92419">
        <ele>2410</ele>
        <time>2021-12-16T07:54:35Z</time>
      </trkpt>
      <trkpt lat="44.72224" lon="6.92421">
        <ele>2410</ele>
        <time>2021-12-16T07:54:37Z</time>
      </trkpt>
      <trkpt lat="44.72223" lon="6.92423">
        <ele>2410</ele>
        <time>2021-12-16T07:54:39Z</time>
      </trkpt>
      <trkpt lat="44.72222" lon="6.92426">
        <ele>2410</ele>
        <time>2021-12-16T07:54:41Z</time>
      </trkpt>
      <trkpt lat="44.72222" lon="6.92428">
        <ele>2409</ele>
        <time>2021-12-16T07:54:45Z</time>
      </trkpt>
      <trkpt lat="44.72217" lon="6.92437">
        <ele>2406</ele>
        <time>2021-12-16T07:54:54Z</time>
      </trkpt>
      <trkpt lat="44.72213" lon="6.9244">
        <ele>2406</ele>
        <time>2021-12-16T07:54:58Z</time>
      </trkpt>
      <trkpt lat="44.72212" lon="6.92443">
        <ele>2406</ele>
        <time>2021-12-16T07:55:01Z</time>
      </trkpt>
      <trkpt lat="44.7221" lon="6.92447">
        <ele>2407</ele>
        <time>2021-12-16T07:55:06Z</time>
      </trkpt>
      <trkpt lat="44.72209" lon="6.92449">
        <ele>2408</ele>
        <time>2021-12-16T07:55:10Z</time>
      </trkpt>
      <trkpt lat="44.72207" lon="6.92453">
        <ele>2409</ele>
        <time>2021-12-16T07:55:17Z</time>
      </trkpt>
      <trkpt lat="44.72205" lon="6.92454">
        <ele>2409</ele>
        <time>2021-12-16T07:55:19Z</time>
      </trkpt>
      <trkpt lat="44.72202" lon="6.92457">
        <ele>2409</ele>
        <time>2021-12-16T07:55:26Z</time>
      </trkpt>
      <trkpt lat="44.72201" lon="6.92459">
        <ele>2410</ele>
        <time>2021-12-16T07:55:30Z</time>
      </trkpt>
      <trkpt lat="44.72195" lon="6.92465">
        <ele>2411</ele>
        <time>2021-12-16T07:55:42Z</time>
      </trkpt>
      <trkpt lat="44.72196" lon="6.92468">
        <ele>2412</ele>
        <time>2021-12-16T07:55:53Z</time>
      </trkpt>
      <trkpt lat="44.72195" lon="6.9247">
        <ele>2412</ele>
        <time>2021-12-16T07:55:56Z</time>
      </trkpt>
      <trkpt lat="44.72193" lon="6.92472">
        <ele>2412</ele>
        <time>2021-12-16T07:55:58Z</time>
      </trkpt>
      <trkpt lat="44.7219" lon="6.92478">
        <ele>2413</ele>
        <time>2021-12-16T07:56:11Z</time>
      </trkpt>
      <trkpt lat="44.72183" lon="6.92488">
        <ele>2413</ele>
        <time>2021-12-16T07:56:27Z</time>
      </trkpt>
      <trkpt lat="44.72181" lon="6.92493">
        <ele>2414</ele>
        <time>2021-12-16T07:56:35Z</time>
      </trkpt>
      <trkpt lat="44.72176" lon="6.92504">
        <ele>2415</ele>
        <time>2021-12-16T07:56:50Z</time>
      </trkpt>
      <trkpt lat="44.72176" lon="6.92506">
        <ele>2416</ele>
        <time>2021-12-16T07:56:53Z</time>
      </trkpt>
      <trkpt lat="44.72176" lon="6.92509">
        <ele>2415</ele>
        <time>2021-12-16T07:56:56Z</time>
      </trkpt>
      <trkpt lat="44.7217" lon="6.92537">
        <ele>2417</ele>
        <time>2021-12-16T07:57:21Z</time>
      </trkpt>
      <trkpt lat="44.72169" lon="6.92539">
        <ele>2417</ele>
        <time>2021-12-16T07:57:23Z</time>
      </trkpt>
      <trkpt lat="44.72169" lon="6.92541">
        <ele>2417</ele>
        <time>2021-12-16T07:57:25Z</time>
      </trkpt>
      <trkpt lat="44.72169" lon="6.92545">
        <ele>2417</ele>
        <time>2021-12-16T07:57:28Z</time>
      </trkpt>
      <trkpt lat="44.72169" lon="6.92547">
        <ele>2417</ele>
        <time>2021-12-16T07:57:31Z</time>
      </trkpt>
      <trkpt lat="44.72169" lon="6.92551">
        <ele>2417</ele>
        <time>2021-12-16T07:57:34Z</time>
      </trkpt>
      <trkpt lat="44.72167" lon="6.92559">
        <ele>2417</ele>
        <time>2021-12-16T07:57:41Z</time>
      </trkpt>
      <trkpt lat="44.72167" lon="6.92561">
        <ele>2417</ele>
        <time>2021-12-16T07:57:43Z</time>
      </trkpt>
      <trkpt lat="44.72167" lon="6.92563">
        <ele>2418</ele>
        <time>2021-12-16T07:57:45Z</time>
      </trkpt>
      <trkpt lat="44.72166" lon="6.92566">
        <ele>2418</ele>
        <time>2021-12-16T07:57:47Z</time>
      </trkpt>
      <trkpt lat="44.72165" lon="6.9257">
        <ele>2419</ele>
        <time>2021-12-16T07:57:51Z</time>
      </trkpt>
      <trkpt lat="44.72165" lon="6.92573">
        <ele>2419</ele>
        <time>2021-12-16T07:57:53Z</time>
      </trkpt>
      <trkpt lat="44.72164" lon="6.92578">
        <ele>2420</ele>
        <time>2021-12-16T07:57:59Z</time>
      </trkpt>
      <trkpt lat="44.72164" lon="6.9258">
        <ele>2420</ele>
        <time>2021-12-16T07:58:02Z</time>
      </trkpt>
      <trkpt lat="44.72164" lon="6.92583">
        <ele>2421</ele>
        <time>2021-12-16T07:58:04Z</time>
      </trkpt>
      <trkpt lat="44.72163" lon="6.92585">
        <ele>2421</ele>
        <time>2021-12-16T07:58:06Z</time>
      </trkpt>
      <trkpt lat="44.72162" lon="6.92587">
        <ele>2422</ele>
        <time>2021-12-16T07:58:09Z</time>
      </trkpt>
      <trkpt lat="44.72161" lon="6.92593">
        <ele>2422</ele>
        <time>2021-12-16T07:58:16Z</time>
      </trkpt>
      <trkpt lat="44.7216" lon="6.92595">
        <ele>2422</ele>
        <time>2021-12-16T07:58:19Z</time>
      </trkpt>
      <trkpt lat="44.72159" lon="6.926">
        <ele>2423</ele>
        <time>2021-12-16T07:58:24Z</time>
      </trkpt>
      <trkpt lat="44.72157" lon="6.92608">
        <ele>2424</ele>
        <time>2021-12-16T07:58:34Z</time>
      </trkpt>
      <trkpt lat="44.72157" lon="6.9261">
        <ele>2424</ele>
        <time>2021-12-16T07:58:42Z</time>
      </trkpt>
      <trkpt lat="44.72156" lon="6.92613">
        <ele>2424</ele>
        <time>2021-12-16T07:58:58Z</time>
      </trkpt>
      <trkpt lat="44.72154" lon="6.92628">
        <ele>2424</ele>
        <time>2021-12-16T07:59:13Z</time>
      </trkpt>
      <trkpt lat="44.72153" lon="6.92631">
        <ele>2424</ele>
        <time>2021-12-16T07:59:15Z</time>
      </trkpt>
      <trkpt lat="44.72152" lon="6.92636">
        <ele>2425</ele>
        <time>2021-12-16T07:59:21Z</time>
      </trkpt>
      <trkpt lat="44.72152" lon="6.92641">
        <ele>2426</ele>
        <time>2021-12-16T07:59:27Z</time>
      </trkpt>
      <trkpt lat="44.7215" lon="6.92646">
        <ele>2427</ele>
        <time>2021-12-16T07:59:31Z</time>
      </trkpt>
      <trkpt lat="44.7215" lon="6.92648">
        <ele>2427</ele>
        <time>2021-12-16T07:59:34Z</time>
      </trkpt>
      <trkpt lat="44.72147" lon="6.92652">
        <ele>2427</ele>
        <time>2021-12-16T07:59:38Z</time>
      </trkpt>
      <trkpt lat="44.72145" lon="6.92654">
        <ele>2427</ele>
        <time>2021-12-16T07:59:41Z</time>
      </trkpt>
      <trkpt lat="44.72144" lon="6.92656">
        <ele>2428</ele>
        <time>2021-12-16T07:59:44Z</time>
      </trkpt>
      <trkpt lat="44.72141" lon="6.9266">
        <ele>2428</ele>
        <time>2021-12-16T07:59:51Z</time>
      </trkpt>
      <trkpt lat="44.72141" lon="6.92663">
        <ele>2429</ele>
        <time>2021-12-16T07:59:54Z</time>
      </trkpt>
      <trkpt lat="44.72141" lon="6.92666">
        <ele>2429</ele>
        <time>2021-12-16T07:59:57Z</time>
      </trkpt>
      <trkpt lat="44.72142" lon="6.92668">
        <ele>2429</ele>
        <time>2021-12-16T07:59:59Z</time>
      </trkpt>
      <trkpt lat="44.72141" lon="6.92673">
        <ele>2430</ele>
        <time>2021-12-16T08:00:04Z</time>
      </trkpt>
      <trkpt lat="44.72141" lon="6.92675">
        <ele>2430</ele>
        <time>2021-12-16T08:00:06Z</time>
      </trkpt>
      <trkpt lat="44.7214" lon="6.9268">
        <ele>2430</ele>
        <time>2021-12-16T08:00:10Z</time>
      </trkpt>
      <trkpt lat="44.72139" lon="6.92682">
        <ele>2431</ele>
        <time>2021-12-16T08:00:13Z</time>
      </trkpt>
      <trkpt lat="44.72137" lon="6.92687">
        <ele>2433</ele>
        <time>2021-12-16T08:00:18Z</time>
      </trkpt>
      <trkpt lat="44.72134" lon="6.92693">
        <ele>2435</ele>
        <time>2021-12-16T08:00:25Z</time>
      </trkpt>
      <trkpt lat="44.72134" lon="6.92697">
        <ele>2437</ele>
        <time>2021-12-16T08:00:32Z</time>
      </trkpt>
      <trkpt lat="44.72132" lon="6.92711">
        <ele>2441</ele>
        <time>2021-12-16T08:00:47Z</time>
      </trkpt>
      <trkpt lat="44.72135" lon="6.92714">
        <ele>2441</ele>
        <time>2021-12-16T08:00:52Z</time>
      </trkpt>
      <trkpt lat="44.72135" lon="6.92719">
        <ele>2440</ele>
        <time>2021-12-16T08:00:57Z</time>
      </trkpt>
      <trkpt lat="44.72135" lon="6.92722">
        <ele>2440</ele>
        <time>2021-12-16T08:01:00Z</time>
      </trkpt>
      <trkpt lat="44.72134" lon="6.92724">
        <ele>2440</ele>
        <time>2021-12-16T08:01:03Z</time>
      </trkpt>
      <trkpt lat="44.72134" lon="6.92727">
        <ele>2440</ele>
        <time>2021-12-16T08:01:07Z</time>
      </trkpt>
      <trkpt lat="44.72134" lon="6.92732">
        <ele>2439</ele>
        <time>2021-12-16T08:01:13Z</time>
      </trkpt>
      <trkpt lat="44.72134" lon="6.92734">
        <ele>2438</ele>
        <time>2021-12-16T08:01:18Z</time>
      </trkpt>
      <trkpt lat="44.72132" lon="6.92736">
        <ele>2438</ele>
        <time>2021-12-16T08:02:08Z</time>
      </trkpt>
      <trkpt lat="44.7213" lon="6.92739">
        <ele>2440</ele>
        <time>2021-12-16T08:02:13Z</time>
      </trkpt>
      <trkpt lat="44.72129" lon="6.92743">
        <ele>2440</ele>
        <time>2021-12-16T08:02:19Z</time>
      </trkpt>
      <trkpt lat="44.72129" lon="6.92749">
        <ele>2441</ele>
        <time>2021-12-16T08:02:24Z</time>
      </trkpt>
      <trkpt lat="44.72129" lon="6.92751">
        <ele>2442</ele>
        <time>2021-12-16T08:02:26Z</time>
      </trkpt>
      <trkpt lat="44.72128" lon="6.92754">
        <ele>2442</ele>
        <time>2021-12-16T08:02:29Z</time>
      </trkpt>
      <trkpt lat="44.72128" lon="6.92757">
        <ele>2442</ele>
        <time>2021-12-16T08:02:33Z</time>
      </trkpt>
      <trkpt lat="44.72126" lon="6.92767">
        <ele>2445</ele>
        <time>2021-12-16T08:02:43Z</time>
      </trkpt>
      <trkpt lat="44.72126" lon="6.92774">
        <ele>2446</ele>
        <time>2021-12-16T08:02:51Z</time>
      </trkpt>
      <trkpt lat="44.72126" lon="6.92777">
        <ele>2447</ele>
        <time>2021-12-16T08:02:54Z</time>
      </trkpt>
      <trkpt lat="44.72126" lon="6.92779">
        <ele>2447</ele>
        <time>2021-12-16T08:02:56Z</time>
      </trkpt>
      <trkpt lat="44.72126" lon="6.92782">
        <ele>2447</ele>
        <time>2021-12-16T08:02:58Z</time>
      </trkpt>
      <trkpt lat="44.72126" lon="6.92784">
        <ele>2447</ele>
        <time>2021-12-16T08:03:00Z</time>
      </trkpt>
      <trkpt lat="44.72124" lon="6.92795">
        <ele>2448</ele>
        <time>2021-12-16T08:03:11Z</time>
      </trkpt>
      <trkpt lat="44.72124" lon="6.92805">
        <ele>2447</ele>
        <time>2021-12-16T08:03:19Z</time>
      </trkpt>
      <trkpt lat="44.72124" lon="6.92808">
        <ele>2447</ele>
        <time>2021-12-16T08:03:21Z</time>
      </trkpt>
      <trkpt lat="44.72123" lon="6.92813">
        <ele>2447</ele>
        <time>2021-12-16T08:03:25Z</time>
      </trkpt>
      <trkpt lat="44.72123" lon="6.92815">
        <ele>2447</ele>
        <time>2021-12-16T08:03:28Z</time>
      </trkpt>
      <trkpt lat="44.72123" lon="6.92817">
        <ele>2447</ele>
        <time>2021-12-16T08:03:30Z</time>
      </trkpt>
      <trkpt lat="44.72122" lon="6.92821">
        <ele>2448</ele>
        <time>2021-12-16T08:03:33Z</time>
      </trkpt>
      <trkpt lat="44.72122" lon="6.92826">
        <ele>2448</ele>
        <time>2021-12-16T08:03:38Z</time>
      </trkpt>
      <trkpt lat="44.72121" lon="6.92829">
        <ele>2448</ele>
        <time>2021-12-16T08:03:41Z</time>
      </trkpt>
      <trkpt lat="44.72118" lon="6.92841">
        <ele>2447</ele>
        <time>2021-12-16T08:03:50Z</time>
      </trkpt>
      <trkpt lat="44.72118" lon="6.92843">
        <ele>2448</ele>
        <time>2021-12-16T08:03:54Z</time>
      </trkpt>
      <trkpt lat="44.72117" lon="6.92845">
        <ele>2449</ele>
        <time>2021-12-16T08:03:58Z</time>
      </trkpt>
      <trkpt lat="44.72117" lon="6.92854">
        <ele>2449</ele>
        <time>2021-12-16T08:04:06Z</time>
      </trkpt>
      <trkpt lat="44.72117" lon="6.92859">
        <ele>2448</ele>
        <time>2021-12-16T08:04:12Z</time>
      </trkpt>
      <trkpt lat="44.72116" lon="6.92866">
        <ele>2448</ele>
        <time>2021-12-16T08:04:17Z</time>
      </trkpt>
      <trkpt lat="44.72115" lon="6.92871">
        <ele>2447</ele>
        <time>2021-12-16T08:04:21Z</time>
      </trkpt>
      <trkpt lat="44.72115" lon="6.92874">
        <ele>2446</ele>
        <time>2021-12-16T08:04:24Z</time>
      </trkpt>
      <trkpt lat="44.72114" lon="6.92879">
        <ele>2446</ele>
        <time>2021-12-16T08:04:29Z</time>
      </trkpt>
      <trkpt lat="44.72113" lon="6.92882">
        <ele>2446</ele>
        <time>2021-12-16T08:04:31Z</time>
      </trkpt>
      <trkpt lat="44.72113" lon="6.92884">
        <ele>2446</ele>
        <time>2021-12-16T08:04:34Z</time>
      </trkpt>
      <trkpt lat="44.72113" lon="6.92889">
        <ele>2447</ele>
        <time>2021-12-16T08:04:40Z</time>
      </trkpt>
      <trkpt lat="44.72112" lon="6.92896">
        <ele>2448</ele>
        <time>2021-12-16T08:04:45Z</time>
      </trkpt>
      <trkpt lat="44.72111" lon="6.929">
        <ele>2448</ele>
        <time>2021-12-16T08:04:47Z</time>
      </trkpt>
      <trkpt lat="44.7211" lon="6.92907">
        <ele>2449</ele>
        <time>2021-12-16T08:04:54Z</time>
      </trkpt>
      <trkpt lat="44.72108" lon="6.92912">
        <ele>2450</ele>
        <time>2021-12-16T08:04:58Z</time>
      </trkpt>
      <trkpt lat="44.72109" lon="6.92915">
        <ele>2450</ele>
        <time>2021-12-16T08:05:00Z</time>
      </trkpt>
      <trkpt lat="44.72108" lon="6.92923">
        <ele>2450</ele>
        <time>2021-12-16T08:05:06Z</time>
      </trkpt>
      <trkpt lat="44.7211" lon="6.92927">
        <ele>2450</ele>
        <time>2021-12-16T08:05:11Z</time>
      </trkpt>
      <trkpt lat="44.7211" lon="6.9293">
        <ele>2450</ele>
        <time>2021-12-16T08:05:14Z</time>
      </trkpt>
      <trkpt lat="44.7211" lon="6.92933">
        <ele>2449</ele>
        <time>2021-12-16T08:05:17Z</time>
      </trkpt>
      <trkpt lat="44.72108" lon="6.92938">
        <ele>2449</ele>
        <time>2021-12-16T08:05:23Z</time>
      </trkpt>
      <trkpt lat="44.72107" lon="6.9294">
        <ele>2449</ele>
        <time>2021-12-16T08:05:24Z</time>
      </trkpt>
      <trkpt lat="44.72105" lon="6.92943">
        <ele>2449</ele>
        <time>2021-12-16T08:05:26Z</time>
      </trkpt>
      <trkpt lat="44.72105" lon="6.92945">
        <ele>2450</ele>
        <time>2021-12-16T08:05:42Z</time>
      </trkpt>
      <trkpt lat="44.72102" lon="6.9296">
        <ele>2451</ele>
        <time>2021-12-16T08:05:55Z</time>
      </trkpt>
      <trkpt lat="44.72098" lon="6.92973">
        <ele>2453</ele>
        <time>2021-12-16T08:06:08Z</time>
      </trkpt>
      <trkpt lat="44.72098" lon="6.92975">
        <ele>2454</ele>
        <time>2021-12-16T08:06:13Z</time>
      </trkpt>
      <trkpt lat="44.72099" lon="6.92977">
        <ele>2453</ele>
        <time>2021-12-16T08:06:20Z</time>
      </trkpt>
      <trkpt lat="44.72098" lon="6.92981">
        <ele>2452</ele>
        <time>2021-12-16T08:06:26Z</time>
      </trkpt>
      <trkpt lat="44.72097" lon="6.92983">
        <ele>2452</ele>
        <time>2021-12-16T08:06:28Z</time>
      </trkpt>
      <trkpt lat="44.72097" lon="6.92986">
        <ele>2453</ele>
        <time>2021-12-16T08:06:31Z</time>
      </trkpt>
      <trkpt lat="44.72094" lon="6.92993">
        <ele>2453</ele>
        <time>2021-12-16T08:06:38Z</time>
      </trkpt>
      <trkpt lat="44.72094" lon="6.92999">
        <ele>2453</ele>
        <time>2021-12-16T08:06:44Z</time>
      </trkpt>
      <trkpt lat="44.72093" lon="6.93007">
        <ele>2454</ele>
        <time>2021-12-16T08:06:53Z</time>
      </trkpt>
      <trkpt lat="44.72093" lon="6.9301">
        <ele>2454</ele>
        <time>2021-12-16T08:07:00Z</time>
      </trkpt>
      <trkpt lat="44.72092" lon="6.93014">
        <ele>2455</ele>
        <time>2021-12-16T08:07:09Z</time>
      </trkpt>
      <trkpt lat="44.72091" lon="6.93018">
        <ele>2456</ele>
        <time>2021-12-16T08:07:12Z</time>
      </trkpt>
      <trkpt lat="44.72091" lon="6.9302">
        <ele>2456</ele>
        <time>2021-12-16T08:07:14Z</time>
      </trkpt>
      <trkpt lat="44.7209" lon="6.93031">
        <ele>2456</ele>
        <time>2021-12-16T08:07:23Z</time>
      </trkpt>
      <trkpt lat="44.72089" lon="6.93042">
        <ele>2457</ele>
        <time>2021-12-16T08:07:32Z</time>
      </trkpt>
      <trkpt lat="44.72089" lon="6.93048">
        <ele>2457</ele>
        <time>2021-12-16T08:07:37Z</time>
      </trkpt>
      <trkpt lat="44.72088" lon="6.93053">
        <ele>2458</ele>
        <time>2021-12-16T08:07:43Z</time>
      </trkpt>
      <trkpt lat="44.72087" lon="6.93055">
        <ele>2458</ele>
        <time>2021-12-16T08:07:46Z</time>
      </trkpt>
      <trkpt lat="44.72087" lon="6.93057">
        <ele>2458</ele>
        <time>2021-12-16T08:07:48Z</time>
      </trkpt>
      <trkpt lat="44.72086" lon="6.93067">
        <ele>2460</ele>
        <time>2021-12-16T08:08:00Z</time>
      </trkpt>
      <trkpt lat="44.72084" lon="6.93071">
        <ele>2460</ele>
        <time>2021-12-16T08:08:05Z</time>
      </trkpt>
      <trkpt lat="44.72084" lon="6.93074">
        <ele>2460</ele>
        <time>2021-12-16T08:08:08Z</time>
      </trkpt>
      <trkpt lat="44.72084" lon="6.93077">
        <ele>2460</ele>
        <time>2021-12-16T08:08:10Z</time>
      </trkpt>
      <trkpt lat="44.72084" lon="6.9308">
        <ele>2460</ele>
        <time>2021-12-16T08:08:14Z</time>
      </trkpt>
      <trkpt lat="44.72084" lon="6.93085">
        <ele>2461</ele>
        <time>2021-12-16T08:08:19Z</time>
      </trkpt>
      <trkpt lat="44.72081" lon="6.9309">
        <ele>2461</ele>
        <time>2021-12-16T08:08:24Z</time>
      </trkpt>
      <trkpt lat="44.72081" lon="6.93095">
        <ele>2462</ele>
        <time>2021-12-16T08:08:28Z</time>
      </trkpt>
      <trkpt lat="44.72081" lon="6.93098">
        <ele>2463</ele>
        <time>2021-12-16T08:08:30Z</time>
      </trkpt>
      <trkpt lat="44.72082" lon="6.93103">
        <ele>2464</ele>
        <time>2021-12-16T08:08:38Z</time>
      </trkpt>
      <trkpt lat="44.72082" lon="6.93105">
        <ele>2463</ele>
        <time>2021-12-16T08:08:40Z</time>
      </trkpt>
      <trkpt lat="44.72082" lon="6.93108">
        <ele>2462</ele>
        <time>2021-12-16T08:08:44Z</time>
      </trkpt>
      <trkpt lat="44.72081" lon="6.93108">
        <ele>2462</ele>
        <time>2021-12-16T08:08:51Z</time>
      </trkpt>
      <trkpt lat="44.72081" lon="6.93112">
        <ele>2463</ele>
        <time>2021-12-16T08:08:57Z</time>
      </trkpt>
      <trkpt lat="44.72081" lon="6.93114">
        <ele>2463</ele>
        <time>2021-12-16T08:08:59Z</time>
      </trkpt>
      <trkpt lat="44.72083" lon="6.93116">
        <ele>2463</ele>
        <time>2021-12-16T08:09:05Z</time>
      </trkpt>
      <trkpt lat="44.72083" lon="6.9312">
        <ele>2463</ele>
        <time>2021-12-16T08:09:08Z</time>
      </trkpt>
      <trkpt lat="44.72083" lon="6.93123">
        <ele>2462</ele>
        <time>2021-12-16T08:09:12Z</time>
      </trkpt>
      <trkpt lat="44.72082" lon="6.9313">
        <ele>2462</ele>
        <time>2021-12-16T08:09:26Z</time>
      </trkpt>
      <trkpt lat="44.72077" lon="6.93139">
        <ele>2462</ele>
        <time>2021-12-16T08:09:37Z</time>
      </trkpt>
      <trkpt lat="44.72076" lon="6.93141">
        <ele>2462</ele>
        <time>2021-12-16T08:09:39Z</time>
      </trkpt>
      <trkpt lat="44.72077" lon="6.93144">
        <ele>2463</ele>
        <time>2021-12-16T08:09:41Z</time>
      </trkpt>
      <trkpt lat="44.72077" lon="6.93149">
        <ele>2464</ele>
        <time>2021-12-16T08:09:47Z</time>
      </trkpt>
      <trkpt lat="44.72076" lon="6.93155">
        <ele>2465</ele>
        <time>2021-12-16T08:09:52Z</time>
      </trkpt>
      <trkpt lat="44.72075" lon="6.93157">
        <ele>2465</ele>
        <time>2021-12-16T08:09:58Z</time>
      </trkpt>
      <trkpt lat="44.72075" lon="6.9316">
        <ele>2464</ele>
        <time>2021-12-16T08:10:01Z</time>
      </trkpt>
      <trkpt lat="44.72074" lon="6.93163">
        <ele>2465</ele>
        <time>2021-12-16T08:10:03Z</time>
      </trkpt>
      <trkpt lat="44.72072" lon="6.93169">
        <ele>2465</ele>
        <time>2021-12-16T08:10:07Z</time>
      </trkpt>
      <trkpt lat="44.72071" lon="6.93171">
        <ele>2466</ele>
        <time>2021-12-16T08:10:09Z</time>
      </trkpt>
      <trkpt lat="44.7207" lon="6.93174">
        <ele>2466</ele>
        <time>2021-12-16T08:10:11Z</time>
      </trkpt>
      <trkpt lat="44.72069" lon="6.93179">
        <ele>2467</ele>
        <time>2021-12-16T08:10:15Z</time>
      </trkpt>
      <trkpt lat="44.72068" lon="6.93183">
        <ele>2468</ele>
        <time>2021-12-16T08:10:19Z</time>
      </trkpt>
      <trkpt lat="44.72067" lon="6.93186">
        <ele>2468</ele>
        <time>2021-12-16T08:10:22Z</time>
      </trkpt>
      <trkpt lat="44.72066" lon="6.93188">
        <ele>2468</ele>
        <time>2021-12-16T08:10:24Z</time>
      </trkpt>
      <trkpt lat="44.72063" lon="6.93195">
        <ele>2468</ele>
        <time>2021-12-16T08:10:30Z</time>
      </trkpt>
      <trkpt lat="44.72063" lon="6.93218">
        <ele>2466</ele>
        <time>2021-12-16T08:10:48Z</time>
      </trkpt>
      <trkpt lat="44.72058" lon="6.93234">
        <ele>2465</ele>
        <time>2021-12-16T08:11:04Z</time>
      </trkpt>
      <trkpt lat="44.72057" lon="6.9324">
        <ele>2465</ele>
        <time>2021-12-16T08:11:08Z</time>
      </trkpt>
      <trkpt lat="44.72057" lon="6.93242">
        <ele>2465</ele>
        <time>2021-12-16T08:11:10Z</time>
      </trkpt>
      <trkpt lat="44.72056" lon="6.93244">
        <ele>2465</ele>
        <time>2021-12-16T08:11:12Z</time>
      </trkpt>
      <trkpt lat="44.72055" lon="6.93247">
        <ele>2465</ele>
        <time>2021-12-16T08:11:14Z</time>
      </trkpt>
      <trkpt lat="44.72055" lon="6.93249">
        <ele>2465</ele>
        <time>2021-12-16T08:11:17Z</time>
      </trkpt>
      <trkpt lat="44.72054" lon="6.93252">
        <ele>2465</ele>
        <time>2021-12-16T08:11:20Z</time>
      </trkpt>
      <trkpt lat="44.72054" lon="6.93259">
        <ele>2466</ele>
        <time>2021-12-16T08:11:26Z</time>
      </trkpt>
      <trkpt lat="44.72052" lon="6.93268">
        <ele>2467</ele>
        <time>2021-12-16T08:11:34Z</time>
      </trkpt>
      <trkpt lat="44.72052" lon="6.9327">
        <ele>2467</ele>
        <time>2021-12-16T08:11:36Z</time>
      </trkpt>
      <trkpt lat="44.7205" lon="6.93277">
        <ele>2468</ele>
        <time>2021-12-16T08:11:43Z</time>
      </trkpt>
      <trkpt lat="44.72049" lon="6.93278">
        <ele>2468</ele>
        <time>2021-12-16T08:11:45Z</time>
      </trkpt>
      <trkpt lat="44.72043" lon="6.9329">
        <ele>2469</ele>
        <time>2021-12-16T08:11:57Z</time>
      </trkpt>
      <trkpt lat="44.72042" lon="6.93295">
        <ele>2469</ele>
        <time>2021-12-16T08:12:02Z</time>
      </trkpt>
      <trkpt lat="44.72042" lon="6.93298">
        <ele>2470</ele>
        <time>2021-12-16T08:12:05Z</time>
      </trkpt>
      <trkpt lat="44.72042" lon="6.933">
        <ele>2470</ele>
        <time>2021-12-16T08:12:13Z</time>
      </trkpt>
      <trkpt lat="44.72043" lon="6.93303">
        <ele>2470</ele>
        <time>2021-12-16T08:12:37Z</time>
      </trkpt>
      <trkpt lat="44.72042" lon="6.93304">
        <ele>2469</ele>
        <time>2021-12-16T08:13:30Z</time>
      </trkpt>
      <trkpt lat="44.72041" lon="6.93306">
        <ele>2471</ele>
        <time>2021-12-16T08:13:34Z</time>
      </trkpt>
      <trkpt lat="44.72043" lon="6.93309">
        <ele>2471</ele>
        <time>2021-12-16T08:13:37Z</time>
      </trkpt>
      <trkpt lat="44.72039" lon="6.93325">
        <ele>2473</ele>
        <time>2021-12-16T08:13:47Z</time>
      </trkpt>
      <trkpt lat="44.72039" lon="6.93328">
        <ele>2474</ele>
        <time>2021-12-16T08:13:49Z</time>
      </trkpt>
      <trkpt lat="44.72038" lon="6.9333">
        <ele>2474</ele>
        <time>2021-12-16T08:13:51Z</time>
      </trkpt>
      <trkpt lat="44.72038" lon="6.93333">
        <ele>2474</ele>
        <time>2021-12-16T08:13:53Z</time>
      </trkpt>
      <trkpt lat="44.72037" lon="6.93336">
        <ele>2474</ele>
        <time>2021-12-16T08:13:55Z</time>
      </trkpt>
      <trkpt lat="44.72036" lon="6.93338">
        <ele>2474</ele>
        <time>2021-12-16T08:13:57Z</time>
      </trkpt>
      <trkpt lat="44.72035" lon="6.9334">
        <ele>2474</ele>
        <time>2021-12-16T08:13:59Z</time>
      </trkpt>
      <trkpt lat="44.72035" lon="6.93345">
        <ele>2474</ele>
        <time>2021-12-16T08:14:03Z</time>
      </trkpt>
      <trkpt lat="44.72034" lon="6.9335">
        <ele>2473</ele>
        <time>2021-12-16T08:14:07Z</time>
      </trkpt>
      <trkpt lat="44.72034" lon="6.93352">
        <ele>2473</ele>
        <time>2021-12-16T08:14:09Z</time>
      </trkpt>
      <trkpt lat="44.72032" lon="6.93364">
        <ele>2473</ele>
        <time>2021-12-16T08:14:21Z</time>
      </trkpt>
      <trkpt lat="44.7203" lon="6.93366">
        <ele>2474</ele>
        <time>2021-12-16T08:14:23Z</time>
      </trkpt>
      <trkpt lat="44.72027" lon="6.93384">
        <ele>2476</ele>
        <time>2021-12-16T08:14:38Z</time>
      </trkpt>
      <trkpt lat="44.72025" lon="6.93386">
        <ele>2477</ele>
        <time>2021-12-16T08:14:41Z</time>
      </trkpt>
      <trkpt lat="44.72025" lon="6.93388">
        <ele>2478</ele>
        <time>2021-12-16T08:14:43Z</time>
      </trkpt>
      <trkpt lat="44.72024" lon="6.93392">
        <ele>2479</ele>
        <time>2021-12-16T08:14:45Z</time>
      </trkpt>
      <trkpt lat="44.72024" lon="6.93394">
        <ele>2479</ele>
        <time>2021-12-16T08:14:47Z</time>
      </trkpt>
      <trkpt lat="44.72023" lon="6.93399">
        <ele>2480</ele>
        <time>2021-12-16T08:14:51Z</time>
      </trkpt>
      <trkpt lat="44.72023" lon="6.93402">
        <ele>2480</ele>
        <time>2021-12-16T08:14:53Z</time>
      </trkpt>
      <trkpt lat="44.72021" lon="6.93416">
        <ele>2481</ele>
        <time>2021-12-16T08:15:07Z</time>
      </trkpt>
      <trkpt lat="44.72018" lon="6.93418">
        <ele>2480</ele>
        <time>2021-12-16T08:15:12Z</time>
      </trkpt>
      <trkpt lat="44.72016" lon="6.93418">
        <ele>2480</ele>
        <time>2021-12-16T08:15:15Z</time>
      </trkpt>
      <trkpt lat="44.72015" lon="6.93417">
        <ele>2481</ele>
        <time>2021-12-16T08:15:17Z</time>
      </trkpt>
      <trkpt lat="44.72012" lon="6.93414">
        <ele>2481</ele>
        <time>2021-12-16T08:15:23Z</time>
      </trkpt>
      <trkpt lat="44.72006" lon="6.93411">
        <ele>2482</ele>
        <time>2021-12-16T08:15:29Z</time>
      </trkpt>
      <trkpt lat="44.72005" lon="6.93412">
        <ele>2482</ele>
        <time>2021-12-16T08:15:31Z</time>
      </trkpt>
      <trkpt lat="44.72004" lon="6.93413">
        <ele>2482</ele>
        <time>2021-12-16T08:15:34Z</time>
      </trkpt>
      <trkpt lat="44.72" lon="6.93427">
        <ele>2480</ele>
        <time>2021-12-16T08:15:48Z</time>
      </trkpt>
      <trkpt lat="44.72" lon="6.9343">
        <ele>2480</ele>
        <time>2021-12-16T08:15:50Z</time>
      </trkpt>
      <trkpt lat="44.71999" lon="6.93432">
        <ele>2480</ele>
        <time>2021-12-16T08:15:52Z</time>
      </trkpt>
      <trkpt lat="44.71997" lon="6.9344">
        <ele>2480</ele>
        <time>2021-12-16T08:16:02Z</time>
      </trkpt>
      <trkpt lat="44.71994" lon="6.93446">
        <ele>2480</ele>
        <time>2021-12-16T08:16:08Z</time>
      </trkpt>
      <trkpt lat="44.7199" lon="6.93452">
        <ele>2482</ele>
        <time>2021-12-16T08:16:21Z</time>
      </trkpt>
      <trkpt lat="44.7199" lon="6.93455">
        <ele>2483</ele>
        <time>2021-12-16T08:16:24Z</time>
      </trkpt>
      <trkpt lat="44.7199" lon="6.9346">
        <ele>2483</ele>
        <time>2021-12-16T08:16:30Z</time>
      </trkpt>
      <trkpt lat="44.71989" lon="6.93465">
        <ele>2483</ele>
        <time>2021-12-16T08:16:35Z</time>
      </trkpt>
      <trkpt lat="44.71988" lon="6.93471">
        <ele>2484</ele>
        <time>2021-12-16T08:16:41Z</time>
      </trkpt>
      <trkpt lat="44.71989" lon="6.93473">
        <ele>2484</ele>
        <time>2021-12-16T08:16:43Z</time>
      </trkpt>
      <trkpt lat="44.71987" lon="6.93474">
        <ele>2487</ele>
        <time>2021-12-16T08:16:48Z</time>
      </trkpt>
      <trkpt lat="44.71987" lon="6.93476">
        <ele>2488</ele>
        <time>2021-12-16T08:16:51Z</time>
      </trkpt>
      <trkpt lat="44.71986" lon="6.93478">
        <ele>2489</ele>
        <time>2021-12-16T08:16:54Z</time>
      </trkpt>
      <trkpt lat="44.71987" lon="6.93488">
        <ele>2491</ele>
        <time>2021-12-16T08:17:05Z</time>
      </trkpt>
      <trkpt lat="44.71986" lon="6.9349">
        <ele>2491</ele>
        <time>2021-12-16T08:17:07Z</time>
      </trkpt>
      <trkpt lat="44.71985" lon="6.935">
        <ele>2493</ele>
        <time>2021-12-16T08:17:17Z</time>
      </trkpt>
      <trkpt lat="44.71984" lon="6.93504">
        <ele>2494</ele>
        <time>2021-12-16T08:17:22Z</time>
      </trkpt>
      <trkpt lat="44.71983" lon="6.93506">
        <ele>2494</ele>
        <time>2021-12-16T08:17:24Z</time>
      </trkpt>
      <trkpt lat="44.71978" lon="6.93521">
        <ele>2498</ele>
        <time>2021-12-16T08:17:41Z</time>
      </trkpt>
      <trkpt lat="44.71977" lon="6.93523">
        <ele>2498</ele>
        <time>2021-12-16T08:17:43Z</time>
      </trkpt>
      <trkpt lat="44.71977" lon="6.93525">
        <ele>2499</ele>
        <time>2021-12-16T08:17:45Z</time>
      </trkpt>
      <trkpt lat="44.71973" lon="6.93533">
        <ele>2501</ele>
        <time>2021-12-16T08:17:53Z</time>
      </trkpt>
      <trkpt lat="44.7197" lon="6.93542">
        <ele>2502</ele>
        <time>2021-12-16T08:18:01Z</time>
      </trkpt>
      <trkpt lat="44.71969" lon="6.93544">
        <ele>2502</ele>
        <time>2021-12-16T08:18:04Z</time>
      </trkpt>
      <trkpt lat="44.71967" lon="6.93551">
        <ele>2501</ele>
        <time>2021-12-16T08:18:12Z</time>
      </trkpt>
      <trkpt lat="44.71965" lon="6.93557">
        <ele>2502</ele>
        <time>2021-12-16T08:18:18Z</time>
      </trkpt>
      <trkpt lat="44.71965" lon="6.93559">
        <ele>2502</ele>
        <time>2021-12-16T08:18:20Z</time>
      </trkpt>
      <trkpt lat="44.71965" lon="6.93564">
        <ele>2502</ele>
        <time>2021-12-16T08:18:25Z</time>
      </trkpt>
      <trkpt lat="44.71965" lon="6.93566">
        <ele>2502</ele>
        <time>2021-12-16T08:18:28Z</time>
      </trkpt>
      <trkpt lat="44.71965" lon="6.93568">
        <ele>2503</ele>
        <time>2021-12-16T08:18:31Z</time>
      </trkpt>
      <trkpt lat="44.71964" lon="6.9358">
        <ele>2504</ele>
        <time>2021-12-16T08:18:42Z</time>
      </trkpt>
      <trkpt lat="44.71964" lon="6.93585">
        <ele>2505</ele>
        <time>2021-12-16T08:18:46Z</time>
      </trkpt>
      <trkpt lat="44.71965" lon="6.93609">
        <ele>2508</ele>
        <time>2021-12-16T08:19:14Z</time>
      </trkpt>
      <trkpt lat="44.71965" lon="6.93614">
        <ele>2508</ele>
        <time>2021-12-16T08:19:18Z</time>
      </trkpt>
      <trkpt lat="44.71964" lon="6.9362">
        <ele>2508</ele>
        <time>2021-12-16T08:19:25Z</time>
      </trkpt>
      <trkpt lat="44.71964" lon="6.93622">
        <ele>2508</ele>
        <time>2021-12-16T08:19:27Z</time>
      </trkpt>
      <trkpt lat="44.71965" lon="6.93628">
        <ele>2508</ele>
        <time>2021-12-16T08:19:33Z</time>
      </trkpt>
      <trkpt lat="44.71964" lon="6.93639">
        <ele>2508</ele>
        <time>2021-12-16T08:19:48Z</time>
      </trkpt>
      <trkpt lat="44.71963" lon="6.93644">
        <ele>2509</ele>
        <time>2021-12-16T08:19:53Z</time>
      </trkpt>
      <trkpt lat="44.71959" lon="6.93649">
        <ele>2509</ele>
        <time>2021-12-16T08:20:03Z</time>
      </trkpt>
      <trkpt lat="44.71957" lon="6.93652">
        <ele>2510</ele>
        <time>2021-12-16T08:20:08Z</time>
      </trkpt>
      <trkpt lat="44.71954" lon="6.9366">
        <ele>2511</ele>
        <time>2021-12-16T08:20:20Z</time>
      </trkpt>
      <trkpt lat="44.71953" lon="6.93662">
        <ele>2512</ele>
        <time>2021-12-16T08:20:23Z</time>
      </trkpt>
      <trkpt lat="44.71952" lon="6.93663">
        <ele>2512</ele>
        <time>2021-12-16T08:20:26Z</time>
      </trkpt>
      <trkpt lat="44.71951" lon="6.93666">
        <ele>2513</ele>
        <time>2021-12-16T08:20:28Z</time>
      </trkpt>
      <trkpt lat="44.71951" lon="6.93668">
        <ele>2513</ele>
        <time>2021-12-16T08:20:31Z</time>
      </trkpt>
      <trkpt lat="44.71951" lon="6.93669">
        <ele>2514</ele>
        <time>2021-12-16T08:20:34Z</time>
      </trkpt>
      <trkpt lat="44.71951" lon="6.93671">
        <ele>2514</ele>
        <time>2021-12-16T08:20:38Z</time>
      </trkpt>
      <trkpt lat="44.71953" lon="6.93671">
        <ele>2515</ele>
        <time>2021-12-16T08:20:40Z</time>
      </trkpt>
      <trkpt lat="44.71954" lon="6.93671">
        <ele>2515</ele>
        <time>2021-12-16T08:20:44Z</time>
      </trkpt>
      <trkpt lat="44.71956" lon="6.93672">
        <ele>2516</ele>
        <time>2021-12-16T08:20:47Z</time>
      </trkpt>
      <trkpt lat="44.71957" lon="6.93673">
        <ele>2516</ele>
        <time>2021-12-16T08:20:50Z</time>
      </trkpt>
      <trkpt lat="44.71962" lon="6.93676">
        <ele>2517</ele>
        <time>2021-12-16T08:20:59Z</time>
      </trkpt>
      <trkpt lat="44.71963" lon="6.93677">
        <ele>2517</ele>
        <time>2021-12-16T08:21:01Z</time>
      </trkpt>
      <trkpt lat="44.71964" lon="6.93679">
        <ele>2517</ele>
        <time>2021-12-16T08:21:04Z</time>
      </trkpt>
      <trkpt lat="44.71965" lon="6.93681">
        <ele>2518</ele>
        <time>2021-12-16T08:21:08Z</time>
      </trkpt>
      <trkpt lat="44.71964" lon="6.93683">
        <ele>2518</ele>
        <time>2021-12-16T08:21:11Z</time>
      </trkpt>
      <trkpt lat="44.71963" lon="6.93684">
        <ele>2518</ele>
        <time>2021-12-16T08:21:14Z</time>
      </trkpt>
      <trkpt lat="44.71959" lon="6.9369">
        <ele>2519</ele>
        <time>2021-12-16T08:21:23Z</time>
      </trkpt>
      <trkpt lat="44.71958" lon="6.93691">
        <ele>2520</ele>
        <time>2021-12-16T08:21:26Z</time>
      </trkpt>
      <trkpt lat="44.71957" lon="6.93693">
        <ele>2520</ele>
        <time>2021-12-16T08:21:28Z</time>
      </trkpt>
      <trkpt lat="44.71956" lon="6.93695">
        <ele>2520</ele>
        <time>2021-12-16T08:21:30Z</time>
      </trkpt>
      <trkpt lat="44.71956" lon="6.93697">
        <ele>2520</ele>
        <time>2021-12-16T08:21:32Z</time>
      </trkpt>
      <trkpt lat="44.71955" lon="6.93698">
        <ele>2520</ele>
        <time>2021-12-16T08:21:34Z</time>
      </trkpt>
      <trkpt lat="44.71955" lon="6.937">
        <ele>2520</ele>
        <time>2021-12-16T08:21:36Z</time>
      </trkpt>
      <trkpt lat="44.71954" lon="6.93703">
        <ele>2520</ele>
        <time>2021-12-16T08:21:38Z</time>
      </trkpt>
      <trkpt lat="44.71953" lon="6.93706">
        <ele>2520</ele>
        <time>2021-12-16T08:21:43Z</time>
      </trkpt>
      <trkpt lat="44.71951" lon="6.9371">
        <ele>2521</ele>
        <time>2021-12-16T08:21:48Z</time>
      </trkpt>
      <trkpt lat="44.7195" lon="6.93712">
        <ele>2521</ele>
        <time>2021-12-16T08:21:51Z</time>
      </trkpt>
      <trkpt lat="44.71947" lon="6.93724">
        <ele>2524</ele>
        <time>2021-12-16T08:22:04Z</time>
      </trkpt>
      <trkpt lat="44.71947" lon="6.93728">
        <ele>2525</ele>
        <time>2021-12-16T08:22:11Z</time>
      </trkpt>
      <trkpt lat="44.71947" lon="6.93729">
        <ele>2526</ele>
        <time>2021-12-16T08:22:26Z</time>
      </trkpt>
      <trkpt lat="44.71948" lon="6.9373">
        <ele>2525</ele>
        <time>2021-12-16T08:22:29Z</time>
      </trkpt>
      <trkpt lat="44.71953" lon="6.93734">
        <ele>2523</ele>
        <time>2021-12-16T08:22:38Z</time>
      </trkpt>
      <trkpt lat="44.71963" lon="6.93734">
        <ele>2522</ele>
        <time>2021-12-16T08:22:54Z</time>
      </trkpt>
      <trkpt lat="44.71964" lon="6.93735">
        <ele>2522</ele>
        <time>2021-12-16T08:22:56Z</time>
      </trkpt>
      <trkpt lat="44.71966" lon="6.93736">
        <ele>2521</ele>
        <time>2021-12-16T08:22:59Z</time>
      </trkpt>
      <trkpt lat="44.71967" lon="6.93737">
        <ele>2521</ele>
        <time>2021-12-16T08:23:01Z</time>
      </trkpt>
      <trkpt lat="44.71969" lon="6.93738">
        <ele>2521</ele>
        <time>2021-12-16T08:23:04Z</time>
      </trkpt>
      <trkpt lat="44.7197" lon="6.93737">
        <ele>2522</ele>
        <time>2021-12-16T08:23:07Z</time>
      </trkpt>
      <trkpt lat="44.71973" lon="6.93736">
        <ele>2522</ele>
        <time>2021-12-16T08:23:11Z</time>
      </trkpt>
      <trkpt lat="44.71976" lon="6.93734">
        <ele>2522</ele>
        <time>2021-12-16T08:23:16Z</time>
      </trkpt>
      <trkpt lat="44.71978" lon="6.9373">
        <ele>2524</ele>
        <time>2021-12-16T08:23:22Z</time>
      </trkpt>
      <trkpt lat="44.7198" lon="6.93728">
        <ele>2526</ele>
        <time>2021-12-16T08:23:28Z</time>
      </trkpt>
      <trkpt lat="44.71983" lon="6.93726">
        <ele>2528</ele>
        <time>2021-12-16T08:23:32Z</time>
      </trkpt>
      <trkpt lat="44.71983" lon="6.93724">
        <ele>2528</ele>
        <time>2021-12-16T08:23:34Z</time>
      </trkpt>
      <trkpt lat="44.71987" lon="6.93722">
        <ele>2528</ele>
        <time>2021-12-16T08:23:41Z</time>
      </trkpt>
      <trkpt lat="44.7199" lon="6.93723">
        <ele>2528</ele>
        <time>2021-12-16T08:23:46Z</time>
      </trkpt>
      <trkpt lat="44.71991" lon="6.93724">
        <ele>2528</ele>
        <time>2021-12-16T08:23:49Z</time>
      </trkpt>
      <trkpt lat="44.71992" lon="6.93726">
        <ele>2529</ele>
        <time>2021-12-16T08:23:52Z</time>
      </trkpt>
      <trkpt lat="44.71992" lon="6.93728">
        <ele>2530</ele>
        <time>2021-12-16T08:23:54Z</time>
      </trkpt>
      <trkpt lat="44.71992" lon="6.9373">
        <ele>2530</ele>
        <time>2021-12-16T08:23:56Z</time>
      </trkpt>
      <trkpt lat="44.71991" lon="6.93734">
        <ele>2534</ele>
        <time>2021-12-16T08:24:01Z</time>
      </trkpt>
      <trkpt lat="44.71989" lon="6.93736">
        <ele>2535</ele>
        <time>2021-12-16T08:24:04Z</time>
      </trkpt>
      <trkpt lat="44.71987" lon="6.93741">
        <ele>2539</ele>
        <time>2021-12-16T08:24:11Z</time>
      </trkpt>
      <trkpt lat="44.71985" lon="6.93744">
        <ele>2542</ele>
        <time>2021-12-16T08:24:16Z</time>
      </trkpt>
      <trkpt lat="44.71984" lon="6.93746">
        <ele>2542</ele>
        <time>2021-12-16T08:24:18Z</time>
      </trkpt>
      <trkpt lat="44.71983" lon="6.93747">
        <ele>2543</ele>
        <time>2021-12-16T08:24:20Z</time>
      </trkpt>
      <trkpt lat="44.71982" lon="6.93749">
        <ele>2544</ele>
        <time>2021-12-16T08:24:22Z</time>
      </trkpt>
      <trkpt lat="44.7198" lon="6.93752">
        <ele>2545</ele>
        <time>2021-12-16T08:24:26Z</time>
      </trkpt>
      <trkpt lat="44.71979" lon="6.93755">
        <ele>2546</ele>
        <time>2021-12-16T08:24:29Z</time>
      </trkpt>
      <trkpt lat="44.71977" lon="6.93757">
        <ele>2548</ele>
        <time>2021-12-16T08:24:34Z</time>
      </trkpt>
      <trkpt lat="44.71974" lon="6.93759">
        <ele>2549</ele>
        <time>2021-12-16T08:24:38Z</time>
      </trkpt>
      <trkpt lat="44.7197" lon="6.93763">
        <ele>2550</ele>
        <time>2021-12-16T08:24:45Z</time>
      </trkpt>
      <trkpt lat="44.71969" lon="6.93764">
        <ele>2550</ele>
        <time>2021-12-16T08:24:47Z</time>
      </trkpt>
      <trkpt lat="44.71968" lon="6.93767">
        <ele>2550</ele>
        <time>2021-12-16T08:24:49Z</time>
      </trkpt>
      <trkpt lat="44.71966" lon="6.9377">
        <ele>2550</ele>
        <time>2021-12-16T08:24:53Z</time>
      </trkpt>
      <trkpt lat="44.71965" lon="6.93772">
        <ele>2550</ele>
        <time>2021-12-16T08:24:55Z</time>
      </trkpt>
      <trkpt lat="44.71963" lon="6.93781">
        <ele>2550</ele>
        <time>2021-12-16T08:25:05Z</time>
      </trkpt>
      <trkpt lat="44.71962" lon="6.93783">
        <ele>2550</ele>
        <time>2021-12-16T08:25:07Z</time>
      </trkpt>
      <trkpt lat="44.71961" lon="6.93784">
        <ele>2550</ele>
        <time>2021-12-16T08:25:09Z</time>
      </trkpt>
      <trkpt lat="44.71959" lon="6.93785">
        <ele>2550</ele>
        <time>2021-12-16T08:25:12Z</time>
      </trkpt>
      <trkpt lat="44.71958" lon="6.93788">
        <ele>2550</ele>
        <time>2021-12-16T08:25:15Z</time>
      </trkpt>
      <trkpt lat="44.71957" lon="6.93789">
        <ele>2550</ele>
        <time>2021-12-16T08:25:17Z</time>
      </trkpt>
      <trkpt lat="44.71956" lon="6.93792">
        <ele>2550</ele>
        <time>2021-12-16T08:25:19Z</time>
      </trkpt>
      <trkpt lat="44.71956" lon="6.93794">
        <ele>2549</ele>
        <time>2021-12-16T08:25:21Z</time>
      </trkpt>
      <trkpt lat="44.71954" lon="6.93797">
        <ele>2549</ele>
        <time>2021-12-16T08:25:26Z</time>
      </trkpt>
      <trkpt lat="44.71953" lon="6.938">
        <ele>2549</ele>
        <time>2021-12-16T08:25:31Z</time>
      </trkpt>
      <trkpt lat="44.71952" lon="6.93802">
        <ele>2550</ele>
        <time>2021-12-16T08:25:34Z</time>
      </trkpt>
      <trkpt lat="44.71952" lon="6.93804">
        <ele>2550</ele>
        <time>2021-12-16T08:25:37Z</time>
      </trkpt>
      <trkpt lat="44.71953" lon="6.93806">
        <ele>2550</ele>
        <time>2021-12-16T08:25:41Z</time>
      </trkpt>
      <trkpt lat="44.71954" lon="6.93807">
        <ele>2550</ele>
        <time>2021-12-16T08:25:44Z</time>
      </trkpt>
      <trkpt lat="44.71961" lon="6.93805">
        <ele>2551</ele>
        <time>2021-12-16T08:25:55Z</time>
      </trkpt>
      <trkpt lat="44.71965" lon="6.93803">
        <ele>2551</ele>
        <time>2021-12-16T08:26:03Z</time>
      </trkpt>
      <trkpt lat="44.71959" lon="6.93825">
        <ele>2559</ele>
        <time>2021-12-16T08:26:33Z</time>
      </trkpt>
      <trkpt lat="44.71955" lon="6.93834">
        <ele>2562</ele>
        <time>2021-12-16T08:26:47Z</time>
      </trkpt>
      <trkpt lat="44.71954" lon="6.93836">
        <ele>2563</ele>
        <time>2021-12-16T08:26:50Z</time>
      </trkpt>
      <trkpt lat="44.71953" lon="6.93838">
        <ele>2564</ele>
        <time>2021-12-16T08:26:53Z</time>
      </trkpt>
      <trkpt lat="44.71949" lon="6.9384">
        <ele>2564</ele>
        <time>2021-12-16T08:27:00Z</time>
      </trkpt>
      <trkpt lat="44.71943" lon="6.93844">
        <ele>2565</ele>
        <time>2021-12-16T08:27:12Z</time>
      </trkpt>
      <trkpt lat="44.7194" lon="6.93843">
        <ele>2566</ele>
        <time>2021-12-16T08:27:18Z</time>
      </trkpt>
      <trkpt lat="44.71938" lon="6.93842">
        <ele>2567</ele>
        <time>2021-12-16T08:27:21Z</time>
      </trkpt>
      <trkpt lat="44.71937" lon="6.93841">
        <ele>2567</ele>
        <time>2021-12-16T08:27:23Z</time>
      </trkpt>
      <trkpt lat="44.71936" lon="6.9384">
        <ele>2567</ele>
        <time>2021-12-16T08:27:26Z</time>
      </trkpt>
      <trkpt lat="44.71935" lon="6.93839">
        <ele>2567</ele>
        <time>2021-12-16T08:27:29Z</time>
      </trkpt>
      <trkpt lat="44.71932" lon="6.93837">
        <ele>2567</ele>
        <time>2021-12-16T08:27:34Z</time>
      </trkpt>
      <trkpt lat="44.71931" lon="6.93836">
        <ele>2567</ele>
        <time>2021-12-16T08:27:37Z</time>
      </trkpt>
      <trkpt lat="44.71926" lon="6.93837">
        <ele>2568</ele>
        <time>2021-12-16T08:27:44Z</time>
      </trkpt>
      <trkpt lat="44.71924" lon="6.93837">
        <ele>2568</ele>
        <time>2021-12-16T08:27:46Z</time>
      </trkpt>
      <trkpt lat="44.71923" lon="6.93836">
        <ele>2568</ele>
        <time>2021-12-16T08:27:49Z</time>
      </trkpt>
      <trkpt lat="44.71922" lon="6.93836">
        <ele>2568</ele>
        <time>2021-12-16T08:27:51Z</time>
      </trkpt>
      <trkpt lat="44.7192" lon="6.93836">
        <ele>2568</ele>
        <time>2021-12-16T08:27:54Z</time>
      </trkpt>
      <trkpt lat="44.71919" lon="6.93836">
        <ele>2568</ele>
        <time>2021-12-16T08:27:56Z</time>
      </trkpt>
      <trkpt lat="44.71917" lon="6.93835">
        <ele>2568</ele>
        <time>2021-12-16T08:27:58Z</time>
      </trkpt>
      <trkpt lat="44.71916" lon="6.93835">
        <ele>2568</ele>
        <time>2021-12-16T08:28:01Z</time>
      </trkpt>
      <trkpt lat="44.71913" lon="6.93833">
        <ele>2569</ele>
        <time>2021-12-16T08:28:07Z</time>
      </trkpt>
      <trkpt lat="44.71911" lon="6.93833">
        <ele>2569</ele>
        <time>2021-12-16T08:28:10Z</time>
      </trkpt>
      <trkpt lat="44.71909" lon="6.93833">
        <ele>2570</ele>
        <time>2021-12-16T08:28:13Z</time>
      </trkpt>
      <trkpt lat="44.71907" lon="6.93835">
        <ele>2570</ele>
        <time>2021-12-16T08:28:17Z</time>
      </trkpt>
      <trkpt lat="44.71905" lon="6.93839">
        <ele>2571</ele>
        <time>2021-12-16T08:28:23Z</time>
      </trkpt>
      <trkpt lat="44.71903" lon="6.93847">
        <ele>2572</ele>
        <time>2021-12-16T08:28:31Z</time>
      </trkpt>
      <trkpt lat="44.71903" lon="6.93851">
        <ele>2573</ele>
        <time>2021-12-16T08:28:35Z</time>
      </trkpt>
      <trkpt lat="44.71903" lon="6.93853">
        <ele>2573</ele>
        <time>2021-12-16T08:28:37Z</time>
      </trkpt>
      <trkpt lat="44.71898" lon="6.9387">
        <ele>2576</ele>
        <time>2021-12-16T08:28:56Z</time>
      </trkpt>
      <trkpt lat="44.71897" lon="6.93872">
        <ele>2576</ele>
        <time>2021-12-16T08:28:58Z</time>
      </trkpt>
      <trkpt lat="44.71897" lon="6.93876">
        <ele>2577</ele>
        <time>2021-12-16T08:29:02Z</time>
      </trkpt>
      <trkpt lat="44.71897" lon="6.93878">
        <ele>2577</ele>
        <time>2021-12-16T08:29:04Z</time>
      </trkpt>
      <trkpt lat="44.71897" lon="6.93883">
        <ele>2577</ele>
        <time>2021-12-16T08:29:08Z</time>
      </trkpt>
      <trkpt lat="44.719" lon="6.93901">
        <ele>2579</ele>
        <time>2021-12-16T08:29:32Z</time>
      </trkpt>
      <trkpt lat="44.71902" lon="6.93905">
        <ele>2580</ele>
        <time>2021-12-16T08:29:37Z</time>
      </trkpt>
      <trkpt lat="44.71914" lon="6.93923">
        <ele>2585</ele>
        <time>2021-12-16T08:30:08Z</time>
      </trkpt>
      <trkpt lat="44.71917" lon="6.9393">
        <ele>2586</ele>
        <time>2021-12-16T08:30:18Z</time>
      </trkpt>
      <trkpt lat="44.71918" lon="6.93932">
        <ele>2587</ele>
        <time>2021-12-16T08:30:21Z</time>
      </trkpt>
      <trkpt lat="44.71918" lon="6.93934">
        <ele>2587</ele>
        <time>2021-12-16T08:30:23Z</time>
      </trkpt>
      <trkpt lat="44.71925" lon="6.93944">
        <ele>2589</ele>
        <time>2021-12-16T08:30:38Z</time>
      </trkpt>
      <trkpt lat="44.71925" lon="6.93946">
        <ele>2589</ele>
        <time>2021-12-16T08:30:40Z</time>
      </trkpt>
      <trkpt lat="44.71935" lon="6.93961">
        <ele>2591</ele>
        <time>2021-12-16T08:31:05Z</time>
      </trkpt>
      <trkpt lat="44.71936" lon="6.93962">
        <ele>2591</ele>
        <time>2021-12-16T08:31:08Z</time>
      </trkpt>
      <trkpt lat="44.71938" lon="6.93965">
        <ele>2592</ele>
        <time>2021-12-16T08:31:12Z</time>
      </trkpt>
      <trkpt lat="44.71938" lon="6.93967">
        <ele>2592</ele>
        <time>2021-12-16T08:31:16Z</time>
      </trkpt>
      <trkpt lat="44.71938" lon="6.93969">
        <ele>2592</ele>
        <time>2021-12-16T08:31:19Z</time>
      </trkpt>
      <trkpt lat="44.71936" lon="6.93972">
        <ele>2593</ele>
        <time>2021-12-16T08:31:25Z</time>
      </trkpt>
      <trkpt lat="44.71935" lon="6.93973">
        <ele>2593</ele>
        <time>2021-12-16T08:31:28Z</time>
      </trkpt>
      <trkpt lat="44.71933" lon="6.93973">
        <ele>2593</ele>
        <time>2021-12-16T08:31:31Z</time>
      </trkpt>
      <trkpt lat="44.71932" lon="6.93974">
        <ele>2593</ele>
        <time>2021-12-16T08:31:33Z</time>
      </trkpt>
      <trkpt lat="44.7193" lon="6.93975">
        <ele>2594</ele>
        <time>2021-12-16T08:31:37Z</time>
      </trkpt>
      <trkpt lat="44.71928" lon="6.93978">
        <ele>2594</ele>
        <time>2021-12-16T08:31:53Z</time>
      </trkpt>
      <trkpt lat="44.71925" lon="6.93979">
        <ele>2596</ele>
        <time>2021-12-16T08:31:57Z</time>
      </trkpt>
      <trkpt lat="44.71924" lon="6.9398">
        <ele>2596</ele>
        <time>2021-12-16T08:31:59Z</time>
      </trkpt>
      <trkpt lat="44.71922" lon="6.9398">
        <ele>2597</ele>
        <time>2021-12-16T08:32:06Z</time>
      </trkpt>
      <trkpt lat="44.71915" lon="6.93984">
        <ele>2599</ele>
        <time>2021-12-16T08:32:19Z</time>
      </trkpt>
      <trkpt lat="44.7191" lon="6.93985">
        <ele>2600</ele>
        <time>2021-12-16T08:32:27Z</time>
      </trkpt>
      <trkpt lat="44.71908" lon="6.93985">
        <ele>2601</ele>
        <time>2021-12-16T08:32:29Z</time>
      </trkpt>
      <trkpt lat="44.71904" lon="6.93983">
        <ele>2602</ele>
        <time>2021-12-16T08:32:36Z</time>
      </trkpt>
      <trkpt lat="44.71903" lon="6.93983">
        <ele>2603</ele>
        <time>2021-12-16T08:32:39Z</time>
      </trkpt>
      <trkpt lat="44.71901" lon="6.93983">
        <ele>2604</ele>
        <time>2021-12-16T08:32:42Z</time>
      </trkpt>
      <trkpt lat="44.71899" lon="6.93983">
        <ele>2604</ele>
        <time>2021-12-16T08:32:45Z</time>
      </trkpt>
      <trkpt lat="44.71896" lon="6.93982">
        <ele>2604</ele>
        <time>2021-12-16T08:32:50Z</time>
      </trkpt>
      <trkpt lat="44.71895" lon="6.93982">
        <ele>2604</ele>
        <time>2021-12-16T08:32:53Z</time>
      </trkpt>
      <trkpt lat="44.71893" lon="6.93983">
        <ele>2604</ele>
        <time>2021-12-16T08:32:55Z</time>
      </trkpt>
      <trkpt lat="44.71891" lon="6.93985">
        <ele>2605</ele>
        <time>2021-12-16T08:33:00Z</time>
      </trkpt>
      <trkpt lat="44.71889" lon="6.93986">
        <ele>2605</ele>
        <time>2021-12-16T08:33:02Z</time>
      </trkpt>
      <trkpt lat="44.71888" lon="6.93987">
        <ele>2606</ele>
        <time>2021-12-16T08:33:04Z</time>
      </trkpt>
      <trkpt lat="44.71885" lon="6.93989">
        <ele>2606</ele>
        <time>2021-12-16T08:33:10Z</time>
      </trkpt>
      <trkpt lat="44.71884" lon="6.9399">
        <ele>2606</ele>
        <time>2021-12-16T08:33:14Z</time>
      </trkpt>
      <trkpt lat="44.71883" lon="6.93991">
        <ele>2606</ele>
        <time>2021-12-16T08:33:17Z</time>
      </trkpt>
      <trkpt lat="44.71882" lon="6.93992">
        <ele>2606</ele>
        <time>2021-12-16T08:33:19Z</time>
      </trkpt>
      <trkpt lat="44.71878" lon="6.93995">
        <ele>2607</ele>
        <time>2021-12-16T08:33:25Z</time>
      </trkpt>
      <trkpt lat="44.71877" lon="6.93996">
        <ele>2608</ele>
        <time>2021-12-16T08:33:28Z</time>
      </trkpt>
      <trkpt lat="44.71871" lon="6.94001">
        <ele>2608</ele>
        <time>2021-12-16T08:33:41Z</time>
      </trkpt>
      <trkpt lat="44.71869" lon="6.94001">
        <ele>2608</ele>
        <time>2021-12-16T08:33:44Z</time>
      </trkpt>
      <trkpt lat="44.71868" lon="6.94003">
        <ele>2608</ele>
        <time>2021-12-16T08:33:47Z</time>
      </trkpt>
      <trkpt lat="44.71866" lon="6.94003">
        <ele>2608</ele>
        <time>2021-12-16T08:33:50Z</time>
      </trkpt>
      <trkpt lat="44.71863" lon="6.94003">
        <ele>2609</ele>
        <time>2021-12-16T08:33:55Z</time>
      </trkpt>
      <trkpt lat="44.71862" lon="6.94003">
        <ele>2609</ele>
        <time>2021-12-16T08:33:57Z</time>
      </trkpt>
      <trkpt lat="44.71859" lon="6.94002">
        <ele>2609</ele>
        <time>2021-12-16T08:34:03Z</time>
      </trkpt>
      <trkpt lat="44.71858" lon="6.94002">
        <ele>2609</ele>
        <time>2021-12-16T08:34:05Z</time>
      </trkpt>
      <trkpt lat="44.71855" lon="6.94002">
        <ele>2610</ele>
        <time>2021-12-16T08:34:10Z</time>
      </trkpt>
      <trkpt lat="44.71852" lon="6.94002">
        <ele>2611</ele>
        <time>2021-12-16T08:34:16Z</time>
      </trkpt>
      <trkpt lat="44.71845" lon="6.94006">
        <ele>2613</ele>
        <time>2021-12-16T08:34:27Z</time>
      </trkpt>
      <trkpt lat="44.71844" lon="6.94007">
        <ele>2613</ele>
        <time>2021-12-16T08:34:30Z</time>
      </trkpt>
      <trkpt lat="44.71842" lon="6.94007">
        <ele>2614</ele>
        <time>2021-12-16T08:34:32Z</time>
      </trkpt>
      <trkpt lat="44.71841" lon="6.94008">
        <ele>2614</ele>
        <time>2021-12-16T08:34:34Z</time>
      </trkpt>
      <trkpt lat="44.71839" lon="6.94009">
        <ele>2615</ele>
        <time>2021-12-16T08:34:37Z</time>
      </trkpt>
      <trkpt lat="44.71834" lon="6.94013">
        <ele>2616</ele>
        <time>2021-12-16T08:34:46Z</time>
      </trkpt>
      <trkpt lat="44.71832" lon="6.94013">
        <ele>2617</ele>
        <time>2021-12-16T08:34:49Z</time>
      </trkpt>
      <trkpt lat="44.71831" lon="6.94014">
        <ele>2617</ele>
        <time>2021-12-16T08:34:52Z</time>
      </trkpt>
      <trkpt lat="44.71831" lon="6.94016">
        <ele>2618</ele>
        <time>2021-12-16T08:34:55Z</time>
      </trkpt>
      <trkpt lat="44.71831" lon="6.94018">
        <ele>2618</ele>
        <time>2021-12-16T08:34:59Z</time>
      </trkpt>
      <trkpt lat="44.71837" lon="6.94023">
        <ele>2620</ele>
        <time>2021-12-16T08:35:18Z</time>
      </trkpt>
      <trkpt lat="44.71839" lon="6.94024">
        <ele>2621</ele>
        <time>2021-12-16T08:35:20Z</time>
      </trkpt>
      <trkpt lat="44.7184" lon="6.94026">
        <ele>2621</ele>
        <time>2021-12-16T08:35:23Z</time>
      </trkpt>
      <trkpt lat="44.71841" lon="6.94027">
        <ele>2621</ele>
        <time>2021-12-16T08:35:25Z</time>
      </trkpt>
      <trkpt lat="44.71845" lon="6.94031">
        <ele>2623</ele>
        <time>2021-12-16T08:35:32Z</time>
      </trkpt>
      <trkpt lat="44.71846" lon="6.94032">
        <ele>2623</ele>
        <time>2021-12-16T08:35:34Z</time>
      </trkpt>
      <trkpt lat="44.71847" lon="6.94033">
        <ele>2623</ele>
        <time>2021-12-16T08:35:36Z</time>
      </trkpt>
      <trkpt lat="44.71852" lon="6.94036">
        <ele>2624</ele>
        <time>2021-12-16T08:35:45Z</time>
      </trkpt>
      <trkpt lat="44.71855" lon="6.94039">
        <ele>2625</ele>
        <time>2021-12-16T08:35:52Z</time>
      </trkpt>
      <trkpt lat="44.71856" lon="6.94041">
        <ele>2626</ele>
        <time>2021-12-16T08:35:54Z</time>
      </trkpt>
      <trkpt lat="44.71858" lon="6.94042">
        <ele>2626</ele>
        <time>2021-12-16T08:35:57Z</time>
      </trkpt>
      <trkpt lat="44.71859" lon="6.94044">
        <ele>2627</ele>
        <time>2021-12-16T08:35:59Z</time>
      </trkpt>
      <trkpt lat="44.71862" lon="6.94046">
        <ele>2627</ele>
        <time>2021-12-16T08:36:04Z</time>
      </trkpt>
      <trkpt lat="44.71863" lon="6.94047">
        <ele>2627</ele>
        <time>2021-12-16T08:36:06Z</time>
      </trkpt>
      <trkpt lat="44.71866" lon="6.94051">
        <ele>2628</ele>
        <time>2021-12-16T08:36:13Z</time>
      </trkpt>
      <trkpt lat="44.71868" lon="6.94051">
        <ele>2628</ele>
        <time>2021-12-16T08:36:15Z</time>
      </trkpt>
      <trkpt lat="44.71869" lon="6.94052">
        <ele>2628</ele>
        <time>2021-12-16T08:36:17Z</time>
      </trkpt>
      <trkpt lat="44.71872" lon="6.94053">
        <ele>2629</ele>
        <time>2021-12-16T08:36:21Z</time>
      </trkpt>
      <trkpt lat="44.71873" lon="6.94054">
        <ele>2630</ele>
        <time>2021-12-16T08:36:23Z</time>
      </trkpt>
      <trkpt lat="44.71875" lon="6.94054">
        <ele>2630</ele>
        <time>2021-12-16T08:36:28Z</time>
      </trkpt>
      <trkpt lat="44.71878" lon="6.94055">
        <ele>2630</ele>
        <time>2021-12-16T08:36:32Z</time>
      </trkpt>
      <trkpt lat="44.71891" lon="6.94068">
        <ele>2634</ele>
        <time>2021-12-16T08:37:00Z</time>
      </trkpt>
      <trkpt lat="44.71892" lon="6.94069">
        <ele>2635</ele>
        <time>2021-12-16T08:37:03Z</time>
      </trkpt>
      <trkpt lat="44.71899" lon="6.94073">
        <ele>2636</ele>
        <time>2021-12-16T08:37:13Z</time>
      </trkpt>
      <trkpt lat="44.71902" lon="6.94075">
        <ele>2637</ele>
        <time>2021-12-16T08:37:17Z</time>
      </trkpt>
      <trkpt lat="44.71904" lon="6.94075">
        <ele>2637</ele>
        <time>2021-12-16T08:37:20Z</time>
      </trkpt>
      <trkpt lat="44.71906" lon="6.94078">
        <ele>2638</ele>
        <time>2021-12-16T08:37:25Z</time>
      </trkpt>
      <trkpt lat="44.71908" lon="6.94079">
        <ele>2639</ele>
        <time>2021-12-16T08:37:28Z</time>
      </trkpt>
      <trkpt lat="44.71909" lon="6.94079">
        <ele>2639</ele>
        <time>2021-12-16T08:37:31Z</time>
      </trkpt>
      <trkpt lat="44.7191" lon="6.9408">
        <ele>2639</ele>
        <time>2021-12-16T08:37:34Z</time>
      </trkpt>
      <trkpt lat="44.71912" lon="6.9408">
        <ele>2639</ele>
        <time>2021-12-16T08:37:38Z</time>
      </trkpt>
      <trkpt lat="44.71913" lon="6.94081">
        <ele>2640</ele>
        <time>2021-12-16T08:37:46Z</time>
      </trkpt>
      <trkpt lat="44.71913" lon="6.94083">
        <ele>2640</ele>
        <time>2021-12-16T08:37:57Z</time>
      </trkpt>
      <trkpt lat="44.71915" lon="6.94087">
        <ele>2642</ele>
        <time>2021-12-16T08:38:01Z</time>
      </trkpt>
      <trkpt lat="44.71918" lon="6.9409">
        <ele>2643</ele>
        <time>2021-12-16T08:38:07Z</time>
      </trkpt>
      <trkpt lat="44.71919" lon="6.9409">
        <ele>2644</ele>
        <time>2021-12-16T08:38:10Z</time>
      </trkpt>
      <trkpt lat="44.71925" lon="6.94095">
        <ele>2645</ele>
        <time>2021-12-16T08:38:19Z</time>
      </trkpt>
      <trkpt lat="44.71928" lon="6.94096">
        <ele>2645</ele>
        <time>2021-12-16T08:38:24Z</time>
      </trkpt>
      <trkpt lat="44.71931" lon="6.94098">
        <ele>2646</ele>
        <time>2021-12-16T08:38:32Z</time>
      </trkpt>
      <trkpt lat="44.71933" lon="6.94098">
        <ele>2646</ele>
        <time>2021-12-16T08:38:35Z</time>
      </trkpt>
      <trkpt lat="44.71935" lon="6.94099">
        <ele>2646</ele>
        <time>2021-12-16T08:38:38Z</time>
      </trkpt>
      <trkpt lat="44.71942" lon="6.94101">
        <ele>2643</ele>
        <time>2021-12-16T08:38:47Z</time>
      </trkpt>
      <trkpt lat="44.71943" lon="6.94102">
        <ele>2643</ele>
        <time>2021-12-16T08:38:49Z</time>
      </trkpt>
      <trkpt lat="44.71954" lon="6.94104">
        <ele>2640</ele>
        <time>2021-12-16T08:39:08Z</time>
      </trkpt>
      <trkpt lat="44.71973" lon="6.94099">
        <ele>2640</ele>
        <time>2021-12-16T08:39:40Z</time>
      </trkpt>
      <trkpt lat="44.71977" lon="6.94097">
        <ele>2642</ele>
        <time>2021-12-16T08:39:48Z</time>
      </trkpt>
      <trkpt lat="44.71979" lon="6.94098">
        <ele>2643</ele>
        <time>2021-12-16T08:39:51Z</time>
      </trkpt>
      <trkpt lat="44.71979" lon="6.941">
        <ele>2644</ele>
        <time>2021-12-16T08:39:53Z</time>
      </trkpt>
      <trkpt lat="44.7198" lon="6.94102">
        <ele>2645</ele>
        <time>2021-12-16T08:39:56Z</time>
      </trkpt>
      <trkpt lat="44.7198" lon="6.94103">
        <ele>2645</ele>
        <time>2021-12-16T08:39:59Z</time>
      </trkpt>
      <trkpt lat="44.7198" lon="6.94106">
        <ele>2646</ele>
        <time>2021-12-16T08:40:02Z</time>
      </trkpt>
      <trkpt lat="44.7198" lon="6.94107">
        <ele>2647</ele>
        <time>2021-12-16T08:40:05Z</time>
      </trkpt>
      <trkpt lat="44.71979" lon="6.94112">
        <ele>2648</ele>
        <time>2021-12-16T08:40:11Z</time>
      </trkpt>
      <trkpt lat="44.7198" lon="6.94115">
        <ele>2649</ele>
        <time>2021-12-16T08:40:14Z</time>
      </trkpt>
      <trkpt lat="44.7198" lon="6.94117">
        <ele>2649</ele>
        <time>2021-12-16T08:40:17Z</time>
      </trkpt>
      <trkpt lat="44.71981" lon="6.94119">
        <ele>2650</ele>
        <time>2021-12-16T08:40:20Z</time>
      </trkpt>
      <trkpt lat="44.71986" lon="6.94128">
        <ele>2651</ele>
        <time>2021-12-16T08:40:33Z</time>
      </trkpt>
      <trkpt lat="44.71987" lon="6.94129">
        <ele>2652</ele>
        <time>2021-12-16T08:40:35Z</time>
      </trkpt>
      <trkpt lat="44.71991" lon="6.94132">
        <ele>2653</ele>
        <time>2021-12-16T08:40:43Z</time>
      </trkpt>
      <trkpt lat="44.71992" lon="6.94132">
        <ele>2654</ele>
        <time>2021-12-16T08:40:45Z</time>
      </trkpt>
      <trkpt lat="44.71995" lon="6.94132">
        <ele>2655</ele>
        <time>2021-12-16T08:40:52Z</time>
      </trkpt>
      <trkpt lat="44.71998" lon="6.94131">
        <ele>2656</ele>
        <time>2021-12-16T08:40:58Z</time>
      </trkpt>
      <trkpt lat="44.72" lon="6.9413">
        <ele>2656</ele>
        <time>2021-12-16T08:41:00Z</time>
      </trkpt>
      <trkpt lat="44.72002" lon="6.94131">
        <ele>2657</ele>
        <time>2021-12-16T08:41:02Z</time>
      </trkpt>
      <trkpt lat="44.72003" lon="6.94131">
        <ele>2657</ele>
        <time>2021-12-16T08:41:04Z</time>
      </trkpt>
      <trkpt lat="44.72012" lon="6.94132">
        <ele>2659</ele>
        <time>2021-12-16T08:41:19Z</time>
      </trkpt>
      <trkpt lat="44.72014" lon="6.94132">
        <ele>2659</ele>
        <time>2021-12-16T08:41:22Z</time>
      </trkpt>
      <trkpt lat="44.72016" lon="6.94132">
        <ele>2661</ele>
        <time>2021-12-16T08:41:26Z</time>
      </trkpt>
      <trkpt lat="44.72018" lon="6.94132">
        <ele>2661</ele>
        <time>2021-12-16T08:41:29Z</time>
      </trkpt>
      <trkpt lat="44.72019" lon="6.94132">
        <ele>2662</ele>
        <time>2021-12-16T08:41:31Z</time>
      </trkpt>
      <trkpt lat="44.72021" lon="6.94133">
        <ele>2663</ele>
        <time>2021-12-16T08:41:34Z</time>
      </trkpt>
      <trkpt lat="44.72025" lon="6.94136">
        <ele>2665</ele>
        <time>2021-12-16T08:41:45Z</time>
      </trkpt>
      <trkpt lat="44.72027" lon="6.94137">
        <ele>2665</ele>
        <time>2021-12-16T08:41:48Z</time>
      </trkpt>
      <trkpt lat="44.72029" lon="6.94137">
        <ele>2665</ele>
        <time>2021-12-16T08:41:51Z</time>
      </trkpt>
      <trkpt lat="44.72031" lon="6.9414">
        <ele>2664</ele>
        <time>2021-12-16T08:41:55Z</time>
      </trkpt>
      <trkpt lat="44.72032" lon="6.94143">
        <ele>2664</ele>
        <time>2021-12-16T08:41:59Z</time>
      </trkpt>
      <trkpt lat="44.72032" lon="6.94145">
        <ele>2664</ele>
        <time>2021-12-16T08:42:01Z</time>
      </trkpt>
      <trkpt lat="44.72031" lon="6.94146">
        <ele>2664</ele>
        <time>2021-12-16T08:42:04Z</time>
      </trkpt>
      <trkpt lat="44.7203" lon="6.94148">
        <ele>2665</ele>
        <time>2021-12-16T08:42:07Z</time>
      </trkpt>
      <trkpt lat="44.72029" lon="6.94148">
        <ele>2665</ele>
        <time>2021-12-16T08:42:11Z</time>
      </trkpt>
      <trkpt lat="44.72028" lon="6.94148">
        <ele>2665</ele>
        <time>2021-12-16T08:42:14Z</time>
      </trkpt>
      <trkpt lat="44.72025" lon="6.9415">
        <ele>2666</ele>
        <time>2021-12-16T08:42:19Z</time>
      </trkpt>
      <trkpt lat="44.72024" lon="6.94151">
        <ele>2667</ele>
        <time>2021-12-16T08:42:22Z</time>
      </trkpt>
      <trkpt lat="44.72023" lon="6.94153">
        <ele>2667</ele>
        <time>2021-12-16T08:42:25Z</time>
      </trkpt>
      <trkpt lat="44.72021" lon="6.94155">
        <ele>2668</ele>
        <time>2021-12-16T08:42:28Z</time>
      </trkpt>
      <trkpt lat="44.72019" lon="6.94157">
        <ele>2669</ele>
        <time>2021-12-16T08:42:32Z</time>
      </trkpt>
      <trkpt lat="44.72014" lon="6.94164">
        <ele>2671</ele>
        <time>2021-12-16T08:42:44Z</time>
      </trkpt>
      <trkpt lat="44.72013" lon="6.94166">
        <ele>2671</ele>
        <time>2021-12-16T08:42:47Z</time>
      </trkpt>
      <trkpt lat="44.72012" lon="6.94168">
        <ele>2671</ele>
        <time>2021-12-16T08:42:50Z</time>
      </trkpt>
      <trkpt lat="44.7201" lon="6.94171">
        <ele>2673</ele>
        <time>2021-12-16T08:42:59Z</time>
      </trkpt>
      <trkpt lat="44.72011" lon="6.94172">
        <ele>2673</ele>
        <time>2021-12-16T08:43:11Z</time>
      </trkpt>
      <trkpt lat="44.72014" lon="6.94173">
        <ele>2674</ele>
        <time>2021-12-16T08:43:17Z</time>
      </trkpt>
      <trkpt lat="44.72019" lon="6.94172">
        <ele>2677</ele>
        <time>2021-12-16T08:43:25Z</time>
      </trkpt>
      <trkpt lat="44.72023" lon="6.94174">
        <ele>2679</ele>
        <time>2021-12-16T08:43:33Z</time>
      </trkpt>
      <trkpt lat="44.72025" lon="6.94178">
        <ele>2680</ele>
        <time>2021-12-16T08:43:37Z</time>
      </trkpt>
      <trkpt lat="44.72026" lon="6.94179">
        <ele>2680</ele>
        <time>2021-12-16T08:43:41Z</time>
      </trkpt>
      <trkpt lat="44.72028" lon="6.94179">
        <ele>2680</ele>
        <time>2021-12-16T08:43:44Z</time>
      </trkpt>
      <trkpt lat="44.72029" lon="6.9418">
        <ele>2680</ele>
        <time>2021-12-16T08:43:47Z</time>
      </trkpt>
      <trkpt lat="44.72032" lon="6.94183">
        <ele>2680</ele>
        <time>2021-12-16T08:43:53Z</time>
      </trkpt>
      <trkpt lat="44.72034" lon="6.94186">
        <ele>2679</ele>
        <time>2021-12-16T08:43:58Z</time>
      </trkpt>
      <trkpt lat="44.72038" lon="6.94189">
        <ele>2680</ele>
        <time>2021-12-16T08:44:09Z</time>
      </trkpt>
      <trkpt lat="44.72039" lon="6.94191">
        <ele>2680</ele>
        <time>2021-12-16T08:44:12Z</time>
      </trkpt>
      <trkpt lat="44.72041" lon="6.94194">
        <ele>2681</ele>
        <time>2021-12-16T08:44:21Z</time>
      </trkpt>
      <trkpt lat="44.7204" lon="6.94195">
        <ele>2682</ele>
        <time>2021-12-16T08:44:26Z</time>
      </trkpt>
      <trkpt lat="44.72039" lon="6.94195">
        <ele>2682</ele>
        <time>2021-12-16T08:44:28Z</time>
      </trkpt>
      <trkpt lat="44.72034" lon="6.94197">
        <ele>2683</ele>
        <time>2021-12-16T08:44:38Z</time>
      </trkpt>
      <trkpt lat="44.72033" lon="6.94197">
        <ele>2683</ele>
        <time>2021-12-16T08:44:41Z</time>
      </trkpt>
      <trkpt lat="44.72031" lon="6.94198">
        <ele>2684</ele>
        <time>2021-12-16T08:44:44Z</time>
      </trkpt>
      <trkpt lat="44.72025" lon="6.94199">
        <ele>2687</ele>
        <time>2021-12-16T08:44:55Z</time>
      </trkpt>
      <trkpt lat="44.72023" lon="6.942">
        <ele>2687</ele>
        <time>2021-12-16T08:44:57Z</time>
      </trkpt>
      <trkpt lat="44.7202" lon="6.94202">
        <ele>2689</ele>
        <time>2021-12-16T08:45:02Z</time>
      </trkpt>
      <trkpt lat="44.72011" lon="6.94205">
        <ele>2693</ele>
        <time>2021-12-16T08:45:20Z</time>
      </trkpt>
      <trkpt lat="44.7201" lon="6.94205">
        <ele>2693</ele>
        <time>2021-12-16T08:45:23Z</time>
      </trkpt>
      <trkpt lat="44.7201" lon="6.94208">
        <ele>2694</ele>
        <time>2021-12-16T08:45:38Z</time>
      </trkpt>
      <trkpt lat="44.72021" lon="6.94214">
        <ele>2698</ele>
        <time>2021-12-16T08:46:00Z</time>
      </trkpt>
      <trkpt lat="44.72023" lon="6.94215">
        <ele>2698</ele>
        <time>2021-12-16T08:46:02Z</time>
      </trkpt>
      <trkpt lat="44.72025" lon="6.94214">
        <ele>2699</ele>
        <time>2021-12-16T08:46:06Z</time>
      </trkpt>
      <trkpt lat="44.72027" lon="6.94215">
        <ele>2699</ele>
        <time>2021-12-16T08:46:09Z</time>
      </trkpt>
      <trkpt lat="44.7203" lon="6.94217">
        <ele>2700</ele>
        <time>2021-12-16T08:46:15Z</time>
      </trkpt>
      <trkpt lat="44.72031" lon="6.94217">
        <ele>2701</ele>
        <time>2021-12-16T08:46:18Z</time>
      </trkpt>
      <trkpt lat="44.72034" lon="6.94218">
        <ele>2702</ele>
        <time>2021-12-16T08:46:24Z</time>
      </trkpt>
      <trkpt lat="44.72035" lon="6.94219">
        <ele>2702</ele>
        <time>2021-12-16T08:46:27Z</time>
      </trkpt>
      <trkpt lat="44.72037" lon="6.9422">
        <ele>2703</ele>
        <time>2021-12-16T08:46:30Z</time>
      </trkpt>
      <trkpt lat="44.72038" lon="6.94222">
        <ele>2703</ele>
        <time>2021-12-16T08:46:33Z</time>
      </trkpt>
      <trkpt lat="44.72039" lon="6.94223">
        <ele>2703</ele>
        <time>2021-12-16T08:46:38Z</time>
      </trkpt>
      <trkpt lat="44.72038" lon="6.94225">
        <ele>2704</ele>
        <time>2021-12-16T08:46:52Z</time>
      </trkpt>
      <trkpt lat="44.72037" lon="6.94226">
        <ele>2703</ele>
        <time>2021-12-16T08:46:55Z</time>
      </trkpt>
      <trkpt lat="44.72034" lon="6.94227">
        <ele>2703</ele>
        <time>2021-12-16T08:47:01Z</time>
      </trkpt>
      <trkpt lat="44.72032" lon="6.94228">
        <ele>2703</ele>
        <time>2021-12-16T08:47:04Z</time>
      </trkpt>
      <trkpt lat="44.7203" lon="6.9423">
        <ele>2703</ele>
        <time>2021-12-16T08:47:09Z</time>
      </trkpt>
      <trkpt lat="44.72028" lon="6.94232">
        <ele>2704</ele>
        <time>2021-12-16T08:47:17Z</time>
      </trkpt>
      <trkpt lat="44.72025" lon="6.94234">
        <ele>2704</ele>
        <time>2021-12-16T08:47:22Z</time>
      </trkpt>
      <trkpt lat="44.7202" lon="6.94239">
        <ele>2708</ele>
        <time>2021-12-16T08:47:38Z</time>
      </trkpt>
      <trkpt lat="44.72017" lon="6.9424">
        <ele>2709</ele>
        <time>2021-12-16T08:47:45Z</time>
      </trkpt>
      <trkpt lat="44.72017" lon="6.94242">
        <ele>2709</ele>
        <time>2021-12-16T08:47:50Z</time>
      </trkpt>
      <trkpt lat="44.72015" lon="6.94242">
        <ele>2710</ele>
        <time>2021-12-16T08:48:01Z</time>
      </trkpt>
      <trkpt lat="44.72014" lon="6.94242">
        <ele>2710</ele>
        <time>2021-12-16T08:48:02Z</time>
      </trkpt>
      <trkpt lat="44.72011" lon="6.94242">
        <ele>2710</ele>
        <time>2021-12-16T08:48:10Z</time>
      </trkpt>
      <trkpt lat="44.7201" lon="6.94242">
        <ele>2711</ele>
        <time>2021-12-16T08:48:13Z</time>
      </trkpt>
      <trkpt lat="44.72008" lon="6.94243">
        <ele>2711</ele>
        <time>2021-12-16T08:48:16Z</time>
      </trkpt>
      <trkpt lat="44.72006" lon="6.94243">
        <ele>2711</ele>
        <time>2021-12-16T08:48:19Z</time>
      </trkpt>
      <trkpt lat="44.72004" lon="6.94244">
        <ele>2710</ele>
        <time>2021-12-16T08:48:24Z</time>
      </trkpt>
      <trkpt lat="44.72004" lon="6.94246">
        <ele>2711</ele>
        <time>2021-12-16T08:48:48Z</time>
      </trkpt>
      <trkpt lat="44.72005" lon="6.94248">
        <ele>2711</ele>
        <time>2021-12-16T08:48:51Z</time>
      </trkpt>
      <trkpt lat="44.72005" lon="6.9425">
        <ele>2711</ele>
        <time>2021-12-16T08:48:54Z</time>
      </trkpt>
      <trkpt lat="44.72005" lon="6.94252">
        <ele>2711</ele>
        <time>2021-12-16T08:48:58Z</time>
      </trkpt>
      <trkpt lat="44.72007" lon="6.94255">
        <ele>2712</ele>
        <time>2021-12-16T08:49:12Z</time>
      </trkpt>
      <trkpt lat="44.7201" lon="6.94257">
        <ele>2713</ele>
        <time>2021-12-16T08:49:20Z</time>
      </trkpt>
      <trkpt lat="44.72012" lon="6.94258">
        <ele>2713</ele>
        <time>2021-12-16T08:49:22Z</time>
      </trkpt>
      <trkpt lat="44.72013" lon="6.94258">
        <ele>2713</ele>
        <time>2021-12-16T08:49:24Z</time>
      </trkpt>
      <trkpt lat="44.72021" lon="6.94266">
        <ele>2715</ele>
        <time>2021-12-16T08:49:39Z</time>
      </trkpt>
      <trkpt lat="44.72022" lon="6.94267">
        <ele>2716</ele>
        <time>2021-12-16T08:49:41Z</time>
      </trkpt>
      <trkpt lat="44.72023" lon="6.94269">
        <ele>2716</ele>
        <time>2021-12-16T08:49:44Z</time>
      </trkpt>
      <trkpt lat="44.72032" lon="6.94272">
        <ele>2718</ele>
        <time>2021-12-16T08:50:10Z</time>
      </trkpt>
      <trkpt lat="44.72038" lon="6.94271">
        <ele>2718</ele>
        <time>2021-12-16T08:50:22Z</time>
      </trkpt>
      <trkpt lat="44.72042" lon="6.94271">
        <ele>2719</ele>
        <time>2021-12-16T08:50:32Z</time>
      </trkpt>
      <trkpt lat="44.72044" lon="6.94272">
        <ele>2719</ele>
        <time>2021-12-16T08:50:35Z</time>
      </trkpt>
      <trkpt lat="44.72045" lon="6.94272">
        <ele>2720</ele>
        <time>2021-12-16T08:50:38Z</time>
      </trkpt>
      <trkpt lat="44.72046" lon="6.94273">
        <ele>2720</ele>
        <time>2021-12-16T08:50:40Z</time>
      </trkpt>
      <trkpt lat="44.72048" lon="6.94273">
        <ele>2720</ele>
        <time>2021-12-16T08:50:43Z</time>
      </trkpt>
      <trkpt lat="44.72051" lon="6.94273">
        <ele>2721</ele>
        <time>2021-12-16T08:50:48Z</time>
      </trkpt>
      <trkpt lat="44.72052" lon="6.94274">
        <ele>2721</ele>
        <time>2021-12-16T08:50:52Z</time>
      </trkpt>
      <trkpt lat="44.72052" lon="6.94279">
        <ele>2723</ele>
        <time>2021-12-16T08:51:16Z</time>
      </trkpt>
      <trkpt lat="44.72048" lon="6.94281">
        <ele>2724</ele>
        <time>2021-12-16T08:51:25Z</time>
      </trkpt>
      <trkpt lat="44.72036" lon="6.94291">
        <ele>2729</ele>
        <time>2021-12-16T08:51:49Z</time>
      </trkpt>
      <trkpt lat="44.72034" lon="6.94291">
        <ele>2729</ele>
        <time>2021-12-16T08:51:51Z</time>
      </trkpt>
      <trkpt lat="44.72033" lon="6.94292">
        <ele>2729</ele>
        <time>2021-12-16T08:51:53Z</time>
      </trkpt>
      <trkpt lat="44.72032" lon="6.94293">
        <ele>2730</ele>
        <time>2021-12-16T08:51:56Z</time>
      </trkpt>
      <trkpt lat="44.7203" lon="6.94293">
        <ele>2730</ele>
        <time>2021-12-16T08:51:59Z</time>
      </trkpt>
      <trkpt lat="44.72025" lon="6.94295">
        <ele>2732</ele>
        <time>2021-12-16T08:52:09Z</time>
      </trkpt>
      <trkpt lat="44.72019" lon="6.94297">
        <ele>2733</ele>
        <time>2021-12-16T08:52:26Z</time>
      </trkpt>
      <trkpt lat="44.72017" lon="6.94298">
        <ele>2733</ele>
        <time>2021-12-16T08:52:29Z</time>
      </trkpt>
      <trkpt lat="44.72015" lon="6.94298">
        <ele>2733</ele>
        <time>2021-12-16T08:52:32Z</time>
      </trkpt>
      <trkpt lat="44.72014" lon="6.94299">
        <ele>2734</ele>
        <time>2021-12-16T08:52:35Z</time>
      </trkpt>
      <trkpt lat="44.72011" lon="6.94301">
        <ele>2735</ele>
        <time>2021-12-16T08:52:41Z</time>
      </trkpt>
      <trkpt lat="44.72011" lon="6.94302">
        <ele>2736</ele>
        <time>2021-12-16T08:52:49Z</time>
      </trkpt>
      <trkpt lat="44.7201" lon="6.94306">
        <ele>2737</ele>
        <time>2021-12-16T08:53:09Z</time>
      </trkpt>
      <trkpt lat="44.72011" lon="6.94308">
        <ele>2737</ele>
        <time>2021-12-16T08:53:11Z</time>
      </trkpt>
      <trkpt lat="44.72012" lon="6.94309">
        <ele>2738</ele>
        <time>2021-12-16T08:53:13Z</time>
      </trkpt>
      <trkpt lat="44.72015" lon="6.94313">
        <ele>2738</ele>
        <time>2021-12-16T08:53:22Z</time>
      </trkpt>
      <trkpt lat="44.72016" lon="6.94315">
        <ele>2739</ele>
        <time>2021-12-16T08:53:26Z</time>
      </trkpt>
      <trkpt lat="44.72019" lon="6.94317">
        <ele>2740</ele>
        <time>2021-12-16T08:53:32Z</time>
      </trkpt>
      <trkpt lat="44.72025" lon="6.94316">
        <ele>2741</ele>
        <time>2021-12-16T08:53:45Z</time>
      </trkpt>
      <trkpt lat="44.72025" lon="6.94319">
        <ele>2741</ele>
        <time>2021-12-16T08:54:13Z</time>
      </trkpt>
      <trkpt lat="44.72023" lon="6.9432">
        <ele>2742</ele>
        <time>2021-12-16T08:54:16Z</time>
      </trkpt>
      <trkpt lat="44.7202" lon="6.94323">
        <ele>2744</ele>
        <time>2021-12-16T08:54:24Z</time>
      </trkpt>
      <trkpt lat="44.72018" lon="6.94323">
        <ele>2745</ele>
        <time>2021-12-16T08:54:27Z</time>
      </trkpt>
      <trkpt lat="44.72017" lon="6.94323">
        <ele>2746</ele>
        <time>2021-12-16T08:54:30Z</time>
      </trkpt>
      <trkpt lat="44.72015" lon="6.94324">
        <ele>2746</ele>
        <time>2021-12-16T08:54:33Z</time>
      </trkpt>
      <trkpt lat="44.72014" lon="6.94325">
        <ele>2747</ele>
        <time>2021-12-16T08:54:36Z</time>
      </trkpt>
      <trkpt lat="44.72013" lon="6.94325">
        <ele>2748</ele>
        <time>2021-12-16T08:54:38Z</time>
      </trkpt>
      <trkpt lat="44.72011" lon="6.94325">
        <ele>2748</ele>
        <time>2021-12-16T08:54:50Z</time>
      </trkpt>
      <trkpt lat="44.7201" lon="6.94325">
        <ele>2749</ele>
        <time>2021-12-16T08:54:53Z</time>
      </trkpt>
      <trkpt lat="44.72008" lon="6.94326">
        <ele>2749</ele>
        <time>2021-12-16T08:54:55Z</time>
      </trkpt>
      <trkpt lat="44.72004" lon="6.94327">
        <ele>2750</ele>
        <time>2021-12-16T08:55:04Z</time>
      </trkpt>
      <trkpt lat="44.72001" lon="6.94328">
        <ele>2750</ele>
        <time>2021-12-16T08:55:10Z</time>
      </trkpt>
      <trkpt lat="44.71999" lon="6.94328">
        <ele>2750</ele>
        <time>2021-12-16T08:55:13Z</time>
      </trkpt>
      <trkpt lat="44.71995" lon="6.9433">
        <ele>2751</ele>
        <time>2021-12-16T08:55:21Z</time>
      </trkpt>
      <trkpt lat="44.71994" lon="6.94331">
        <ele>2752</ele>
        <time>2021-12-16T08:55:24Z</time>
      </trkpt>
      <trkpt lat="44.71986" lon="6.94336">
        <ele>2752</ele>
        <time>2021-12-16T08:55:40Z</time>
      </trkpt>
      <trkpt lat="44.71982" lon="6.9434">
        <ele>2754</ele>
        <time>2021-12-16T08:55:50Z</time>
      </trkpt>
      <trkpt lat="44.7198" lon="6.94341">
        <ele>2754</ele>
        <time>2021-12-16T08:55:53Z</time>
      </trkpt>
      <trkpt lat="44.7198" lon="6.94343">
        <ele>2755</ele>
        <time>2021-12-16T08:55:57Z</time>
      </trkpt>
      <trkpt lat="44.7198" lon="6.94344">
        <ele>2756</ele>
        <time>2021-12-16T08:56:27Z</time>
      </trkpt>
      <trkpt lat="44.71982" lon="6.94345">
        <ele>2756</ele>
        <time>2021-12-16T08:56:30Z</time>
      </trkpt>
      <trkpt lat="44.71992" lon="6.94354">
        <ele>2760</ele>
        <time>2021-12-16T08:57:01Z</time>
      </trkpt>
      <trkpt lat="44.71997" lon="6.94356">
        <ele>2762</ele>
        <time>2021-12-16T08:57:10Z</time>
      </trkpt>
      <trkpt lat="44.72" lon="6.94357">
        <ele>2764</ele>
        <time>2021-12-16T08:57:16Z</time>
      </trkpt>
      <trkpt lat="44.72004" lon="6.94362">
        <ele>2766</ele>
        <time>2021-12-16T08:57:32Z</time>
      </trkpt>
      <trkpt lat="44.72008" lon="6.94362">
        <ele>2766</ele>
        <time>2021-12-16T08:57:37Z</time>
      </trkpt>
      <trkpt lat="44.72012" lon="6.94365">
        <ele>2766</ele>
        <time>2021-12-16T08:57:46Z</time>
      </trkpt>
      <trkpt lat="44.72013" lon="6.94367">
        <ele>2766</ele>
        <time>2021-12-16T08:57:50Z</time>
      </trkpt>
      <trkpt lat="44.72014" lon="6.94368">
        <ele>2767</ele>
        <time>2021-12-16T08:57:52Z</time>
      </trkpt>
      <trkpt lat="44.72015" lon="6.94368">
        <ele>2767</ele>
        <time>2021-12-16T08:57:59Z</time>
      </trkpt>
      <trkpt lat="44.72013" lon="6.94372">
        <ele>2768</ele>
        <time>2021-12-16T08:58:28Z</time>
      </trkpt>
      <trkpt lat="44.72012" lon="6.94373">
        <ele>2768</ele>
        <time>2021-12-16T08:58:30Z</time>
      </trkpt>
      <trkpt lat="44.72011" lon="6.94373">
        <ele>2769</ele>
        <time>2021-12-16T08:58:32Z</time>
      </trkpt>
      <trkpt lat="44.72008" lon="6.94375">
        <ele>2769</ele>
        <time>2021-12-16T08:58:36Z</time>
      </trkpt>
      <trkpt lat="44.72007" lon="6.94377">
        <ele>2769</ele>
        <time>2021-12-16T08:58:39Z</time>
      </trkpt>
      <trkpt lat="44.72001" lon="6.94382">
        <ele>2770</ele>
        <time>2021-12-16T08:58:53Z</time>
      </trkpt>
      <trkpt lat="44.72" lon="6.94382">
        <ele>2770</ele>
        <time>2021-12-16T08:58:55Z</time>
      </trkpt>
      <trkpt lat="44.71996" lon="6.94384">
        <ele>2770</ele>
        <time>2021-12-16T08:58:59Z</time>
      </trkpt>
      <trkpt lat="44.71995" lon="6.94385">
        <ele>2770</ele>
        <time>2021-12-16T08:59:02Z</time>
      </trkpt>
      <trkpt lat="44.71994" lon="6.94386">
        <ele>2770</ele>
        <time>2021-12-16T08:59:05Z</time>
      </trkpt>
      <trkpt lat="44.71992" lon="6.94387">
        <ele>2771</ele>
        <time>2021-12-16T08:59:08Z</time>
      </trkpt>
      <trkpt lat="44.71991" lon="6.94387">
        <ele>2771</ele>
        <time>2021-12-16T08:59:11Z</time>
      </trkpt>
      <trkpt lat="44.71986" lon="6.94389">
        <ele>2773</ele>
        <time>2021-12-16T08:59:20Z</time>
      </trkpt>
      <trkpt lat="44.71983" lon="6.94392">
        <ele>2774</ele>
        <time>2021-12-16T08:59:25Z</time>
      </trkpt>
      <trkpt lat="44.71982" lon="6.94392">
        <ele>2774</ele>
        <time>2021-12-16T08:59:28Z</time>
      </trkpt>
      <trkpt lat="44.71978" lon="6.94395">
        <ele>2775</ele>
        <time>2021-12-16T08:59:35Z</time>
      </trkpt>
      <trkpt lat="44.71972" lon="6.94396">
        <ele>2777</ele>
        <time>2021-12-16T08:59:45Z</time>
      </trkpt>
      <trkpt lat="44.71971" lon="6.94396">
        <ele>2778</ele>
        <time>2021-12-16T08:59:48Z</time>
      </trkpt>
      <trkpt lat="44.7197" lon="6.94396">
        <ele>2779</ele>
        <time>2021-12-16T09:00:01Z</time>
      </trkpt>
      <trkpt lat="44.71971" lon="6.944">
        <ele>2781</ele>
        <time>2021-12-16T09:00:13Z</time>
      </trkpt>
      <trkpt lat="44.71973" lon="6.94402">
        <ele>2781</ele>
        <time>2021-12-16T09:00:17Z</time>
      </trkpt>
      <trkpt lat="44.71975" lon="6.94405">
        <ele>2782</ele>
        <time>2021-12-16T09:00:22Z</time>
      </trkpt>
      <trkpt lat="44.71977" lon="6.94407">
        <ele>2782</ele>
        <time>2021-12-16T09:00:25Z</time>
      </trkpt>
      <trkpt lat="44.7198" lon="6.94409">
        <ele>2782</ele>
        <time>2021-12-16T09:00:30Z</time>
      </trkpt>
      <trkpt lat="44.71983" lon="6.94412">
        <ele>2783</ele>
        <time>2021-12-16T09:00:37Z</time>
      </trkpt>
      <trkpt lat="44.71984" lon="6.94413">
        <ele>2783</ele>
        <time>2021-12-16T09:00:40Z</time>
      </trkpt>
      <trkpt lat="44.71985" lon="6.94414">
        <ele>2783</ele>
        <time>2021-12-16T09:00:43Z</time>
      </trkpt>
      <trkpt lat="44.71988" lon="6.94416">
        <ele>2784</ele>
        <time>2021-12-16T09:00:51Z</time>
      </trkpt>
      <trkpt lat="44.71999" lon="6.94421">
        <ele>2786</ele>
        <time>2021-12-16T09:01:10Z</time>
      </trkpt>
      <trkpt lat="44.72001" lon="6.94421">
        <ele>2787</ele>
        <time>2021-12-16T09:01:13Z</time>
      </trkpt>
      <trkpt lat="44.72004" lon="6.94422">
        <ele>2787</ele>
        <time>2021-12-16T09:01:19Z</time>
      </trkpt>
      <trkpt lat="44.72006" lon="6.94422">
        <ele>2787</ele>
        <time>2021-12-16T09:01:22Z</time>
      </trkpt>
      <trkpt lat="44.72017" lon="6.94427">
        <ele>2789</ele>
        <time>2021-12-16T09:01:47Z</time>
      </trkpt>
      <trkpt lat="44.72023" lon="6.94426">
        <ele>2790</ele>
        <time>2021-12-16T09:01:58Z</time>
      </trkpt>
      <trkpt lat="44.72026" lon="6.94427">
        <ele>2791</ele>
        <time>2021-12-16T09:02:04Z</time>
      </trkpt>
      <trkpt lat="44.7203" lon="6.94426">
        <ele>2792</ele>
        <time>2021-12-16T09:02:10Z</time>
      </trkpt>
      <trkpt lat="44.72031" lon="6.94427">
        <ele>2792</ele>
        <time>2021-12-16T09:02:13Z</time>
      </trkpt>
      <trkpt lat="44.72034" lon="6.94427">
        <ele>2794</ele>
        <time>2021-12-16T09:03:26Z</time>
      </trkpt>
      <trkpt lat="44.72035" lon="6.94425">
        <ele>2795</ele>
        <time>2021-12-16T09:03:37Z</time>
      </trkpt>
      <trkpt lat="44.72036" lon="6.94424">
        <ele>2796</ele>
        <time>2021-12-16T09:03:52Z</time>
      </trkpt>
      <trkpt lat="44.72038" lon="6.94424">
        <ele>2797</ele>
        <time>2021-12-16T09:04:00Z</time>
      </trkpt>
      <trkpt lat="44.72036" lon="6.94427">
        <ele>2797</ele>
        <time>2021-12-16T09:04:04Z</time>
      </trkpt>
      <trkpt lat="44.72035" lon="6.94429">
        <ele>2798</ele>
        <time>2021-12-16T09:04:06Z</time>
      </trkpt>
      <trkpt lat="44.72034" lon="6.94431">
        <ele>2798</ele>
        <time>2021-12-16T09:04:08Z</time>
      </trkpt>
      <trkpt lat="44.72033" lon="6.94434">
        <ele>2797</ele>
        <time>2021-12-16T09:04:11Z</time>
      </trkpt>
      <trkpt lat="44.72033" lon="6.94437">
        <ele>2797</ele>
        <time>2021-12-16T09:04:13Z</time>
      </trkpt>
      <trkpt lat="44.72031" lon="6.9444">
        <ele>2797</ele>
        <time>2021-12-16T09:04:15Z</time>
      </trkpt>
      <trkpt lat="44.7203" lon="6.94442">
        <ele>2798</ele>
        <time>2021-12-16T09:04:17Z</time>
      </trkpt>
      <trkpt lat="44.72028" lon="6.94444">
        <ele>2799</ele>
        <time>2021-12-16T09:04:19Z</time>
      </trkpt>
      <trkpt lat="44.72025" lon="6.94447">
        <ele>2801</ele>
        <time>2021-12-16T09:04:24Z</time>
      </trkpt>
      <trkpt lat="44.72024" lon="6.94449">
        <ele>2803</ele>
        <time>2021-12-16T09:04:28Z</time>
      </trkpt>
      <trkpt lat="44.72023" lon="6.9445">
        <ele>2804</ele>
        <time>2021-12-16T09:04:33Z</time>
      </trkpt>
      <trkpt lat="44.72021" lon="6.94451">
        <ele>2806</ele>
        <time>2021-12-16T09:04:38Z</time>
      </trkpt>
      <trkpt lat="44.72019" lon="6.94454">
        <ele>2807</ele>
        <time>2021-12-16T09:04:46Z</time>
      </trkpt>
      <trkpt lat="44.72017" lon="6.94455">
        <ele>2807</ele>
        <time>2021-12-16T09:04:49Z</time>
      </trkpt>
      <trkpt lat="44.72015" lon="6.94456">
        <ele>2808</ele>
        <time>2021-12-16T09:04:52Z</time>
      </trkpt>
      <trkpt lat="44.72014" lon="6.94458">
        <ele>2808</ele>
        <time>2021-12-16T09:04:54Z</time>
      </trkpt>
      <trkpt lat="44.72012" lon="6.94461">
        <ele>2809</ele>
        <time>2021-12-16T09:04:59Z</time>
      </trkpt>
      <trkpt lat="44.72008" lon="6.94465">
        <ele>2810</ele>
        <time>2021-12-16T09:05:05Z</time>
      </trkpt>
      <trkpt lat="44.72006" lon="6.94465">
        <ele>2810</ele>
        <time>2021-12-16T09:05:08Z</time>
      </trkpt>
      <trkpt lat="44.72004" lon="6.94465">
        <ele>2811</ele>
        <time>2021-12-16T09:05:11Z</time>
      </trkpt>
      <trkpt lat="44.72003" lon="6.94467">
        <ele>2811</ele>
        <time>2021-12-16T09:05:16Z</time>
      </trkpt>
      <trkpt lat="44.72" lon="6.94469">
        <ele>2812</ele>
        <time>2021-12-16T09:05:23Z</time>
      </trkpt>
      <trkpt lat="44.71998" lon="6.94473">
        <ele>2813</ele>
        <time>2021-12-16T09:05:29Z</time>
      </trkpt>
      <trkpt lat="44.71997" lon="6.94475">
        <ele>2813</ele>
        <time>2021-12-16T09:05:33Z</time>
      </trkpt>
      <trkpt lat="44.71994" lon="6.94479">
        <ele>2813</ele>
        <time>2021-12-16T09:05:41Z</time>
      </trkpt>
      <trkpt lat="44.71991" lon="6.94481">
        <ele>2814</ele>
        <time>2021-12-16T09:05:48Z</time>
      </trkpt>
      <trkpt lat="44.7199" lon="6.94483">
        <ele>2814</ele>
        <time>2021-12-16T09:05:53Z</time>
      </trkpt>
      <trkpt lat="44.71989" lon="6.94483">
        <ele>2814</ele>
        <time>2021-12-16T09:05:56Z</time>
      </trkpt>
      <trkpt lat="44.71987" lon="6.94484">
        <ele>2814</ele>
        <time>2021-12-16T09:05:59Z</time>
      </trkpt>
      <trkpt lat="44.71986" lon="6.94484">
        <ele>2813</ele>
        <time>2021-12-16T09:06:01Z</time>
      </trkpt>
      <trkpt lat="44.71984" lon="6.94485">
        <ele>2813</ele>
        <time>2021-12-16T09:06:03Z</time>
      </trkpt>
      <trkpt lat="44.71983" lon="6.94485">
        <ele>2813</ele>
        <time>2021-12-16T09:06:05Z</time>
      </trkpt>
      <trkpt lat="44.71982" lon="6.94484">
        <ele>2813</ele>
        <time>2021-12-16T09:06:08Z</time>
      </trkpt>
      <trkpt lat="44.71981" lon="6.94483">
        <ele>2814</ele>
        <time>2021-12-16T09:06:12Z</time>
      </trkpt>
      <trkpt lat="44.71979" lon="6.94485">
        <ele>2814</ele>
        <time>2021-12-16T09:06:18Z</time>
      </trkpt>
      <trkpt lat="44.71979" lon="6.94487">
        <ele>2814</ele>
        <time>2021-12-16T09:06:20Z</time>
      </trkpt>
      <trkpt lat="44.71978" lon="6.94488">
        <ele>2815</ele>
        <time>2021-12-16T09:06:23Z</time>
      </trkpt>
      <trkpt lat="44.7198" lon="6.9449">
        <ele>2815</ele>
        <time>2021-12-16T09:06:36Z</time>
      </trkpt>
      <trkpt lat="44.71984" lon="6.94492">
        <ele>2815</ele>
        <time>2021-12-16T09:06:47Z</time>
      </trkpt>
      <trkpt lat="44.71986" lon="6.94493">
        <ele>2815</ele>
        <time>2021-12-16T09:06:49Z</time>
      </trkpt>
      <trkpt lat="44.71991" lon="6.94497">
        <ele>2816</ele>
        <time>2021-12-16T09:06:59Z</time>
      </trkpt>
      <trkpt lat="44.71993" lon="6.94497">
        <ele>2817</ele>
        <time>2021-12-16T09:07:05Z</time>
      </trkpt>
      <trkpt lat="44.71994" lon="6.94497">
        <ele>2817</ele>
        <time>2021-12-16T09:07:11Z</time>
      </trkpt>
      <trkpt lat="44.71996" lon="6.94497">
        <ele>2818</ele>
        <time>2021-12-16T09:07:18Z</time>
      </trkpt>
      <trkpt lat="44.71999" lon="6.94499">
        <ele>2818</ele>
        <time>2021-12-16T09:07:22Z</time>
      </trkpt>
      <trkpt lat="44.71997" lon="6.945">
        <ele>2819</ele>
        <time>2021-12-16T09:07:30Z</time>
      </trkpt>
      <trkpt lat="44.71994" lon="6.94502">
        <ele>2820</ele>
        <time>2021-12-16T09:07:35Z</time>
      </trkpt>
      <trkpt lat="44.7199" lon="6.94503">
        <ele>2820</ele>
        <time>2021-12-16T09:07:39Z</time>
      </trkpt>
      <trkpt lat="44.71989" lon="6.94504">
        <ele>2821</ele>
        <time>2021-12-16T09:07:42Z</time>
      </trkpt>
      <trkpt lat="44.71987" lon="6.94505">
        <ele>2821</ele>
        <time>2021-12-16T09:07:45Z</time>
      </trkpt>
      <trkpt lat="44.71981" lon="6.94506">
        <ele>2822</ele>
        <time>2021-12-16T09:08:07Z</time>
      </trkpt>
      <trkpt lat="44.71983" lon="6.94507">
        <ele>2822</ele>
        <time>2021-12-16T09:08:15Z</time>
      </trkpt>
      <trkpt lat="44.71985" lon="6.94509">
        <ele>2822</ele>
        <time>2021-12-16T09:08:23Z</time>
      </trkpt>
      <trkpt lat="44.71987" lon="6.94511">
        <ele>2822</ele>
        <time>2021-12-16T09:08:28Z</time>
      </trkpt>
      <trkpt lat="44.71989" lon="6.94511">
        <ele>2822</ele>
        <time>2021-12-16T09:08:31Z</time>
      </trkpt>
      <trkpt lat="44.71991" lon="6.9451">
        <ele>2821</ele>
        <time>2021-12-16T09:08:40Z</time>
      </trkpt>
      <trkpt lat="44.71993" lon="6.94513">
        <ele>2821</ele>
        <time>2021-12-16T09:08:51Z</time>
      </trkpt>
      <trkpt lat="44.71994" lon="6.94513">
        <ele>2822</ele>
        <time>2021-12-16T09:09:06Z</time>
      </trkpt>
      <trkpt lat="44.71992" lon="6.94515">
        <ele>2822</ele>
        <time>2021-12-16T09:09:10Z</time>
      </trkpt>
      <trkpt lat="44.71989" lon="6.94516">
        <ele>2824</ele>
        <time>2021-12-16T09:09:14Z</time>
      </trkpt>
      <trkpt lat="44.71986" lon="6.94518">
        <ele>2825</ele>
        <time>2021-12-16T09:09:22Z</time>
      </trkpt>
      <trkpt lat="44.71984" lon="6.94519">
        <ele>2826</ele>
        <time>2021-12-16T09:09:27Z</time>
      </trkpt>
      <trkpt lat="44.71983" lon="6.94521">
        <ele>2827</ele>
        <time>2021-12-16T09:09:33Z</time>
      </trkpt>
      <trkpt lat="44.71981" lon="6.94522">
        <ele>2827</ele>
        <time>2021-12-16T09:09:42Z</time>
      </trkpt>
      <trkpt lat="44.71979" lon="6.94521">
        <ele>2828</ele>
        <time>2021-12-16T09:09:45Z</time>
      </trkpt>
      <trkpt lat="44.71978" lon="6.94522">
        <ele>2828</ele>
        <time>2021-12-16T09:09:47Z</time>
      </trkpt>
      <trkpt lat="44.71976" lon="6.94521">
        <ele>2828</ele>
        <time>2021-12-16T09:09:50Z</time>
      </trkpt>
      <trkpt lat="44.71974" lon="6.94522">
        <ele>2829</ele>
        <time>2021-12-16T09:09:52Z</time>
      </trkpt>
      <trkpt lat="44.71973" lon="6.94522">
        <ele>2829</ele>
        <time>2021-12-16T09:09:55Z</time>
      </trkpt>
      <trkpt lat="44.7197" lon="6.94524">
        <ele>2830</ele>
        <time>2021-12-16T09:10:00Z</time>
      </trkpt>
      <trkpt lat="44.71968" lon="6.94525">
        <ele>2830</ele>
        <time>2021-12-16T09:10:03Z</time>
      </trkpt>
      <trkpt lat="44.71967" lon="6.94525">
        <ele>2831</ele>
        <time>2021-12-16T09:10:07Z</time>
      </trkpt>
      <trkpt lat="44.71966" lon="6.94527">
        <ele>2832</ele>
        <time>2021-12-16T09:10:13Z</time>
      </trkpt>
      <trkpt lat="44.71965" lon="6.94528">
        <ele>2832</ele>
        <time>2021-12-16T09:10:16Z</time>
      </trkpt>
      <trkpt lat="44.71964" lon="6.94529">
        <ele>2832</ele>
        <time>2021-12-16T09:10:19Z</time>
      </trkpt>
      <trkpt lat="44.71962" lon="6.9453">
        <ele>2832</ele>
        <time>2021-12-16T09:10:23Z</time>
      </trkpt>
      <trkpt lat="44.71959" lon="6.9453">
        <ele>2833</ele>
        <time>2021-12-16T09:10:30Z</time>
      </trkpt>
      <trkpt lat="44.71957" lon="6.94531">
        <ele>2834</ele>
        <time>2021-12-16T09:10:33Z</time>
      </trkpt>
      <trkpt lat="44.71952" lon="6.94532">
        <ele>2835</ele>
        <time>2021-12-16T09:10:45Z</time>
      </trkpt>
      <trkpt lat="44.71951" lon="6.94531">
        <ele>2836</ele>
        <time>2021-12-16T09:10:48Z</time>
      </trkpt>
      <trkpt lat="44.71948" lon="6.94528">
        <ele>2836</ele>
        <time>2021-12-16T09:10:55Z</time>
      </trkpt>
      <trkpt lat="44.71943" lon="6.94525">
        <ele>2837</ele>
        <time>2021-12-16T09:11:07Z</time>
      </trkpt>
      <trkpt lat="44.71941" lon="6.94525">
        <ele>2838</ele>
        <time>2021-12-16T09:11:17Z</time>
      </trkpt>
      <trkpt lat="44.7194" lon="6.94528">
        <ele>2839</ele>
        <time>2021-12-16T09:11:32Z</time>
      </trkpt>
      <trkpt lat="44.71938" lon="6.94528">
        <ele>2842</ele>
        <time>2021-12-16T09:11:57Z</time>
      </trkpt>
      <trkpt lat="44.71936" lon="6.94528">
        <ele>2843</ele>
        <time>2021-12-16T09:12:02Z</time>
      </trkpt>
      <trkpt lat="44.71935" lon="6.94528">
        <ele>2843</ele>
        <time>2021-12-16T09:12:13Z</time>
      </trkpt>
      <trkpt lat="44.71937" lon="6.94533">
        <ele>2843</ele>
        <time>2021-12-16T09:12:31Z</time>
      </trkpt>
      <trkpt lat="44.71938" lon="6.94535">
        <ele>2844</ele>
        <time>2021-12-16T09:12:37Z</time>
      </trkpt>
      <trkpt lat="44.71938" lon="6.94535">
        <ele>2846</ele>
        <time>2021-12-16T09:12:56Z</time>
      </trkpt>
      <trkpt lat="44.71937" lon="6.94536">
        <ele>2847</ele>
        <time>2021-12-16T09:13:08Z</time>
      </trkpt>
      <trkpt lat="44.71936" lon="6.94536">
        <ele>2848</ele>
        <time>2021-12-16T09:13:12Z</time>
      </trkpt>
      <trkpt lat="44.71934" lon="6.94537">
        <ele>2849</ele>
        <time>2021-12-16T09:13:20Z</time>
      </trkpt>
      <trkpt lat="44.71939" lon="6.94546">
        <ele>2849</ele>
        <time>2021-12-16T09:14:57Z</time>
      </trkpt>
      <trkpt lat="44.71933" lon="6.94546">
        <ele>2850</ele>
        <time>2021-12-16T09:15:19Z</time>
      </trkpt>
      <trkpt lat="44.71931" lon="6.94551">
        <ele>2851</ele>
        <time>2021-12-16T09:15:25Z</time>
      </trkpt>
      <trkpt lat="44.71931" lon="6.94554">
        <ele>2852</ele>
        <time>2021-12-16T09:15:30Z</time>
      </trkpt>
      <trkpt lat="44.71929" lon="6.94555">
        <ele>2852</ele>
        <time>2021-12-16T09:15:33Z</time>
      </trkpt>
      <trkpt lat="44.71928" lon="6.94557">
        <ele>2853</ele>
        <time>2021-12-16T09:15:36Z</time>
      </trkpt>
      <trkpt lat="44.71928" lon="6.94559">
        <ele>2853</ele>
        <time>2021-12-16T09:15:43Z</time>
      </trkpt>
      <trkpt lat="44.71927" lon="6.94562">
        <ele>2853</ele>
        <time>2021-12-16T09:15:54Z</time>
      </trkpt>
      <trkpt lat="44.71928" lon="6.94564">
        <ele>2854</ele>
        <time>2021-12-16T09:16:08Z</time>
      </trkpt>
      <trkpt lat="44.71929" lon="6.94563">
        <ele>2855</ele>
        <time>2021-12-16T09:16:13Z</time>
      </trkpt>
      <trkpt lat="44.71933" lon="6.94563">
        <ele>2859</ele>
        <time>2021-12-16T09:16:20Z</time>
      </trkpt>
      <trkpt lat="44.71939" lon="6.94566">
        <ele>2863</ele>
        <time>2021-12-16T09:16:31Z</time>
      </trkpt>
      <trkpt lat="44.7194" lon="6.9457">
        <ele>2864</ele>
        <time>2021-12-16T09:16:36Z</time>
      </trkpt>
      <trkpt lat="44.71943" lon="6.94573">
        <ele>2864</ele>
        <time>2021-12-16T09:16:42Z</time>
      </trkpt>
      <trkpt lat="44.71944" lon="6.94577">
        <ele>2865</ele>
        <time>2021-12-16T09:16:50Z</time>
      </trkpt>
      <trkpt lat="44.71945" lon="6.94579">
        <ele>2865</ele>
        <time>2021-12-16T09:17:07Z</time>
      </trkpt>
      <trkpt lat="44.71946" lon="6.9458">
        <ele>2864</ele>
        <time>2021-12-16T09:17:12Z</time>
      </trkpt>
      <trkpt lat="44.71948" lon="6.94581">
        <ele>2863</ele>
        <time>2021-12-16T09:17:16Z</time>
      </trkpt>
      <trkpt lat="44.71949" lon="6.94582">
        <ele>2861</ele>
        <time>2021-12-16T09:17:19Z</time>
      </trkpt>
      <trkpt lat="44.71949" lon="6.94584">
        <ele>2861</ele>
        <time>2021-12-16T09:17:24Z</time>
      </trkpt>
      <trkpt lat="44.71947" lon="6.94586">
        <ele>2861</ele>
        <time>2021-12-16T09:17:30Z</time>
      </trkpt>
      <trkpt lat="44.71943" lon="6.94588">
        <ele>2861</ele>
        <time>2021-12-16T09:17:34Z</time>
      </trkpt>
      <trkpt lat="44.71942" lon="6.94588">
        <ele>2861</ele>
        <time>2021-12-16T09:17:36Z</time>
      </trkpt>
      <trkpt lat="44.71941" lon="6.94587">
        <ele>2864</ele>
        <time>2021-12-16T09:17:40Z</time>
      </trkpt>
      <trkpt lat="44.71938" lon="6.94586">
        <ele>2865</ele>
        <time>2021-12-16T09:17:43Z</time>
      </trkpt>
      <trkpt lat="44.71937" lon="6.94586">
        <ele>2867</ele>
        <time>2021-12-16T09:17:46Z</time>
      </trkpt>
      <trkpt lat="44.71934" lon="6.94586">
        <ele>2869</ele>
        <time>2021-12-16T09:17:51Z</time>
      </trkpt>
      <trkpt lat="44.71931" lon="6.94588">
        <ele>2870</ele>
        <time>2021-12-16T09:17:58Z</time>
      </trkpt>
      <trkpt lat="44.71929" lon="6.94588">
        <ele>2871</ele>
        <time>2021-12-16T09:18:02Z</time>
      </trkpt>
      <trkpt lat="44.71924" lon="6.94591">
        <ele>2872</ele>
        <time>2021-12-16T09:18:17Z</time>
      </trkpt>
      <trkpt lat="44.71923" lon="6.94592">
        <ele>2872</ele>
        <time>2021-12-16T09:18:19Z</time>
      </trkpt>
      <trkpt lat="44.71922" lon="6.94593">
        <ele>2872</ele>
        <time>2021-12-16T09:18:27Z</time>
      </trkpt>
      <trkpt lat="44.71923" lon="6.94597">
        <ele>2874</ele>
        <time>2021-12-16T09:18:44Z</time>
      </trkpt>
      <trkpt lat="44.71925" lon="6.94598">
        <ele>2874</ele>
        <time>2021-12-16T09:18:48Z</time>
      </trkpt>
      <trkpt lat="44.71925" lon="6.946">
        <ele>2874</ele>
        <time>2021-12-16T09:18:54Z</time>
      </trkpt>
      <trkpt lat="44.71926" lon="6.94602">
        <ele>2874</ele>
        <time>2021-12-16T09:18:58Z</time>
      </trkpt>
      <trkpt lat="44.71927" lon="6.94605">
        <ele>2874</ele>
        <time>2021-12-16T09:19:01Z</time>
      </trkpt>
      <trkpt lat="44.71928" lon="6.94607">
        <ele>2875</ele>
        <time>2021-12-16T09:19:04Z</time>
      </trkpt>
      <trkpt lat="44.7193" lon="6.94608">
        <ele>2874</ele>
        <time>2021-12-16T09:19:10Z</time>
      </trkpt>
      <trkpt lat="44.71932" lon="6.9461">
        <ele>2874</ele>
        <time>2021-12-16T09:19:15Z</time>
      </trkpt>
      <trkpt lat="44.71932" lon="6.94612">
        <ele>2873</ele>
        <time>2021-12-16T09:19:19Z</time>
      </trkpt>
      <trkpt lat="44.71934" lon="6.94614">
        <ele>2873</ele>
        <time>2021-12-16T09:19:22Z</time>
      </trkpt>
      <trkpt lat="44.71935" lon="6.94615">
        <ele>2873</ele>
        <time>2021-12-16T09:19:25Z</time>
      </trkpt>
      <trkpt lat="44.71937" lon="6.94617">
        <ele>2874</ele>
        <time>2021-12-16T09:19:29Z</time>
      </trkpt>
      <trkpt lat="44.71938" lon="6.94619">
        <ele>2876</ele>
        <time>2021-12-16T09:19:34Z</time>
      </trkpt>
      <trkpt lat="44.71938" lon="6.94621">
        <ele>2877</ele>
        <time>2021-12-16T09:20:45Z</time>
      </trkpt>
      <trkpt lat="44.71939" lon="6.9462">
        <ele>2878</ele>
        <time>2021-12-16T09:21:07Z</time>
      </trkpt>
      <trkpt lat="44.7194" lon="6.94623">
        <ele>2883</ele>
        <time>2021-12-16T09:22:36Z</time>
      </trkpt>
      <trkpt lat="44.71941" lon="6.94621">
        <ele>2887</ele>
        <time>2021-12-16T09:22:45Z</time>
      </trkpt>
      <trkpt lat="44.71942" lon="6.9462">
        <ele>2889</ele>
        <time>2021-12-16T09:22:55Z</time>
      </trkpt>
      <trkpt lat="44.71939" lon="6.94619">
        <ele>2889</ele>
        <time>2021-12-16T09:23:12Z</time>
      </trkpt>
      <trkpt lat="44.71938" lon="6.9462">
        <ele>2888</ele>
        <time>2021-12-16T09:24:24Z</time>
      </trkpt>
      <trkpt lat="44.71939" lon="6.94617">
        <ele>2887</ele>
        <time>2021-12-16T09:24:46Z</time>
      </trkpt>
      <trkpt lat="44.71939" lon="6.94616">
        <ele>2889</ele>
        <time>2021-12-16T09:25:24Z</time>
      </trkpt>
      <trkpt lat="44.71941" lon="6.94616">
        <ele>2889</ele>
        <time>2021-12-16T09:30:15Z</time>
      </trkpt>
      <trkpt lat="44.71941" lon="6.94617">
        <ele>2891</ele>
        <time>2021-12-16T09:31:00Z</time>
      </trkpt>
      <trkpt lat="44.7194" lon="6.94614">
        <ele>2891</ele>
        <time>2021-12-16T09:31:07Z</time>
      </trkpt>
      <trkpt lat="44.71939" lon="6.94615">
        <ele>2891</ele>
        <time>2021-12-16T09:31:25Z</time>
      </trkpt>
      <trkpt lat="44.71937" lon="6.94614">
        <ele>2887</ele>
        <time>2021-12-16T09:31:37Z</time>
      </trkpt>
      <trkpt lat="44.71936" lon="6.94618">
        <ele>2886</ele>
        <time>2021-12-16T09:31:42Z</time>
      </trkpt>
      <trkpt lat="44.71937" lon="6.94619">
        <ele>2884</ele>
        <time>2021-12-16T09:32:11Z</time>
      </trkpt>
      <trkpt lat="44.7194" lon="6.94618">
        <ele>2885</ele>
        <time>2021-12-16T09:32:13Z</time>
      </trkpt>
      <trkpt lat="44.7194" lon="6.94619">
        <ele>2887</ele>
        <time>2021-12-16T09:32:24Z</time>
      </trkpt>
      <trkpt lat="44.71938" lon="6.94619">
        <ele>2887</ele>
        <time>2021-12-16T09:32:45Z</time>
      </trkpt>
      <trkpt lat="44.71937" lon="6.94619">
        <ele>2886</ele>
        <time>2021-12-16T09:32:56Z</time>
      </trkpt>
      <trkpt lat="44.71938" lon="6.94621">
        <ele>2885</ele>
        <time>2021-12-16T09:33:53Z</time>
      </trkpt>
      <trkpt lat="44.71939" lon="6.9462">
        <ele>2885</ele>
        <time>2021-12-16T09:34:14Z</time>
      </trkpt>
      <trkpt lat="44.7194" lon="6.94624">
        <ele>2885</ele>
        <time>2021-12-16T09:34:23Z</time>
      </trkpt>
      <trkpt lat="44.71941" lon="6.94626">
        <ele>2885</ele>
        <time>2021-12-16T09:34:26Z</time>
      </trkpt>
      <trkpt lat="44.71943" lon="6.94627">
        <ele>2884</ele>
        <time>2021-12-16T09:34:27Z</time>
      </trkpt>
      <trkpt lat="44.71944" lon="6.94628">
        <ele>2884</ele>
        <time>2021-12-16T09:34:29Z</time>
      </trkpt>
      <trkpt lat="44.71949" lon="6.94631">
        <ele>2882</ele>
        <time>2021-12-16T09:34:33Z</time>
      </trkpt>
      <trkpt lat="44.71953" lon="6.9463">
        <ele>2879</ele>
        <time>2021-12-16T09:34:36Z</time>
      </trkpt>
      <trkpt lat="44.71954" lon="6.94633">
        <ele>2877</ele>
        <time>2021-12-16T09:34:37Z</time>
      </trkpt>
      <trkpt lat="44.71954" lon="6.94636">
        <ele>2876</ele>
        <time>2021-12-16T09:34:39Z</time>
      </trkpt>
      <trkpt lat="44.71953" lon="6.94638">
        <ele>2874</ele>
        <time>2021-12-16T09:34:42Z</time>
      </trkpt>
      <trkpt lat="44.71951" lon="6.94646">
        <ele>2870</ele>
        <time>2021-12-16T09:34:47Z</time>
      </trkpt>
      <trkpt lat="44.71953" lon="6.94645">
        <ele>2869</ele>
        <time>2021-12-16T09:34:52Z</time>
      </trkpt>
      <trkpt lat="44.71957" lon="6.94641">
        <ele>2867</ele>
        <time>2021-12-16T09:34:57Z</time>
      </trkpt>
      <trkpt lat="44.71959" lon="6.94641">
        <ele>2866</ele>
        <time>2021-12-16T09:35:04Z</time>
      </trkpt>
      <trkpt lat="44.71956" lon="6.94644">
        <ele>2866</ele>
        <time>2021-12-16T09:35:12Z</time>
      </trkpt>
      <trkpt lat="44.71956" lon="6.94643">
        <ele>2868</ele>
        <time>2021-12-16T09:35:38Z</time>
      </trkpt>
      <trkpt lat="44.71957" lon="6.94643">
        <ele>2869</ele>
        <time>2021-12-16T09:35:57Z</time>
      </trkpt>
      <trkpt lat="44.71957" lon="6.94645">
        <ele>2867</ele>
        <time>2021-12-16T09:36:27Z</time>
      </trkpt>
      <trkpt lat="44.7196" lon="6.9465">
        <ele>2868</ele>
        <time>2021-12-16T09:36:31Z</time>
      </trkpt>
      <trkpt lat="44.71961" lon="6.94663">
        <ele>2868</ele>
        <time>2021-12-16T09:36:33Z</time>
      </trkpt>
      <trkpt lat="44.71962" lon="6.94669">
        <ele>2868</ele>
        <time>2021-12-16T09:36:34Z</time>
      </trkpt>
      <trkpt lat="44.71976" lon="6.94687">
        <ele>2866</ele>
        <time>2021-12-16T09:36:38Z</time>
      </trkpt>
      <trkpt lat="44.71988" lon="6.94695">
        <ele>2863</ele>
        <time>2021-12-16T09:36:41Z</time>
      </trkpt>
      <trkpt lat="44.71992" lon="6.94675">
        <ele>2851</ele>
        <time>2021-12-16T09:36:42Z</time>
      </trkpt>
      <trkpt lat="44.72007" lon="6.94676">
        <ele>2840</ele>
        <time>2021-12-16T09:36:45Z</time>
      </trkpt>
      <trkpt lat="44.72011" lon="6.94678">
        <ele>2838</ele>
        <time>2021-12-16T09:36:46Z</time>
      </trkpt>
      <trkpt lat="44.72015" lon="6.94688">
        <ele>2835</ele>
        <time>2021-12-16T09:36:47Z</time>
      </trkpt>
      <trkpt lat="44.72025" lon="6.94701">
        <ele>2832</ele>
        <time>2021-12-16T09:36:49Z</time>
      </trkpt>
      <trkpt lat="44.7203" lon="6.94708">
        <ele>2829</ele>
        <time>2021-12-16T09:36:50Z</time>
      </trkpt>
      <trkpt lat="44.72033" lon="6.94717">
        <ele>2827</ele>
        <time>2021-12-16T09:36:51Z</time>
      </trkpt>
      <trkpt lat="44.72039" lon="6.94725">
        <ele>2824</ele>
        <time>2021-12-16T09:36:52Z</time>
      </trkpt>
      <trkpt lat="44.72044" lon="6.94732">
        <ele>2821</ele>
        <time>2021-12-16T09:36:53Z</time>
      </trkpt>
      <trkpt lat="44.7205" lon="6.94742">
        <ele>2818</ele>
        <time>2021-12-16T09:36:54Z</time>
      </trkpt>
      <trkpt lat="44.72069" lon="6.94766">
        <ele>2812</ele>
        <time>2021-12-16T09:36:57Z</time>
      </trkpt>
      <trkpt lat="44.72075" lon="6.94772">
        <ele>2810</ele>
        <time>2021-12-16T09:36:58Z</time>
      </trkpt>
      <trkpt lat="44.72082" lon="6.9478">
        <ele>2807</ele>
        <time>2021-12-16T09:36:59Z</time>
      </trkpt>
      <trkpt lat="44.72088" lon="6.94786">
        <ele>2805</ele>
        <time>2021-12-16T09:37:00Z</time>
      </trkpt>
      <trkpt lat="44.72117" lon="6.94836">
        <ele>2791</ele>
        <time>2021-12-16T09:37:06Z</time>
      </trkpt>
      <trkpt lat="44.72117" lon="6.94845">
        <ele>2787</ele>
        <time>2021-12-16T09:37:07Z</time>
      </trkpt>
      <trkpt lat="44.7212" lon="6.94853">
        <ele>2784</ele>
        <time>2021-12-16T09:37:08Z</time>
      </trkpt>
      <trkpt lat="44.72121" lon="6.94859">
        <ele>2782</ele>
        <time>2021-12-16T09:37:09Z</time>
      </trkpt>
      <trkpt lat="44.72119" lon="6.94864">
        <ele>2769</ele>
        <time>2021-12-16T09:37:11Z</time>
      </trkpt>
      <trkpt lat="44.72117" lon="6.94863">
        <ele>2739</ele>
        <time>2021-12-16T09:37:22Z</time>
      </trkpt>
      <trkpt lat="44.72112" lon="6.94854">
        <ele>2723</ele>
        <time>2021-12-16T09:38:20Z</time>
      </trkpt>
      <trkpt lat="44.72111" lon="6.94854">
        <ele>2715</ele>
        <time>2021-12-16T09:38:45Z</time>
      </trkpt>
      <trkpt lat="44.72113" lon="6.94857">
        <ele>2715</ele>
        <time>2021-12-16T09:38:50Z</time>
      </trkpt>
      <trkpt lat="44.72115" lon="6.94873">
        <ele>2711</ele>
        <time>2021-12-16T09:38:52Z</time>
      </trkpt>
      <trkpt lat="44.72115" lon="6.94894">
        <ele>2708</ele>
        <time>2021-12-16T09:38:54Z</time>
      </trkpt>
      <trkpt lat="44.72119" lon="6.94899">
        <ele>2703</ele>
        <time>2021-12-16T09:38:55Z</time>
      </trkpt>
      <trkpt lat="44.72126" lon="6.94916">
        <ele>2695</ele>
        <time>2021-12-16T09:38:57Z</time>
      </trkpt>
      <trkpt lat="44.7214" lon="6.94919">
        <ele>2688</ele>
        <time>2021-12-16T09:38:59Z</time>
      </trkpt>
      <trkpt lat="44.72146" lon="6.94917">
        <ele>2686</ele>
        <time>2021-12-16T09:39:00Z</time>
      </trkpt>
      <trkpt lat="44.7215" lon="6.9492">
        <ele>2683</ele>
        <time>2021-12-16T09:39:01Z</time>
      </trkpt>
      <trkpt lat="44.72151" lon="6.94926">
        <ele>2679</ele>
        <time>2021-12-16T09:39:02Z</time>
      </trkpt>
      <trkpt lat="44.72155" lon="6.9493">
        <ele>2675</ele>
        <time>2021-12-16T09:39:03Z</time>
      </trkpt>
      <trkpt lat="44.72159" lon="6.94931">
        <ele>2671</ele>
        <time>2021-12-16T09:39:04Z</time>
      </trkpt>
      <trkpt lat="44.72163" lon="6.94927">
        <ele>2667</ele>
        <time>2021-12-16T09:39:05Z</time>
      </trkpt>
      <trkpt lat="44.72177" lon="6.94912">
        <ele>2659</ele>
        <time>2021-12-16T09:39:08Z</time>
      </trkpt>
      <trkpt lat="44.72182" lon="6.94916">
        <ele>2657</ele>
        <time>2021-12-16T09:39:09Z</time>
      </trkpt>
      <trkpt lat="44.72195" lon="6.94925">
        <ele>2654</ele>
        <time>2021-12-16T09:39:11Z</time>
      </trkpt>
      <trkpt lat="44.72201" lon="6.94931">
        <ele>2651</ele>
        <time>2021-12-16T09:39:12Z</time>
      </trkpt>
      <trkpt lat="44.72206" lon="6.9494">
        <ele>2648</ele>
        <time>2021-12-16T09:39:13Z</time>
      </trkpt>
      <trkpt lat="44.72215" lon="6.94959">
        <ele>2643</ele>
        <time>2021-12-16T09:39:15Z</time>
      </trkpt>
      <trkpt lat="44.72209" lon="6.94974">
        <ele>2639</ele>
        <time>2021-12-16T09:39:17Z</time>
      </trkpt>
      <trkpt lat="44.72211" lon="6.94986">
        <ele>2635</ele>
        <time>2021-12-16T09:39:19Z</time>
      </trkpt>
      <trkpt lat="44.72212" lon="6.94992">
        <ele>2631</ele>
        <time>2021-12-16T09:39:20Z</time>
      </trkpt>
      <trkpt lat="44.72218" lon="6.94993">
        <ele>2628</ele>
        <time>2021-12-16T09:39:21Z</time>
      </trkpt>
      <trkpt lat="44.72235" lon="6.94977">
        <ele>2615</ele>
        <time>2021-12-16T09:39:26Z</time>
      </trkpt>
      <trkpt lat="44.72227" lon="6.94999">
        <ele>2604</ele>
        <time>2021-12-16T09:39:33Z</time>
      </trkpt>
      <trkpt lat="44.72225" lon="6.95005">
        <ele>2602</ele>
        <time>2021-12-16T09:39:34Z</time>
      </trkpt>
      <trkpt lat="44.72226" lon="6.95008">
        <ele>2601</ele>
        <time>2021-12-16T09:39:35Z</time>
      </trkpt>
      <trkpt lat="44.72241" lon="6.94996">
        <ele>2595</ele>
        <time>2021-12-16T09:39:41Z</time>
      </trkpt>
      <trkpt lat="44.72241" lon="6.95002">
        <ele>2595</ele>
        <time>2021-12-16T09:40:50Z</time>
      </trkpt>
      <trkpt lat="44.72241" lon="6.95002">
        <ele>2591</ele>
        <time>2021-12-16T09:41:03Z</time>
      </trkpt>
      <trkpt lat="44.72243" lon="6.95">
        <ele>2591</ele>
        <time>2021-12-16T09:41:17Z</time>
      </trkpt>
      <trkpt lat="44.72246" lon="6.95">
        <ele>2594</ele>
        <time>2021-12-16T09:41:19Z</time>
      </trkpt>
      <trkpt lat="44.72239" lon="6.95021">
        <ele>2595</ele>
        <time>2021-12-16T09:41:38Z</time>
      </trkpt>
      <trkpt lat="44.7224" lon="6.95032">
        <ele>2595</ele>
        <time>2021-12-16T09:41:40Z</time>
      </trkpt>
      <trkpt lat="44.72241" lon="6.95033">
        <ele>2593</ele>
        <time>2021-12-16T09:41:41Z</time>
      </trkpt>
      <trkpt lat="44.72244" lon="6.95034">
        <ele>2591</ele>
        <time>2021-12-16T09:41:42Z</time>
      </trkpt>
      <trkpt lat="44.72249" lon="6.95033">
        <ele>2588</ele>
        <time>2021-12-16T09:41:44Z</time>
      </trkpt>
      <trkpt lat="44.72254" lon="6.95028">
        <ele>2583</ele>
        <time>2021-12-16T09:41:46Z</time>
      </trkpt>
      <trkpt lat="44.7226" lon="6.9503">
        <ele>2576</ele>
        <time>2021-12-16T09:41:53Z</time>
      </trkpt>
      <trkpt lat="44.72264" lon="6.95036">
        <ele>2576</ele>
        <time>2021-12-16T09:41:55Z</time>
      </trkpt>
      <trkpt lat="44.72264" lon="6.95038">
        <ele>2576</ele>
        <time>2021-12-16T09:41:56Z</time>
      </trkpt>
      <trkpt lat="44.72265" lon="6.95041">
        <ele>2576</ele>
        <time>2021-12-16T09:41:59Z</time>
      </trkpt>
      <trkpt lat="44.72271" lon="6.95039">
        <ele>2572</ele>
        <time>2021-12-16T09:42:05Z</time>
      </trkpt>
      <trkpt lat="44.72269" lon="6.95048">
        <ele>2570</ele>
        <time>2021-12-16T09:42:12Z</time>
      </trkpt>
      <trkpt lat="44.72276" lon="6.95056">
        <ele>2567</ele>
        <time>2021-12-16T09:42:20Z</time>
      </trkpt>
      <trkpt lat="44.72279" lon="6.95059">
        <ele>2566</ele>
        <time>2021-12-16T09:42:22Z</time>
      </trkpt>
      <trkpt lat="44.72284" lon="6.95068">
        <ele>2564</ele>
        <time>2021-12-16T09:42:26Z</time>
      </trkpt>
      <trkpt lat="44.72286" lon="6.95069">
        <ele>2563</ele>
        <time>2021-12-16T09:42:27Z</time>
      </trkpt>
      <trkpt lat="44.72288" lon="6.9507">
        <ele>2562</ele>
        <time>2021-12-16T09:42:28Z</time>
      </trkpt>
      <trkpt lat="44.72289" lon="6.95077">
        <ele>2560</ele>
        <time>2021-12-16T09:42:30Z</time>
      </trkpt>
      <trkpt lat="44.72294" lon="6.95079">
        <ele>2556</ele>
        <time>2021-12-16T09:42:35Z</time>
      </trkpt>
      <trkpt lat="44.72297" lon="6.95083">
        <ele>2555</ele>
        <time>2021-12-16T09:42:36Z</time>
      </trkpt>
      <trkpt lat="44.72297" lon="6.95087">
        <ele>2554</ele>
        <time>2021-12-16T09:42:38Z</time>
      </trkpt>
      <trkpt lat="44.72299" lon="6.95088">
        <ele>2553</ele>
        <time>2021-12-16T09:42:40Z</time>
      </trkpt>
      <trkpt lat="44.72302" lon="6.95089">
        <ele>2551</ele>
        <time>2021-12-16T09:42:42Z</time>
      </trkpt>
      <trkpt lat="44.72302" lon="6.95094">
        <ele>2549</ele>
        <time>2021-12-16T09:42:44Z</time>
      </trkpt>
      <trkpt lat="44.72303" lon="6.95099">
        <ele>2546</ele>
        <time>2021-12-16T09:42:46Z</time>
      </trkpt>
      <trkpt lat="44.72305" lon="6.95101">
        <ele>2545</ele>
        <time>2021-12-16T09:42:47Z</time>
      </trkpt>
      <trkpt lat="44.7231" lon="6.95118">
        <ele>2535</ele>
        <time>2021-12-16T09:42:52Z</time>
      </trkpt>
      <trkpt lat="44.7231" lon="6.95122">
        <ele>2533</ele>
        <time>2021-12-16T09:42:53Z</time>
      </trkpt>
      <trkpt lat="44.72312" lon="6.95126">
        <ele>2529</ele>
        <time>2021-12-16T09:42:57Z</time>
      </trkpt>
      <trkpt lat="44.7231" lon="6.95133">
        <ele>2526</ele>
        <time>2021-12-16T09:43:41Z</time>
      </trkpt>
      <trkpt lat="44.72308" lon="6.95135">
        <ele>2520</ele>
        <time>2021-12-16T09:43:43Z</time>
      </trkpt>
      <trkpt lat="44.72307" lon="6.9513">
        <ele>2515</ele>
        <time>2021-12-16T09:43:50Z</time>
      </trkpt>
      <trkpt lat="44.72304" lon="6.95129">
        <ele>2511</ele>
        <time>2021-12-16T09:43:52Z</time>
      </trkpt>
      <trkpt lat="44.723" lon="6.95156">
        <ele>2506</ele>
        <time>2021-12-16T09:44:14Z</time>
      </trkpt>
      <trkpt lat="44.72302" lon="6.95153">
        <ele>2506</ele>
        <time>2021-12-16T09:44:16Z</time>
      </trkpt>
      <trkpt lat="44.72304" lon="6.95143">
        <ele>2508</ele>
        <time>2021-12-16T09:44:34Z</time>
      </trkpt>
      <trkpt lat="44.72305" lon="6.9514">
        <ele>2508</ele>
        <time>2021-12-16T09:44:35Z</time>
      </trkpt>
      <trkpt lat="44.72304" lon="6.9514">
        <ele>2509</ele>
        <time>2021-12-16T09:44:59Z</time>
      </trkpt>
      <trkpt lat="44.723" lon="6.95145">
        <ele>2508</ele>
        <time>2021-12-16T09:45:02Z</time>
      </trkpt>
      <trkpt lat="44.72297" lon="6.95149">
        <ele>2508</ele>
        <time>2021-12-16T09:45:04Z</time>
      </trkpt>
      <trkpt lat="44.72291" lon="6.95151">
        <ele>2509</ele>
        <time>2021-12-16T09:45:09Z</time>
      </trkpt>
      <trkpt lat="44.72285" lon="6.95158">
        <ele>2510</ele>
        <time>2021-12-16T09:45:24Z</time>
      </trkpt>
      <trkpt lat="44.72281" lon="6.95172">
        <ele>2510</ele>
        <time>2021-12-16T09:45:26Z</time>
      </trkpt>
      <trkpt lat="44.72279" lon="6.95177">
        <ele>2510</ele>
        <time>2021-12-16T09:45:27Z</time>
      </trkpt>
      <trkpt lat="44.72277" lon="6.9518">
        <ele>2508</ele>
        <time>2021-12-16T09:45:29Z</time>
      </trkpt>
      <trkpt lat="44.72276" lon="6.95171">
        <ele>2499</ele>
        <time>2021-12-16T09:45:57Z</time>
      </trkpt>
      <trkpt lat="44.72277" lon="6.95167">
        <ele>2496</ele>
        <time>2021-12-16T09:45:59Z</time>
      </trkpt>
      <trkpt lat="44.7228" lon="6.95172">
        <ele>2490</ele>
        <time>2021-12-16T09:46:12Z</time>
      </trkpt>
      <trkpt lat="44.72277" lon="6.95184">
        <ele>2491</ele>
        <time>2021-12-16T09:46:15Z</time>
      </trkpt>
      <trkpt lat="44.72276" lon="6.95198">
        <ele>2494</ele>
        <time>2021-12-16T09:46:19Z</time>
      </trkpt>
      <trkpt lat="44.72273" lon="6.95197">
        <ele>2494</ele>
        <time>2021-12-16T09:46:30Z</time>
      </trkpt>
      <trkpt lat="44.72272" lon="6.95201">
        <ele>2499</ele>
        <time>2021-12-16T09:46:35Z</time>
      </trkpt>
      <trkpt lat="44.72276" lon="6.95208">
        <ele>2501</ele>
        <time>2021-12-16T09:47:06Z</time>
      </trkpt>
      <trkpt lat="44.72277" lon="6.95211">
        <ele>2501</ele>
        <time>2021-12-16T09:47:07Z</time>
      </trkpt>
      <trkpt lat="44.72278" lon="6.95214">
        <ele>2500</ele>
        <time>2021-12-16T09:47:08Z</time>
      </trkpt>
      <trkpt lat="44.7229" lon="6.95221">
        <ele>2496</ele>
        <time>2021-12-16T09:47:11Z</time>
      </trkpt>
      <trkpt lat="44.72294" lon="6.95227">
        <ele>2494</ele>
        <time>2021-12-16T09:47:12Z</time>
      </trkpt>
      <trkpt lat="44.72295" lon="6.95236">
        <ele>2491</ele>
        <time>2021-12-16T09:47:13Z</time>
      </trkpt>
      <trkpt lat="44.72294" lon="6.95246">
        <ele>2488</ele>
        <time>2021-12-16T09:47:14Z</time>
      </trkpt>
      <trkpt lat="44.72293" lon="6.95255">
        <ele>2486</ele>
        <time>2021-12-16T09:47:15Z</time>
      </trkpt>
      <trkpt lat="44.72291" lon="6.95262">
        <ele>2483</ele>
        <time>2021-12-16T09:47:16Z</time>
      </trkpt>
      <trkpt lat="44.72292" lon="6.95266">
        <ele>2481</ele>
        <time>2021-12-16T09:47:17Z</time>
      </trkpt>
      <trkpt lat="44.72298" lon="6.9527">
        <ele>2475</ele>
        <time>2021-12-16T09:47:19Z</time>
      </trkpt>
      <trkpt lat="44.72307" lon="6.95274">
        <ele>2471</ele>
        <time>2021-12-16T09:47:21Z</time>
      </trkpt>
      <trkpt lat="44.72312" lon="6.95275">
        <ele>2469</ele>
        <time>2021-12-16T09:47:22Z</time>
      </trkpt>
      <trkpt lat="44.72322" lon="6.95285">
        <ele>2465</ele>
        <time>2021-12-16T09:47:24Z</time>
      </trkpt>
      <trkpt lat="44.72326" lon="6.95291">
        <ele>2463</ele>
        <time>2021-12-16T09:47:25Z</time>
      </trkpt>
      <trkpt lat="44.72326" lon="6.95297">
        <ele>2461</ele>
        <time>2021-12-16T09:47:26Z</time>
      </trkpt>
      <trkpt lat="44.72329" lon="6.95303">
        <ele>2459</ele>
        <time>2021-12-16T09:47:27Z</time>
      </trkpt>
      <trkpt lat="44.72333" lon="6.95304">
        <ele>2457</ele>
        <time>2021-12-16T09:47:28Z</time>
      </trkpt>
      <trkpt lat="44.72338" lon="6.95305">
        <ele>2456</ele>
        <time>2021-12-16T09:47:29Z</time>
      </trkpt>
      <trkpt lat="44.72341" lon="6.9531">
        <ele>2454</ele>
        <time>2021-12-16T09:47:30Z</time>
      </trkpt>
      <trkpt lat="44.72345" lon="6.95315">
        <ele>2451</ele>
        <time>2021-12-16T09:47:31Z</time>
      </trkpt>
      <trkpt lat="44.72353" lon="6.95324">
        <ele>2446</ele>
        <time>2021-12-16T09:47:33Z</time>
      </trkpt>
      <trkpt lat="44.72367" lon="6.95367">
        <ele>2432</ele>
        <time>2021-12-16T09:47:43Z</time>
      </trkpt>
      <trkpt lat="44.72365" lon="6.95355">
        <ele>2432</ele>
        <time>2021-12-16T09:47:54Z</time>
      </trkpt>
      <trkpt lat="44.72366" lon="6.95342">
        <ele>2429</ele>
        <time>2021-12-16T09:47:56Z</time>
      </trkpt>
      <trkpt lat="44.72369" lon="6.95328">
        <ele>2425</ele>
        <time>2021-12-16T09:48:00Z</time>
      </trkpt>
      <trkpt lat="44.72371" lon="6.95327">
        <ele>2421</ele>
        <time>2021-12-16T09:48:58Z</time>
      </trkpt>
      <trkpt lat="44.72375" lon="6.9533">
        <ele>2418</ele>
        <time>2021-12-16T09:48:59Z</time>
      </trkpt>
      <trkpt lat="44.72379" lon="6.95336">
        <ele>2417</ele>
        <time>2021-12-16T09:49:00Z</time>
      </trkpt>
      <trkpt lat="44.72413" lon="6.95373">
        <ele>2412</ele>
        <time>2021-12-16T09:49:06Z</time>
      </trkpt>
      <trkpt lat="44.72429" lon="6.954">
        <ele>2409</ele>
        <time>2021-12-16T09:49:09Z</time>
      </trkpt>
      <trkpt lat="44.72435" lon="6.9541">
        <ele>2406</ele>
        <time>2021-12-16T09:49:10Z</time>
      </trkpt>
      <trkpt lat="44.7244" lon="6.95419">
        <ele>2402</ele>
        <time>2021-12-16T09:49:11Z</time>
      </trkpt>
      <trkpt lat="44.72446" lon="6.95431">
        <ele>2400</ele>
        <time>2021-12-16T09:49:12Z</time>
      </trkpt>
      <trkpt lat="44.72449" lon="6.95444">
        <ele>2396</ele>
        <time>2021-12-16T09:49:13Z</time>
      </trkpt>
      <trkpt lat="44.72453" lon="6.95456">
        <ele>2393</ele>
        <time>2021-12-16T09:49:14Z</time>
      </trkpt>
      <trkpt lat="44.72457" lon="6.95467">
        <ele>2388</ele>
        <time>2021-12-16T09:49:15Z</time>
      </trkpt>
      <trkpt lat="44.72484" lon="6.95532">
        <ele>2367</ele>
        <time>2021-12-16T09:49:21Z</time>
      </trkpt>
      <trkpt lat="44.72486" lon="6.95541">
        <ele>2365</ele>
        <time>2021-12-16T09:49:22Z</time>
      </trkpt>
      <trkpt lat="44.72487" lon="6.9555">
        <ele>2362</ele>
        <time>2021-12-16T09:49:24Z</time>
      </trkpt>
      <trkpt lat="44.72489" lon="6.95555">
        <ele>2356</ele>
        <time>2021-12-16T09:49:36Z</time>
      </trkpt>
      <trkpt lat="44.72487" lon="6.95553">
        <ele>2354</ele>
        <time>2021-12-16T09:50:26Z</time>
      </trkpt>
      <trkpt lat="44.72488" lon="6.9554">
        <ele>2349</ele>
        <time>2021-12-16T09:51:37Z</time>
      </trkpt>
      <trkpt lat="44.7249" lon="6.95543">
        <ele>2348</ele>
        <time>2021-12-16T09:51:49Z</time>
      </trkpt>
      <trkpt lat="44.72489" lon="6.95548">
        <ele>2348</ele>
        <time>2021-12-16T09:59:06Z</time>
      </trkpt>
      <trkpt lat="44.72489" lon="6.95546">
        <ele>2348</ele>
        <time>2021-12-16T09:59:07Z</time>
      </trkpt>
      <trkpt lat="44.72489" lon="6.95544">
        <ele>2348</ele>
        <time>2021-12-16T09:59:08Z</time>
      </trkpt>
      <trkpt lat="44.72485" lon="6.95557">
        <ele>2349</ele>
        <time>2021-12-16T10:02:31Z</time>
      </trkpt>
      <trkpt lat="44.72468" lon="6.95572">
        <ele>2350</ele>
        <time>2021-12-16T10:03:05Z</time>
      </trkpt>
      <trkpt lat="44.72467" lon="6.95576">
        <ele>2354</ele>
        <time>2021-12-16T10:03:09Z</time>
      </trkpt>
      <trkpt lat="44.72457" lon="6.95608">
        <ele>2353</ele>
        <time>2021-12-16T10:03:56Z</time>
      </trkpt>
      <trkpt lat="44.72454" lon="6.95622">
        <ele>2360</ele>
        <time>2021-12-16T10:04:12Z</time>
      </trkpt>
      <trkpt lat="44.7244" lon="6.95641">
        <ele>2364</ele>
        <time>2021-12-16T10:04:42Z</time>
      </trkpt>
      <trkpt lat="44.72438" lon="6.95645">
        <ele>2364</ele>
        <time>2021-12-16T10:04:50Z</time>
      </trkpt>
      <trkpt lat="44.72429" lon="6.95655">
        <ele>2366</ele>
        <time>2021-12-16T10:05:06Z</time>
      </trkpt>
      <trkpt lat="44.72419" lon="6.95682">
        <ele>2369</ele>
        <time>2021-12-16T10:05:36Z</time>
      </trkpt>
      <trkpt lat="44.7241" lon="6.95695">
        <ele>2369</ele>
        <time>2021-12-16T10:06:06Z</time>
      </trkpt>
      <trkpt lat="44.72401" lon="6.9571">
        <ele>2368</ele>
        <time>2021-12-16T10:06:28Z</time>
      </trkpt>
      <trkpt lat="44.72396" lon="6.95724">
        <ele>2372</ele>
        <time>2021-12-16T10:06:50Z</time>
      </trkpt>
      <trkpt lat="44.72394" lon="6.95725">
        <ele>2374</ele>
        <time>2021-12-16T10:06:53Z</time>
      </trkpt>
      <trkpt lat="44.72384" lon="6.95733">
        <ele>2377</ele>
        <time>2021-12-16T10:07:07Z</time>
      </trkpt>
      <trkpt lat="44.72378" lon="6.95743">
        <ele>2379</ele>
        <time>2021-12-16T10:07:21Z</time>
      </trkpt>
      <trkpt lat="44.7237" lon="6.95752">
        <ele>2383</ele>
        <time>2021-12-16T10:07:37Z</time>
      </trkpt>
      <trkpt lat="44.72358" lon="6.95777">
        <ele>2387</ele>
        <time>2021-12-16T10:08:11Z</time>
      </trkpt>
      <trkpt lat="44.72353" lon="6.95809">
        <ele>2387</ele>
        <time>2021-12-16T10:08:43Z</time>
      </trkpt>
      <trkpt lat="44.72354" lon="6.95825">
        <ele>2387</ele>
        <time>2021-12-16T10:09:00Z</time>
      </trkpt>
      <trkpt lat="44.72347" lon="6.95837">
        <ele>2387</ele>
        <time>2021-12-16T10:09:15Z</time>
      </trkpt>
      <trkpt lat="44.72346" lon="6.9584">
        <ele>2383</ele>
        <time>2021-12-16T10:09:19Z</time>
      </trkpt>
      <trkpt lat="44.72345" lon="6.95843">
        <ele>2380</ele>
        <time>2021-12-16T10:09:21Z</time>
      </trkpt>
      <trkpt lat="44.72341" lon="6.95834">
        <ele>2376</ele>
        <time>2021-12-16T10:09:32Z</time>
      </trkpt>
      <trkpt lat="44.72325" lon="6.95864">
        <ele>2376</ele>
        <time>2021-12-16T10:09:53Z</time>
      </trkpt>
      <trkpt lat="44.72318" lon="6.95895">
        <ele>2375</ele>
        <time>2021-12-16T10:10:30Z</time>
      </trkpt>
      <trkpt lat="44.72307" lon="6.95917">
        <ele>2392</ele>
        <time>2021-12-16T10:11:03Z</time>
      </trkpt>
      <trkpt lat="44.72298" lon="6.95931">
        <ele>2394</ele>
        <time>2021-12-16T10:11:21Z</time>
      </trkpt>
      <trkpt lat="44.72291" lon="6.95941">
        <ele>2393</ele>
        <time>2021-12-16T10:11:32Z</time>
      </trkpt>
      <trkpt lat="44.72285" lon="6.95955">
        <ele>2391</ele>
        <time>2021-12-16T10:11:49Z</time>
      </trkpt>
      <trkpt lat="44.72275" lon="6.9596">
        <ele>2391</ele>
        <time>2021-12-16T10:12:13Z</time>
      </trkpt>
      <trkpt lat="44.72269" lon="6.95974">
        <ele>2394</ele>
        <time>2021-12-16T10:12:43Z</time>
      </trkpt>
      <trkpt lat="44.72269" lon="6.95983">
        <ele>2392</ele>
        <time>2021-12-16T10:12:47Z</time>
      </trkpt>
      <trkpt lat="44.72266" lon="6.95991">
        <ele>2387</ele>
        <time>2021-12-16T10:12:53Z</time>
      </trkpt>
      <trkpt lat="44.72266" lon="6.95996">
        <ele>2385</ele>
        <time>2021-12-16T10:12:55Z</time>
      </trkpt>
      <trkpt lat="44.72262" lon="6.95981">
        <ele>2393</ele>
        <time>2021-12-16T10:12:57Z</time>
      </trkpt>
      <trkpt lat="44.7226" lon="6.95981">
        <ele>2397</ele>
        <time>2021-12-16T10:13:00Z</time>
      </trkpt>
      <trkpt lat="44.72246" lon="6.95988">
        <ele>2404</ele>
        <time>2021-12-16T10:13:53Z</time>
      </trkpt>
      <trkpt lat="44.72244" lon="6.95995">
        <ele>2405</ele>
        <time>2021-12-16T10:13:56Z</time>
      </trkpt>
      <trkpt lat="44.72243" lon="6.96007">
        <ele>2405</ele>
        <time>2021-12-16T10:14:00Z</time>
      </trkpt>
      <trkpt lat="44.72235" lon="6.96003">
        <ele>2405</ele>
        <time>2021-12-16T10:14:20Z</time>
      </trkpt>
      <trkpt lat="44.72235" lon="6.95999">
        <ele>2406</ele>
        <time>2021-12-16T10:14:22Z</time>
      </trkpt>
      <trkpt lat="44.72231" lon="6.96011">
        <ele>2413</ele>
        <time>2021-12-16T10:14:48Z</time>
      </trkpt>
      <trkpt lat="44.72223" lon="6.96018">
        <ele>2418</ele>
        <time>2021-12-16T10:15:12Z</time>
      </trkpt>
      <trkpt lat="44.72213" lon="6.96023">
        <ele>2420</ele>
        <time>2021-12-16T10:15:40Z</time>
      </trkpt>
      <trkpt lat="44.7221" lon="6.96026">
        <ele>2421</ele>
        <time>2021-12-16T10:15:43Z</time>
      </trkpt>
      <trkpt lat="44.72205" lon="6.96028">
        <ele>2422</ele>
        <time>2021-12-16T10:15:45Z</time>
      </trkpt>
      <trkpt lat="44.72188" lon="6.96012">
        <ele>2424</ele>
        <time>2021-12-16T10:16:31Z</time>
      </trkpt>
      <trkpt lat="44.72183" lon="6.96028">
        <ele>2433</ele>
        <time>2021-12-16T10:16:59Z</time>
      </trkpt>
      <trkpt lat="44.72173" lon="6.96029">
        <ele>2439</ele>
        <time>2021-12-16T10:17:34Z</time>
      </trkpt>
      <trkpt lat="44.72165" lon="6.96021">
        <ele>2441</ele>
        <time>2021-12-16T10:17:47Z</time>
      </trkpt>
      <trkpt lat="44.72163" lon="6.96013">
        <ele>2442</ele>
        <time>2021-12-16T10:17:55Z</time>
      </trkpt>
      <trkpt lat="44.72156" lon="6.96">
        <ele>2446</ele>
        <time>2021-12-16T10:18:23Z</time>
      </trkpt>
      <trkpt lat="44.72144" lon="6.96009">
        <ele>2452</ele>
        <time>2021-12-16T10:18:41Z</time>
      </trkpt>
      <trkpt lat="44.72148" lon="6.96026">
        <ele>2453</ele>
        <time>2021-12-16T10:19:25Z</time>
      </trkpt>
      <trkpt lat="44.72142" lon="6.96032">
        <ele>2457</ele>
        <time>2021-12-16T10:19:31Z</time>
      </trkpt>
      <trkpt lat="44.72131" lon="6.96032">
        <ele>2460</ele>
        <time>2021-12-16T10:19:58Z</time>
      </trkpt>
      <trkpt lat="44.72123" lon="6.96018">
        <ele>2459</ele>
        <time>2021-12-16T10:20:15Z</time>
      </trkpt>
      <trkpt lat="44.72123" lon="6.96032">
        <ele>2461</ele>
        <time>2021-12-16T10:20:48Z</time>
      </trkpt>
      <trkpt lat="44.7213" lon="6.96048">
        <ele>2461</ele>
        <time>2021-12-16T10:21:30Z</time>
      </trkpt>
      <trkpt lat="44.72129" lon="6.96061">
        <ele>2463</ele>
        <time>2021-12-16T10:22:01Z</time>
      </trkpt>
      <trkpt lat="44.72129" lon="6.96063">
        <ele>2465</ele>
        <time>2021-12-16T10:22:03Z</time>
      </trkpt>
      <trkpt lat="44.7212" lon="6.96057">
        <ele>2469</ele>
        <time>2021-12-16T10:22:33Z</time>
      </trkpt>
      <trkpt lat="44.72102" lon="6.96043">
        <ele>2472</ele>
        <time>2021-12-16T10:23:10Z</time>
      </trkpt>
      <trkpt lat="44.72098" lon="6.96041">
        <ele>2472</ele>
        <time>2021-12-16T10:23:17Z</time>
      </trkpt>
      <trkpt lat="44.72095" lon="6.96037">
        <ele>2473</ele>
        <time>2021-12-16T10:23:21Z</time>
      </trkpt>
      <trkpt lat="44.72089" lon="6.96035">
        <ele>2472</ele>
        <time>2021-12-16T10:23:32Z</time>
      </trkpt>
      <trkpt lat="44.72087" lon="6.96034">
        <ele>2470</ele>
        <time>2021-12-16T10:23:36Z</time>
      </trkpt>
      <trkpt lat="44.72087" lon="6.9603">
        <ele>2468</ele>
        <time>2021-12-16T10:23:40Z</time>
      </trkpt>
      <trkpt lat="44.72085" lon="6.96027">
        <ele>2467</ele>
        <time>2021-12-16T10:23:45Z</time>
      </trkpt>
      <trkpt lat="44.72082" lon="6.96029">
        <ele>2466</ele>
        <time>2021-12-16T10:24:22Z</time>
      </trkpt>
      <trkpt lat="44.72082" lon="6.96034">
        <ele>2469</ele>
        <time>2021-12-16T10:24:25Z</time>
      </trkpt>
      <trkpt lat="44.72084" lon="6.96037">
        <ele>2470</ele>
        <time>2021-12-16T10:24:27Z</time>
      </trkpt>
      <trkpt lat="44.72083" lon="6.9604">
        <ele>2474</ele>
        <time>2021-12-16T10:24:34Z</time>
      </trkpt>
      <trkpt lat="44.72082" lon="6.96045">
        <ele>2479</ele>
        <time>2021-12-16T10:24:37Z</time>
      </trkpt>
      <trkpt lat="44.72079" lon="6.96044">
        <ele>2480</ele>
        <time>2021-12-16T10:24:40Z</time>
      </trkpt>
      <trkpt lat="44.72073" lon="6.96055">
        <ele>2486</ele>
        <time>2021-12-16T10:25:35Z</time>
      </trkpt>
      <trkpt lat="44.72068" lon="6.96045">
        <ele>2490</ele>
        <time>2021-12-16T10:26:19Z</time>
      </trkpt>
      <trkpt lat="44.72067" lon="6.9604">
        <ele>2491</ele>
        <time>2021-12-16T10:26:21Z</time>
      </trkpt>
      <trkpt lat="44.72065" lon="6.96038">
        <ele>2495</ele>
        <time>2021-12-16T10:26:35Z</time>
      </trkpt>
      <trkpt lat="44.72063" lon="6.96041">
        <ele>2494</ele>
        <time>2021-12-16T10:26:37Z</time>
      </trkpt>
      <trkpt lat="44.72058" lon="6.96049">
        <ele>2495</ele>
        <time>2021-12-16T10:26:48Z</time>
      </trkpt>
      <trkpt lat="44.72056" lon="6.96049">
        <ele>2496</ele>
        <time>2021-12-16T10:27:47Z</time>
      </trkpt>
      <trkpt lat="44.72051" lon="6.96039">
        <ele>2500</ele>
        <time>2021-12-16T10:27:55Z</time>
      </trkpt>
      <trkpt lat="44.72052" lon="6.96034">
        <ele>2502</ele>
        <time>2021-12-16T10:27:57Z</time>
      </trkpt>
      <trkpt lat="44.72046" lon="6.96042">
        <ele>2503</ele>
        <time>2021-12-16T10:28:09Z</time>
      </trkpt>
      <trkpt lat="44.72036" lon="6.9605">
        <ele>2499</ele>
        <time>2021-12-16T10:28:37Z</time>
      </trkpt>
      <trkpt lat="44.72028" lon="6.96048">
        <ele>2501</ele>
        <time>2021-12-16T10:28:50Z</time>
      </trkpt>
      <trkpt lat="44.72005" lon="6.96044">
        <ele>2510</ele>
        <time>2021-12-16T10:29:25Z</time>
      </trkpt>
      <trkpt lat="44.72002" lon="6.96044">
        <ele>2512</ele>
        <time>2021-12-16T10:29:28Z</time>
      </trkpt>
      <trkpt lat="44.71993" lon="6.96046">
        <ele>2514</ele>
        <time>2021-12-16T10:29:43Z</time>
      </trkpt>
      <trkpt lat="44.7198" lon="6.96049">
        <ele>2517</ele>
        <time>2021-12-16T10:30:10Z</time>
      </trkpt>
      <trkpt lat="44.71972" lon="6.96042">
        <ele>2521</ele>
        <time>2021-12-16T10:30:29Z</time>
      </trkpt>
      <trkpt lat="44.71953" lon="6.96052">
        <ele>2533</ele>
        <time>2021-12-16T10:31:08Z</time>
      </trkpt>
      <trkpt lat="44.71942" lon="6.96079">
        <ele>2538</ele>
        <time>2021-12-16T10:31:53Z</time>
      </trkpt>
      <trkpt lat="44.71941" lon="6.96082">
        <ele>2537</ele>
        <time>2021-12-16T10:31:56Z</time>
      </trkpt>
      <trkpt lat="44.71932" lon="6.96081">
        <ele>2536</ele>
        <time>2021-12-16T10:32:25Z</time>
      </trkpt>
      <trkpt lat="44.71923" lon="6.96072">
        <ele>2532</ele>
        <time>2021-12-16T10:32:39Z</time>
      </trkpt>
      <trkpt lat="44.71917" lon="6.9606">
        <ele>2532</ele>
        <time>2021-12-16T10:32:57Z</time>
      </trkpt>
      <trkpt lat="44.71909" lon="6.96047">
        <ele>2528</ele>
        <time>2021-12-16T10:33:13Z</time>
      </trkpt>
      <trkpt lat="44.719" lon="6.96048">
        <ele>2535</ele>
        <time>2021-12-16T10:33:44Z</time>
      </trkpt>
      <trkpt lat="44.71893" lon="6.9604">
        <ele>2544</ele>
        <time>2021-12-16T10:34:05Z</time>
      </trkpt>
      <trkpt lat="44.71874" lon="6.96038">
        <ele>2548</ele>
        <time>2021-12-16T10:34:53Z</time>
      </trkpt>
      <trkpt lat="44.71867" lon="6.96026">
        <ele>2550</ele>
        <time>2021-12-16T10:35:11Z</time>
      </trkpt>
      <trkpt lat="44.71859" lon="6.96036">
        <ele>2552</ele>
        <time>2021-12-16T10:35:31Z</time>
      </trkpt>
      <trkpt lat="44.71849" lon="6.96036">
        <ele>2555</ele>
        <time>2021-12-16T10:35:50Z</time>
      </trkpt>
      <trkpt lat="44.71847" lon="6.96035">
        <ele>2556</ele>
        <time>2021-12-16T10:35:53Z</time>
      </trkpt>
      <trkpt lat="44.7184" lon="6.96022">
        <ele>2558</ele>
        <time>2021-12-16T10:36:05Z</time>
      </trkpt>
      <trkpt lat="44.71838" lon="6.96021">
        <ele>2559</ele>
        <time>2021-12-16T10:36:08Z</time>
      </trkpt>
      <trkpt lat="44.71829" lon="6.96015">
        <ele>2559</ele>
        <time>2021-12-16T10:36:38Z</time>
      </trkpt>
      <trkpt lat="44.71827" lon="6.96014">
        <ele>2560</ele>
        <time>2021-12-16T10:36:42Z</time>
      </trkpt>
      <trkpt lat="44.71818" lon="6.96009">
        <ele>2563</ele>
        <time>2021-12-16T10:37:16Z</time>
      </trkpt>
      <trkpt lat="44.71816" lon="6.95999">
        <ele>2565</ele>
        <time>2021-12-16T10:37:47Z</time>
      </trkpt>
      <trkpt lat="44.71812" lon="6.9601">
        <ele>2566</ele>
        <time>2021-12-16T10:38:58Z</time>
      </trkpt>
      <trkpt lat="44.71811" lon="6.9601">
        <ele>2566</ele>
        <time>2021-12-16T10:39:00Z</time>
      </trkpt>
      <trkpt lat="44.71808" lon="6.96014">
        <ele>2567</ele>
        <time>2021-12-16T10:39:06Z</time>
      </trkpt>
      <trkpt lat="44.71804" lon="6.9602">
        <ele>2570</ele>
        <time>2021-12-16T10:39:17Z</time>
      </trkpt>
      <trkpt lat="44.71799" lon="6.96032">
        <ele>2572</ele>
        <time>2021-12-16T10:39:47Z</time>
      </trkpt>
      <trkpt lat="44.71788" lon="6.96026">
        <ele>2573</ele>
        <time>2021-12-16T10:40:24Z</time>
      </trkpt>
      <trkpt lat="44.71779" lon="6.96021">
        <ele>2574</ele>
        <time>2021-12-16T10:40:35Z</time>
      </trkpt>
      <trkpt lat="44.71774" lon="6.9602">
        <ele>2574</ele>
        <time>2021-12-16T10:40:41Z</time>
      </trkpt>
      <trkpt lat="44.71772" lon="6.96019">
        <ele>2573</ele>
        <time>2021-12-16T10:40:46Z</time>
      </trkpt>
      <trkpt lat="44.71768" lon="6.96007">
        <ele>2574</ele>
        <time>2021-12-16T10:41:03Z</time>
      </trkpt>
      <trkpt lat="44.71772" lon="6.95991">
        <ele>2581</ele>
        <time>2021-12-16T10:41:21Z</time>
      </trkpt>
      <trkpt lat="44.71773" lon="6.95989">
        <ele>2584</ele>
        <time>2021-12-16T10:41:23Z</time>
      </trkpt>
      <trkpt lat="44.71774" lon="6.95986">
        <ele>2585</ele>
        <time>2021-12-16T10:41:26Z</time>
      </trkpt>
      <trkpt lat="44.71778" lon="6.95972">
        <ele>2591</ele>
        <time>2021-12-16T10:41:45Z</time>
      </trkpt>
      <trkpt lat="44.71783" lon="6.95955">
        <ele>2598</ele>
        <time>2021-12-16T10:42:10Z</time>
      </trkpt>
      <trkpt lat="44.71773" lon="6.95954">
        <ele>2596</ele>
        <time>2021-12-16T10:42:57Z</time>
      </trkpt>
      <trkpt lat="44.71775" lon="6.95952">
        <ele>2595</ele>
        <time>2021-12-16T10:42:58Z</time>
      </trkpt>
      <trkpt lat="44.7177" lon="6.95955">
        <ele>2594</ele>
        <time>2021-12-16T10:43:04Z</time>
      </trkpt>
      <trkpt lat="44.71768" lon="6.95953">
        <ele>2594</ele>
        <time>2021-12-16T10:43:07Z</time>
      </trkpt>
      <trkpt lat="44.71761" lon="6.95948">
        <ele>2593</ele>
        <time>2021-12-16T10:43:14Z</time>
      </trkpt>
      <trkpt lat="44.71758" lon="6.95948">
        <ele>2593</ele>
        <time>2021-12-16T10:43:20Z</time>
      </trkpt>
      <trkpt lat="44.71751" lon="6.9596">
        <ele>2599</ele>
        <time>2021-12-16T10:43:50Z</time>
      </trkpt>
      <trkpt lat="44.71751" lon="6.95953">
        <ele>2601</ele>
        <time>2021-12-16T10:44:09Z</time>
      </trkpt>
      <trkpt lat="44.71756" lon="6.95947">
        <ele>2600</ele>
        <time>2021-12-16T10:44:17Z</time>
      </trkpt>
      <trkpt lat="44.71758" lon="6.95931">
        <ele>2601</ele>
        <time>2021-12-16T10:44:39Z</time>
      </trkpt>
      <trkpt lat="44.71762" lon="6.95917">
        <ele>2604</ele>
        <time>2021-12-16T10:45:01Z</time>
      </trkpt>
      <trkpt lat="44.71753" lon="6.95912">
        <ele>2605</ele>
        <time>2021-12-16T10:45:30Z</time>
      </trkpt>
      <trkpt lat="44.71743" lon="6.95914">
        <ele>2607</ele>
        <time>2021-12-16T10:45:52Z</time>
      </trkpt>
      <trkpt lat="44.71742" lon="6.95901">
        <ele>2613</ele>
        <time>2021-12-16T10:46:35Z</time>
      </trkpt>
      <trkpt lat="44.71751" lon="6.95887">
        <ele>2618</ele>
        <time>2021-12-16T10:46:56Z</time>
      </trkpt>
      <trkpt lat="44.71741" lon="6.95888">
        <ele>2618</ele>
        <time>2021-12-16T10:47:29Z</time>
      </trkpt>
      <trkpt lat="44.71739" lon="6.95889">
        <ele>2618</ele>
        <time>2021-12-16T10:47:32Z</time>
      </trkpt>
      <trkpt lat="44.71731" lon="6.95893">
        <ele>2618</ele>
        <time>2021-12-16T10:47:48Z</time>
      </trkpt>
      <trkpt lat="44.71734" lon="6.95879">
        <ele>2621</ele>
        <time>2021-12-16T10:48:54Z</time>
      </trkpt>
      <trkpt lat="44.7174" lon="6.9587">
        <ele>2623</ele>
        <time>2021-12-16T10:48:58Z</time>
      </trkpt>
      <trkpt lat="44.71734" lon="6.9586">
        <ele>2629</ele>
        <time>2021-12-16T10:49:38Z</time>
      </trkpt>
      <trkpt lat="44.71724" lon="6.95863">
        <ele>2634</ele>
        <time>2021-12-16T10:50:10Z</time>
      </trkpt>
      <trkpt lat="44.71713" lon="6.95867">
        <ele>2635</ele>
        <time>2021-12-16T10:50:28Z</time>
      </trkpt>
      <trkpt lat="44.71701" lon="6.95885">
        <ele>2636</ele>
        <time>2021-12-16T10:50:59Z</time>
      </trkpt>
      <trkpt lat="44.71691" lon="6.9588">
        <ele>2639</ele>
        <time>2021-12-16T10:51:32Z</time>
      </trkpt>
      <trkpt lat="44.71695" lon="6.95867">
        <ele>2642</ele>
        <time>2021-12-16T10:51:51Z</time>
      </trkpt>
      <trkpt lat="44.71697" lon="6.95852">
        <ele>2644</ele>
        <time>2021-12-16T10:52:11Z</time>
      </trkpt>
      <trkpt lat="44.717" lon="6.95838">
        <ele>2647</ele>
        <time>2021-12-16T10:52:30Z</time>
      </trkpt>
      <trkpt lat="44.71702" lon="6.95823">
        <ele>2649</ele>
        <time>2021-12-16T10:53:10Z</time>
      </trkpt>
      <trkpt lat="44.71683" lon="6.95831">
        <ele>2653</ele>
        <time>2021-12-16T10:54:34Z</time>
      </trkpt>
      <trkpt lat="44.71675" lon="6.95837">
        <ele>2653</ele>
        <time>2021-12-16T10:54:58Z</time>
      </trkpt>
      <trkpt lat="44.71667" lon="6.95841">
        <ele>2654</ele>
        <time>2021-12-16T10:55:29Z</time>
      </trkpt>
      <trkpt lat="44.71669" lon="6.9584">
        <ele>2655</ele>
        <time>2021-12-16T10:55:31Z</time>
      </trkpt>
      <trkpt lat="44.7167" lon="6.95837">
        <ele>2657</ele>
        <time>2021-12-16T10:55:35Z</time>
      </trkpt>
      <trkpt lat="44.7167" lon="6.95834">
        <ele>2658</ele>
        <time>2021-12-16T10:55:38Z</time>
      </trkpt>
      <trkpt lat="44.71674" lon="6.95822">
        <ele>2661</ele>
        <time>2021-12-16T10:56:10Z</time>
      </trkpt>
      <trkpt lat="44.71673" lon="6.95811">
        <ele>2664</ele>
        <time>2021-12-16T10:56:24Z</time>
      </trkpt>
      <trkpt lat="44.71673" lon="6.95807">
        <ele>2667</ele>
        <time>2021-12-16T10:56:29Z</time>
      </trkpt>
      <trkpt lat="44.7169" lon="6.95793">
        <ele>2680</ele>
        <time>2021-12-16T10:56:53Z</time>
      </trkpt>
      <trkpt lat="44.71681" lon="6.95787">
        <ele>2681</ele>
        <time>2021-12-16T10:57:21Z</time>
      </trkpt>
      <trkpt lat="44.7166" lon="6.95795">
        <ele>2681</ele>
        <time>2021-12-16T10:58:00Z</time>
      </trkpt>
      <trkpt lat="44.71659" lon="6.95809">
        <ele>2682</ele>
        <time>2021-12-16T10:58:26Z</time>
      </trkpt>
      <trkpt lat="44.71655" lon="6.95808">
        <ele>2682</ele>
        <time>2021-12-16T10:58:59Z</time>
      </trkpt>
      <trkpt lat="44.71641" lon="6.95781">
        <ele>2681</ele>
        <time>2021-12-16T10:59:59Z</time>
      </trkpt>
      <trkpt lat="44.71637" lon="6.95769">
        <ele>2682</ele>
        <time>2021-12-16T11:00:09Z</time>
      </trkpt>
      <trkpt lat="44.71637" lon="6.95762">
        <ele>2684</ele>
        <time>2021-12-16T11:00:14Z</time>
      </trkpt>
      <trkpt lat="44.71636" lon="6.95759">
        <ele>2685</ele>
        <time>2021-12-16T11:00:17Z</time>
      </trkpt>
      <trkpt lat="44.71634" lon="6.95741">
        <ele>2688</ele>
        <time>2021-12-16T11:00:33Z</time>
      </trkpt>
      <trkpt lat="44.71639" lon="6.95718">
        <ele>2690</ele>
        <time>2021-12-16T11:01:10Z</time>
      </trkpt>
      <trkpt lat="44.71642" lon="6.95706">
        <ele>2692</ele>
        <time>2021-12-16T11:01:12Z</time>
      </trkpt>
      <trkpt lat="44.71648" lon="6.95695">
        <ele>2699</ele>
        <time>2021-12-16T11:01:29Z</time>
      </trkpt>
      <trkpt lat="44.71648" lon="6.95681">
        <ele>2705</ele>
        <time>2021-12-16T11:01:51Z</time>
      </trkpt>
      <trkpt lat="44.71644" lon="6.95667">
        <ele>2713</ele>
        <time>2021-12-16T11:02:26Z</time>
      </trkpt>
      <trkpt lat="44.71621" lon="6.95658">
        <ele>2711</ele>
        <time>2021-12-16T11:02:57Z</time>
      </trkpt>
      <trkpt lat="44.71625" lon="6.95634">
        <ele>2712</ele>
        <time>2021-12-16T11:03:44Z</time>
      </trkpt>
      <trkpt lat="44.71626" lon="6.95623">
        <ele>2715</ele>
        <time>2021-12-16T11:04:03Z</time>
      </trkpt>
      <trkpt lat="44.71629" lon="6.95617">
        <ele>2719</ele>
        <time>2021-12-16T11:04:15Z</time>
      </trkpt>
      <trkpt lat="44.7163" lon="6.95622">
        <ele>2720</ele>
        <time>2021-12-16T11:04:17Z</time>
      </trkpt>
      <trkpt lat="44.71622" lon="6.95616">
        <ele>2719</ele>
        <time>2021-12-16T11:05:09Z</time>
      </trkpt>
      <trkpt lat="44.71614" lon="6.95609">
        <ele>2721</ele>
        <time>2021-12-16T11:05:44Z</time>
      </trkpt>
      <trkpt lat="44.71592" lon="6.95606">
        <ele>2721</ele>
        <time>2021-12-16T11:06:17Z</time>
      </trkpt>
      <trkpt lat="44.71591" lon="6.95603">
        <ele>2721</ele>
        <time>2021-12-16T11:06:20Z</time>
      </trkpt>
      <trkpt lat="44.71593" lon="6.956">
        <ele>2722</ele>
        <time>2021-12-16T11:06:25Z</time>
      </trkpt>
      <trkpt lat="44.71593" lon="6.95576">
        <ele>2724</ele>
        <time>2021-12-16T11:07:00Z</time>
      </trkpt>
      <trkpt lat="44.71598" lon="6.95564">
        <ele>2729</ele>
        <time>2021-12-16T11:07:19Z</time>
      </trkpt>
      <trkpt lat="44.71602" lon="6.95549">
        <ele>2733</ele>
        <time>2021-12-16T11:07:41Z</time>
      </trkpt>
      <trkpt lat="44.71608" lon="6.95537">
        <ele>2735</ele>
        <time>2021-12-16T11:08:06Z</time>
      </trkpt>
      <trkpt lat="44.71611" lon="6.95524">
        <ele>2736</ele>
        <time>2021-12-16T11:08:35Z</time>
      </trkpt>
      <trkpt lat="44.71607" lon="6.95517">
        <ele>2732</ele>
        <time>2021-12-16T11:08:39Z</time>
      </trkpt>
      <trkpt lat="44.71605" lon="6.95516">
        <ele>2730</ele>
        <time>2021-12-16T11:08:43Z</time>
      </trkpt>
      <trkpt lat="44.716" lon="6.95521">
        <ele>2727</ele>
        <time>2021-12-16T11:08:53Z</time>
      </trkpt>
      <trkpt lat="44.71599" lon="6.95524">
        <ele>2728</ele>
        <time>2021-12-16T11:08:55Z</time>
      </trkpt>
      <trkpt lat="44.71596" lon="6.95525">
        <ele>2729</ele>
        <time>2021-12-16T11:09:00Z</time>
      </trkpt>
      <trkpt lat="44.71593" lon="6.95528">
        <ele>2731</ele>
        <time>2021-12-16T11:09:02Z</time>
      </trkpt>
      <trkpt lat="44.71589" lon="6.95529">
        <ele>2733</ele>
        <time>2021-12-16T11:09:09Z</time>
      </trkpt>
      <trkpt lat="44.71587" lon="6.95528">
        <ele>2733</ele>
        <time>2021-12-16T11:09:10Z</time>
      </trkpt>
      <trkpt lat="44.71585" lon="6.9553">
        <ele>2734</ele>
        <time>2021-12-16T11:09:12Z</time>
      </trkpt>
      <trkpt lat="44.71582" lon="6.9553">
        <ele>2734</ele>
        <time>2021-12-16T11:09:14Z</time>
      </trkpt>
      <trkpt lat="44.71582" lon="6.95531">
        <ele>2737</ele>
        <time>2021-12-16T11:09:22Z</time>
      </trkpt>
      <trkpt lat="44.71586" lon="6.95536">
        <ele>2742</ele>
        <time>2021-12-16T11:09:29Z</time>
      </trkpt>
      <trkpt lat="44.71577" lon="6.95523">
        <ele>2735</ele>
        <time>2021-12-16T11:09:38Z</time>
      </trkpt>
      <trkpt lat="44.71575" lon="6.95523">
        <ele>2731</ele>
        <time>2021-12-16T11:09:41Z</time>
      </trkpt>
      <trkpt lat="44.71569" lon="6.95529">
        <ele>2727</ele>
        <time>2021-12-16T11:09:58Z</time>
      </trkpt>
      <trkpt lat="44.71549" lon="6.95528">
        <ele>2727</ele>
        <time>2021-12-16T11:10:22Z</time>
      </trkpt>
      <trkpt lat="44.71541" lon="6.95537">
        <ele>2729</ele>
        <time>2021-12-16T11:10:54Z</time>
      </trkpt>
      <trkpt lat="44.71536" lon="6.95545">
        <ele>2737</ele>
        <time>2021-12-16T11:11:40Z</time>
      </trkpt>
      <trkpt lat="44.71532" lon="6.95553">
        <ele>2744</ele>
        <time>2021-12-16T11:11:53Z</time>
      </trkpt>
      <trkpt lat="44.7153" lon="6.95554">
        <ele>2748</ele>
        <time>2021-12-16T11:11:56Z</time>
      </trkpt>
      <trkpt lat="44.71519" lon="6.95549">
        <ele>2755</ele>
        <time>2021-12-16T11:12:11Z</time>
      </trkpt>
      <trkpt lat="44.71517" lon="6.95538">
        <ele>2760</ele>
        <time>2021-12-16T11:12:28Z</time>
      </trkpt>
      <trkpt lat="44.71516" lon="6.95534">
        <ele>2761</ele>
        <time>2021-12-16T11:12:30Z</time>
      </trkpt>
      <trkpt lat="44.71506" lon="6.95541">
        <ele>2768</ele>
        <time>2021-12-16T11:12:55Z</time>
      </trkpt>
      <trkpt lat="44.71504" lon="6.95555">
        <ele>2770</ele>
        <time>2021-12-16T11:13:11Z</time>
      </trkpt>
      <trkpt lat="44.71496" lon="6.95566">
        <ele>2773</ele>
        <time>2021-12-16T11:13:32Z</time>
      </trkpt>
      <trkpt lat="44.71491" lon="6.95553">
        <ele>2778</ele>
        <time>2021-12-16T11:13:55Z</time>
      </trkpt>
      <trkpt lat="44.71492" lon="6.9555">
        <ele>2779</ele>
        <time>2021-12-16T11:13:58Z</time>
      </trkpt>
      <trkpt lat="44.71483" lon="6.95542">
        <ele>2779</ele>
        <time>2021-12-16T11:14:25Z</time>
      </trkpt>
      <trkpt lat="44.7148" lon="6.95544">
        <ele>2780</ele>
        <time>2021-12-16T11:14:27Z</time>
      </trkpt>
      <trkpt lat="44.71478" lon="6.95556">
        <ele>2781</ele>
        <time>2021-12-16T11:14:53Z</time>
      </trkpt>
      <trkpt lat="44.71473" lon="6.95557">
        <ele>2780</ele>
        <time>2021-12-16T11:14:58Z</time>
      </trkpt>
      <trkpt lat="44.7147" lon="6.95555">
        <ele>2780</ele>
        <time>2021-12-16T11:15:01Z</time>
      </trkpt>
      <trkpt lat="44.71467" lon="6.95555">
        <ele>2780</ele>
        <time>2021-12-16T11:15:12Z</time>
      </trkpt>
      <trkpt lat="44.71456" lon="6.9558">
        <ele>2777</ele>
        <time>2021-12-16T11:15:45Z</time>
      </trkpt>
      <trkpt lat="44.71454" lon="6.95585">
        <ele>2779</ele>
        <time>2021-12-16T11:15:50Z</time>
      </trkpt>
      <trkpt lat="44.71438" lon="6.95615">
        <ele>2794</ele>
        <time>2021-12-16T11:16:42Z</time>
      </trkpt>
      <trkpt lat="44.7143" lon="6.95629">
        <ele>2796</ele>
        <time>2021-12-16T11:17:06Z</time>
      </trkpt>
      <trkpt lat="44.71429" lon="6.95643">
        <ele>2797</ele>
        <time>2021-12-16T11:17:31Z</time>
      </trkpt>
      <trkpt lat="44.71421" lon="6.95654">
        <ele>2797</ele>
        <time>2021-12-16T11:17:56Z</time>
      </trkpt>
      <trkpt lat="44.71411" lon="6.95652">
        <ele>2797</ele>
        <time>2021-12-16T11:18:15Z</time>
      </trkpt>
      <trkpt lat="44.71402" lon="6.95659">
        <ele>2798</ele>
        <time>2021-12-16T11:18:37Z</time>
      </trkpt>
      <trkpt lat="44.71394" lon="6.95691">
        <ele>2801</ele>
        <time>2021-12-16T11:19:13Z</time>
      </trkpt>
      <trkpt lat="44.71391" lon="6.95722">
        <ele>2809</ele>
        <time>2021-12-16T11:19:53Z</time>
      </trkpt>
      <trkpt lat="44.71384" lon="6.9575">
        <ele>2814</ele>
        <time>2021-12-16T11:20:30Z</time>
      </trkpt>
      <trkpt lat="44.71382" lon="6.95765">
        <ele>2814</ele>
        <time>2021-12-16T11:20:48Z</time>
      </trkpt>
      <trkpt lat="44.71384" lon="6.95781">
        <ele>2820</ele>
        <time>2021-12-16T11:21:15Z</time>
      </trkpt>
      <trkpt lat="44.71379" lon="6.9579">
        <ele>2829</ele>
        <time>2021-12-16T11:21:52Z</time>
      </trkpt>
      <trkpt lat="44.71371" lon="6.95795">
        <ele>2829</ele>
        <time>2021-12-16T11:22:04Z</time>
      </trkpt>
      <trkpt lat="44.71369" lon="6.95798">
        <ele>2830</ele>
        <time>2021-12-16T11:22:07Z</time>
      </trkpt>
      <trkpt lat="44.71367" lon="6.958">
        <ele>2830</ele>
        <time>2021-12-16T11:22:11Z</time>
      </trkpt>
      <trkpt lat="44.71355" lon="6.95806">
        <ele>2822</ele>
        <time>2021-12-16T11:22:34Z</time>
      </trkpt>
      <trkpt lat="44.71353" lon="6.95816">
        <ele>2811</ele>
        <time>2021-12-16T11:22:42Z</time>
      </trkpt>
      <trkpt lat="44.71344" lon="6.9582">
        <ele>2809</ele>
        <time>2021-12-16T11:23:01Z</time>
      </trkpt>
      <trkpt lat="44.7135" lon="6.95835">
        <ele>2810</ele>
        <time>2021-12-16T11:23:23Z</time>
      </trkpt>
      <trkpt lat="44.71342" lon="6.95844">
        <ele>2811</ele>
        <time>2021-12-16T11:23:43Z</time>
      </trkpt>
      <trkpt lat="44.7134" lon="6.95869">
        <ele>2829</ele>
        <time>2021-12-16T11:24:14Z</time>
      </trkpt>
      <trkpt lat="44.71334" lon="6.95886">
        <ele>2845</ele>
        <time>2021-12-16T11:24:40Z</time>
      </trkpt>
      <trkpt lat="44.71335" lon="6.95889">
        <ele>2849</ele>
        <time>2021-12-16T11:24:43Z</time>
      </trkpt>
      <trkpt lat="44.71338" lon="6.9589">
        <ele>2855</ele>
        <time>2021-12-16T11:25:06Z</time>
      </trkpt>
      <trkpt lat="44.71343" lon="6.95886">
        <ele>2858</ele>
        <time>2021-12-16T11:25:14Z</time>
      </trkpt>
      <trkpt lat="44.71349" lon="6.95889">
        <ele>2857</ele>
        <time>2021-12-16T11:25:18Z</time>
      </trkpt>
      <trkpt lat="44.71351" lon="6.95919">
        <ele>2853</ele>
        <time>2021-12-16T11:25:49Z</time>
      </trkpt>
      <trkpt lat="44.71343" lon="6.95946">
        <ele>2853</ele>
        <time>2021-12-16T11:26:22Z</time>
      </trkpt>
      <trkpt lat="44.71339" lon="6.95964">
        <ele>2853</ele>
        <time>2021-12-16T11:26:46Z</time>
      </trkpt>
      <trkpt lat="44.71341" lon="6.95977">
        <ele>2853</ele>
        <time>2021-12-16T11:27:00Z</time>
      </trkpt>
      <trkpt lat="44.71353" lon="6.95986">
        <ele>2861</ele>
        <time>2021-12-16T11:27:35Z</time>
      </trkpt>
      <trkpt lat="44.71372" lon="6.95983">
        <ele>2873</ele>
        <time>2021-12-16T11:28:09Z</time>
      </trkpt>
      <trkpt lat="44.71374" lon="6.95983">
        <ele>2875</ele>
        <time>2021-12-16T11:28:23Z</time>
      </trkpt>
      <trkpt lat="44.71382" lon="6.95989">
        <ele>2879</ele>
        <time>2021-12-16T11:28:43Z</time>
      </trkpt>
      <trkpt lat="44.71377" lon="6.96003">
        <ele>2882</ele>
        <time>2021-12-16T11:29:02Z</time>
      </trkpt>
      <trkpt lat="44.71374" lon="6.96017">
        <ele>2884</ele>
        <time>2021-12-16T11:29:33Z</time>
      </trkpt>
      <trkpt lat="44.71362" lon="6.96042">
        <ele>2888</ele>
        <time>2021-12-16T11:30:17Z</time>
      </trkpt>
      <trkpt lat="44.71353" lon="6.9605">
        <ele>2891</ele>
        <time>2021-12-16T11:30:41Z</time>
      </trkpt>
      <trkpt lat="44.71344" lon="6.96045">
        <ele>2893</ele>
        <time>2021-12-16T11:31:00Z</time>
      </trkpt>
      <trkpt lat="44.71335" lon="6.96041">
        <ele>2895</ele>
        <time>2021-12-16T11:31:01Z</time>
      </trkpt>
      <trkpt lat="44.71334" lon="6.96031">
        <ele>2895</ele>
        <time>2021-12-16T11:31:02Z</time>
      </trkpt>
      <trkpt lat="44.71341" lon="6.96038">
        <ele>2896</ele>
        <time>2021-12-16T11:31:03Z</time>
      </trkpt>
      <trkpt lat="44.71359" lon="6.9605">
        <ele>2896</ele>
        <time>2021-12-16T11:31:08Z</time>
      </trkpt>
      <trkpt lat="44.71348" lon="6.96049">
        <ele>2896</ele>
        <time>2021-12-16T11:31:13Z</time>
      </trkpt>
      <trkpt lat="44.71345" lon="6.96048">
        <ele>2896</ele>
        <time>2021-12-16T11:31:14Z</time>
      </trkpt>
      <trkpt lat="44.71338" lon="6.96062">
        <ele>2899</ele>
        <time>2021-12-16T11:31:43Z</time>
      </trkpt>
      <trkpt lat="44.71345" lon="6.96062">
        <ele>2903</ele>
        <time>2021-12-16T11:32:13Z</time>
      </trkpt>
      <trkpt lat="44.71344" lon="6.96074">
        <ele>2904</ele>
        <time>2021-12-16T11:32:49Z</time>
      </trkpt>
      <trkpt lat="44.71343" lon="6.96079">
        <ele>2906</ele>
        <time>2021-12-16T11:32:53Z</time>
      </trkpt>
      <trkpt lat="44.71336" lon="6.96083">
        <ele>2906</ele>
        <time>2021-12-16T11:33:08Z</time>
      </trkpt>
      <trkpt lat="44.71319" lon="6.96099">
        <ele>2923</ele>
        <time>2021-12-16T11:33:51Z</time>
      </trkpt>
      <trkpt lat="44.71314" lon="6.96112">
        <ele>2925</ele>
        <time>2021-12-16T11:34:52Z</time>
      </trkpt>
      <trkpt lat="44.71305" lon="6.96121">
        <ele>2927</ele>
        <time>2021-12-16T11:35:13Z</time>
      </trkpt>
      <trkpt lat="44.71286" lon="6.96135">
        <ele>2929</ele>
        <time>2021-12-16T11:35:58Z</time>
      </trkpt>
      <trkpt lat="44.7127" lon="6.96157">
        <ele>2931</ele>
        <time>2021-12-16T11:36:42Z</time>
      </trkpt>
      <trkpt lat="44.71262" lon="6.9616">
        <ele>2931</ele>
        <time>2021-12-16T11:37:13Z</time>
      </trkpt>
      <trkpt lat="44.71258" lon="6.96159">
        <ele>2931</ele>
        <time>2021-12-16T11:37:15Z</time>
      </trkpt>
      <trkpt lat="44.71258" lon="6.96162">
        <ele>2931</ele>
        <time>2021-12-16T11:37:17Z</time>
      </trkpt>
      <trkpt lat="44.71261" lon="6.96171">
        <ele>2932</ele>
        <time>2021-12-16T11:37:27Z</time>
      </trkpt>
      <trkpt lat="44.71259" lon="6.96173">
        <ele>2936</ele>
        <time>2021-12-16T11:37:36Z</time>
      </trkpt>
      <trkpt lat="44.71257" lon="6.9617">
        <ele>2940</ele>
        <time>2021-12-16T11:37:39Z</time>
      </trkpt>
      <trkpt lat="44.71259" lon="6.96178">
        <ele>2945</ele>
        <time>2021-12-16T11:38:16Z</time>
      </trkpt>
      <trkpt lat="44.71251" lon="6.96183">
        <ele>2950</ele>
        <time>2021-12-16T11:38:48Z</time>
      </trkpt>
      <trkpt lat="44.71245" lon="6.96194">
        <ele>2952</ele>
        <time>2021-12-16T11:39:11Z</time>
      </trkpt>
      <trkpt lat="44.71241" lon="6.96199">
        <ele>2953</ele>
        <time>2021-12-16T11:39:17Z</time>
      </trkpt>
      <trkpt lat="44.71244" lon="6.96212">
        <ele>2960</ele>
        <time>2021-12-16T11:40:15Z</time>
      </trkpt>
      <trkpt lat="44.71247" lon="6.96226">
        <ele>2964</ele>
        <time>2021-12-16T11:40:37Z</time>
      </trkpt>
      <trkpt lat="44.71237" lon="6.96233">
        <ele>2967</ele>
        <time>2021-12-16T11:41:03Z</time>
      </trkpt>
      <trkpt lat="44.71226" lon="6.96237">
        <ele>2972</ele>
        <time>2021-12-16T11:41:27Z</time>
      </trkpt>
      <trkpt lat="44.71229" lon="6.96245">
        <ele>2974</ele>
        <time>2021-12-16T11:42:06Z</time>
      </trkpt>
      <trkpt lat="44.71235" lon="6.96258">
        <ele>2977</ele>
        <time>2021-12-16T11:42:35Z</time>
      </trkpt>
      <trkpt lat="44.71229" lon="6.9627">
        <ele>2981</ele>
        <time>2021-12-16T11:43:21Z</time>
      </trkpt>
      <trkpt lat="44.71227" lon="6.96272">
        <ele>2982</ele>
        <time>2021-12-16T11:43:24Z</time>
      </trkpt>
      <trkpt lat="44.71226" lon="6.96285">
        <ele>2983</ele>
        <time>2021-12-16T11:43:55Z</time>
      </trkpt>
      <trkpt lat="44.71217" lon="6.96291">
        <ele>2987</ele>
        <time>2021-12-16T11:44:21Z</time>
      </trkpt>
      <trkpt lat="44.71207" lon="6.96296">
        <ele>2992</ele>
        <time>2021-12-16T11:44:46Z</time>
      </trkpt>
      <trkpt lat="44.71202" lon="6.96302">
        <ele>2998</ele>
        <time>2021-12-16T11:45:24Z</time>
      </trkpt>
      <trkpt lat="44.71205" lon="6.96303">
        <ele>2999</ele>
        <time>2021-12-16T11:45:26Z</time>
      </trkpt>
      <trkpt lat="44.71207" lon="6.96302">
        <ele>3001</ele>
        <time>2021-12-16T11:45:28Z</time>
      </trkpt>
      <trkpt lat="44.71198" lon="6.96306">
        <ele>3005</ele>
        <time>2021-12-16T11:46:13Z</time>
      </trkpt>
      <trkpt lat="44.71189" lon="6.963">
        <ele>3009</ele>
        <time>2021-12-16T11:46:46Z</time>
      </trkpt>
      <trkpt lat="44.7119" lon="6.96308">
        <ele>3012</ele>
        <time>2021-12-16T11:49:19Z</time>
      </trkpt>
      <trkpt lat="44.71193" lon="6.96308">
        <ele>3012</ele>
        <time>2021-12-16T11:52:44Z</time>
      </trkpt>
      <trkpt lat="44.71193" lon="6.96308">
        <ele>3014</ele>
        <time>2021-12-16T11:54:24Z</time>
      </trkpt>
      <trkpt lat="44.71195" lon="6.96323">
        <ele>3012</ele>
        <time>2021-12-16T11:54:30Z</time>
      </trkpt>
      <trkpt lat="44.71189" lon="6.96299">
        <ele>3013</ele>
        <time>2021-12-16T11:55:27Z</time>
      </trkpt>
      <trkpt lat="44.71186" lon="6.96287">
        <ele>3013</ele>
        <time>2021-12-16T11:56:04Z</time>
      </trkpt>
      <trkpt lat="44.71184" lon="6.96284">
        <ele>3013</ele>
        <time>2021-12-16T11:56:06Z</time>
      </trkpt>
      <trkpt lat="44.71178" lon="6.96286">
        <ele>3012</ele>
        <time>2021-12-16T11:56:17Z</time>
      </trkpt>
      <trkpt lat="44.71174" lon="6.96288">
        <ele>3012</ele>
        <time>2021-12-16T11:56:18Z</time>
      </trkpt>
      <trkpt lat="44.71171" lon="6.96287">
        <ele>3012</ele>
        <time>2021-12-16T11:56:29Z</time>
      </trkpt>
      <trkpt lat="44.71168" lon="6.9629">
        <ele>3011</ele>
        <time>2021-12-16T11:57:11Z</time>
      </trkpt>
      <trkpt lat="44.71166" lon="6.9629">
        <ele>3007</ele>
        <time>2021-12-16T11:57:12Z</time>
      </trkpt>
      <trkpt lat="44.71165" lon="6.96288">
        <ele>3006</ele>
        <time>2021-12-16T11:57:13Z</time>
      </trkpt>
      <trkpt lat="44.71163" lon="6.96285">
        <ele>3003</ele>
        <time>2021-12-16T11:57:14Z</time>
      </trkpt>
      <trkpt lat="44.71163" lon="6.96282">
        <ele>3000</ele>
        <time>2021-12-16T11:57:16Z</time>
      </trkpt>
      <trkpt lat="44.7116" lon="6.96283">
        <ele>2997</ele>
        <time>2021-12-16T11:57:19Z</time>
      </trkpt>
      <trkpt lat="44.71154" lon="6.96281">
        <ele>2989</ele>
        <time>2021-12-16T11:57:29Z</time>
      </trkpt>
      <trkpt lat="44.71152" lon="6.96279">
        <ele>2987</ele>
        <time>2021-12-16T11:57:31Z</time>
      </trkpt>
      <trkpt lat="44.7115" lon="6.96276">
        <ele>2985</ele>
        <time>2021-12-16T11:57:32Z</time>
      </trkpt>
      <trkpt lat="44.71147" lon="6.96276">
        <ele>2984</ele>
        <time>2021-12-16T11:57:33Z</time>
      </trkpt>
      <trkpt lat="44.71145" lon="6.96276">
        <ele>2983</ele>
        <time>2021-12-16T11:57:34Z</time>
      </trkpt>
      <trkpt lat="44.71142" lon="6.96276">
        <ele>2982</ele>
        <time>2021-12-16T11:57:35Z</time>
      </trkpt>
      <trkpt lat="44.71137" lon="6.9627">
        <ele>2980</ele>
        <time>2021-12-16T11:57:37Z</time>
      </trkpt>
      <trkpt lat="44.71133" lon="6.9627">
        <ele>2979</ele>
        <time>2021-12-16T11:57:38Z</time>
      </trkpt>
      <trkpt lat="44.71129" lon="6.96274">
        <ele>2977</ele>
        <time>2021-12-16T11:57:39Z</time>
      </trkpt>
      <trkpt lat="44.71125" lon="6.96281">
        <ele>2972</ele>
        <time>2021-12-16T11:57:41Z</time>
      </trkpt>
      <trkpt lat="44.71118" lon="6.96283">
        <ele>2965</ele>
        <time>2021-12-16T11:57:53Z</time>
      </trkpt>
      <trkpt lat="44.71115" lon="6.96281">
        <ele>2964</ele>
        <time>2021-12-16T11:57:54Z</time>
      </trkpt>
      <trkpt lat="44.71114" lon="6.96276">
        <ele>2962</ele>
        <time>2021-12-16T11:57:55Z</time>
      </trkpt>
      <trkpt lat="44.71113" lon="6.96271">
        <ele>2961</ele>
        <time>2021-12-16T11:57:56Z</time>
      </trkpt>
      <trkpt lat="44.7111" lon="6.96268">
        <ele>2958</ele>
        <time>2021-12-16T11:57:57Z</time>
      </trkpt>
      <trkpt lat="44.71105" lon="6.9627">
        <ele>2956</ele>
        <time>2021-12-16T11:57:58Z</time>
      </trkpt>
      <trkpt lat="44.711" lon="6.96275">
        <ele>2954</ele>
        <time>2021-12-16T11:57:59Z</time>
      </trkpt>
      <trkpt lat="44.71092" lon="6.96284">
        <ele>2948</ele>
        <time>2021-12-16T11:58:01Z</time>
      </trkpt>
      <trkpt lat="44.7109" lon="6.96286">
        <ele>2947</ele>
        <time>2021-12-16T11:58:02Z</time>
      </trkpt>
      <trkpt lat="44.71088" lon="6.9628">
        <ele>2945</ele>
        <time>2021-12-16T11:58:03Z</time>
      </trkpt>
      <trkpt lat="44.71088" lon="6.96272">
        <ele>2942</ele>
        <time>2021-12-16T11:58:04Z</time>
      </trkpt>
      <trkpt lat="44.71089" lon="6.96264">
        <ele>2940</ele>
        <time>2021-12-16T11:58:05Z</time>
      </trkpt>
      <trkpt lat="44.71088" lon="6.9626">
        <ele>2936</ele>
        <time>2021-12-16T11:58:06Z</time>
      </trkpt>
      <trkpt lat="44.71085" lon="6.96259">
        <ele>2934</ele>
        <time>2021-12-16T11:58:07Z</time>
      </trkpt>
      <trkpt lat="44.71076" lon="6.96271">
        <ele>2925</ele>
        <time>2021-12-16T11:58:09Z</time>
      </trkpt>
      <trkpt lat="44.71061" lon="6.96295">
        <ele>2914</ele>
        <time>2021-12-16T11:58:12Z</time>
      </trkpt>
      <trkpt lat="44.71056" lon="6.96302">
        <ele>2911</ele>
        <time>2021-12-16T11:58:13Z</time>
      </trkpt>
      <trkpt lat="44.71051" lon="6.96309">
        <ele>2908</ele>
        <time>2021-12-16T11:58:14Z</time>
      </trkpt>
      <trkpt lat="44.71046" lon="6.96317">
        <ele>2905</ele>
        <time>2021-12-16T11:58:15Z</time>
      </trkpt>
      <trkpt lat="44.7104" lon="6.96324">
        <ele>2902</ele>
        <time>2021-12-16T11:58:16Z</time>
      </trkpt>
      <trkpt lat="44.70997" lon="6.96379">
        <ele>2889</ele>
        <time>2021-12-16T11:58:25Z</time>
      </trkpt>
      <trkpt lat="44.70996" lon="6.9637">
        <ele>2887</ele>
        <time>2021-12-16T11:58:38Z</time>
      </trkpt>
      <trkpt lat="44.70996" lon="6.96342">
        <ele>2886</ele>
        <time>2021-12-16T11:58:41Z</time>
      </trkpt>
      <trkpt lat="44.70998" lon="6.96333">
        <ele>2886</ele>
        <time>2021-12-16T11:58:42Z</time>
      </trkpt>
      <trkpt lat="44.7099" lon="6.96305">
        <ele>2883</ele>
        <time>2021-12-16T11:58:45Z</time>
      </trkpt>
      <trkpt lat="44.70991" lon="6.96291">
        <ele>2882</ele>
        <time>2021-12-16T11:58:46Z</time>
      </trkpt>
      <trkpt lat="44.71005" lon="6.96242">
        <ele>2876</ele>
        <time>2021-12-16T11:58:50Z</time>
      </trkpt>
      <trkpt lat="44.71005" lon="6.96232">
        <ele>2875</ele>
        <time>2021-12-16T11:58:51Z</time>
      </trkpt>
      <trkpt lat="44.71" lon="6.96228">
        <ele>2873</ele>
        <time>2021-12-16T11:58:52Z</time>
      </trkpt>
      <trkpt lat="44.70993" lon="6.96228">
        <ele>2870</ele>
        <time>2021-12-16T11:58:53Z</time>
      </trkpt>
      <trkpt lat="44.70985" lon="6.96234">
        <ele>2867</ele>
        <time>2021-12-16T11:58:54Z</time>
      </trkpt>
      <trkpt lat="44.70977" lon="6.96242">
        <ele>2865</ele>
        <time>2021-12-16T11:58:55Z</time>
      </trkpt>
      <trkpt lat="44.70969" lon="6.96251">
        <ele>2863</ele>
        <time>2021-12-16T11:58:56Z</time>
      </trkpt>
      <trkpt lat="44.70962" lon="6.96257">
        <ele>2860</ele>
        <time>2021-12-16T11:58:57Z</time>
      </trkpt>
      <trkpt lat="44.70956" lon="6.9626">
        <ele>2857</ele>
        <time>2021-12-16T11:58:58Z</time>
      </trkpt>
      <trkpt lat="44.70949" lon="6.96258">
        <ele>2853</ele>
        <time>2021-12-16T11:58:59Z</time>
      </trkpt>
      <trkpt lat="44.70944" lon="6.96249">
        <ele>2850</ele>
        <time>2021-12-16T11:59:00Z</time>
      </trkpt>
      <trkpt lat="44.70942" lon="6.9624">
        <ele>2849</ele>
        <time>2021-12-16T11:59:01Z</time>
      </trkpt>
      <trkpt lat="44.70955" lon="6.96205">
        <ele>2840</ele>
        <time>2021-12-16T11:59:02Z</time>
      </trkpt>
      <trkpt lat="44.70956" lon="6.96184">
        <ele>2832</ele>
        <time>2021-12-16T11:59:04Z</time>
      </trkpt>
      <trkpt lat="44.70953" lon="6.96179">
        <ele>2830</ele>
        <time>2021-12-16T11:59:05Z</time>
      </trkpt>
      <trkpt lat="44.70935" lon="6.96196">
        <ele>2823</ele>
        <time>2021-12-16T11:59:06Z</time>
      </trkpt>
      <trkpt lat="44.70927" lon="6.96201">
        <ele>2819</ele>
        <time>2021-12-16T11:59:07Z</time>
      </trkpt>
      <trkpt lat="44.70919" lon="6.96204">
        <ele>2817</ele>
        <time>2021-12-16T11:59:08Z</time>
      </trkpt>
      <trkpt lat="44.70912" lon="6.96205">
        <ele>2815</ele>
        <time>2021-12-16T11:59:09Z</time>
      </trkpt>
      <trkpt lat="44.70914" lon="6.96178">
        <ele>2811</ele>
        <time>2021-12-16T11:59:11Z</time>
      </trkpt>
      <trkpt lat="44.70909" lon="6.96171">
        <ele>2810</ele>
        <time>2021-12-16T11:59:12Z</time>
      </trkpt>
      <trkpt lat="44.70902" lon="6.96148">
        <ele>2805</ele>
        <time>2021-12-16T11:59:14Z</time>
      </trkpt>
      <trkpt lat="44.70902" lon="6.96135">
        <ele>2804</ele>
        <time>2021-12-16T11:59:15Z</time>
      </trkpt>
      <trkpt lat="44.70904" lon="6.96122">
        <ele>2802</ele>
        <time>2021-12-16T11:59:16Z</time>
      </trkpt>
      <trkpt lat="44.70908" lon="6.96109">
        <ele>2799</ele>
        <time>2021-12-16T11:59:17Z</time>
      </trkpt>
      <trkpt lat="44.70911" lon="6.96098">
        <ele>2796</ele>
        <time>2021-12-16T11:59:18Z</time>
      </trkpt>
      <trkpt lat="44.70912" lon="6.96088">
        <ele>2793</ele>
        <time>2021-12-16T11:59:19Z</time>
      </trkpt>
      <trkpt lat="44.70911" lon="6.96078">
        <ele>2791</ele>
        <time>2021-12-16T11:59:20Z</time>
      </trkpt>
      <trkpt lat="44.70894" lon="6.96084">
        <ele>2779</ele>
        <time>2021-12-16T11:59:21Z</time>
      </trkpt>
      <trkpt lat="44.70888" lon="6.96076">
        <ele>2773</ele>
        <time>2021-12-16T11:59:22Z</time>
      </trkpt>
      <trkpt lat="44.70887" lon="6.96062">
        <ele>2769</ele>
        <time>2021-12-16T11:59:23Z</time>
      </trkpt>
      <trkpt lat="44.70887" lon="6.96048">
        <ele>2766</ele>
        <time>2021-12-16T11:59:24Z</time>
      </trkpt>
      <trkpt lat="44.70884" lon="6.96036">
        <ele>2764</ele>
        <time>2021-12-16T11:59:25Z</time>
      </trkpt>
      <trkpt lat="44.70877" lon="6.9603">
        <ele>2761</ele>
        <time>2021-12-16T11:59:26Z</time>
      </trkpt>
      <trkpt lat="44.70861" lon="6.96027">
        <ele>2757</ele>
        <time>2021-12-16T11:59:28Z</time>
      </trkpt>
      <trkpt lat="44.70829" lon="6.96062">
        <ele>2733</ele>
        <time>2021-12-16T11:59:32Z</time>
      </trkpt>
      <trkpt lat="44.70819" lon="6.96077">
        <ele>2724</ele>
        <time>2021-12-16T11:59:35Z</time>
      </trkpt>
      <trkpt lat="44.70815" lon="6.96081">
        <ele>2721</ele>
        <time>2021-12-16T11:59:36Z</time>
      </trkpt>
      <trkpt lat="44.70795" lon="6.96081">
        <ele>2717</ele>
        <time>2021-12-16T11:59:39Z</time>
      </trkpt>
      <trkpt lat="44.70781" lon="6.96075">
        <ele>2715</ele>
        <time>2021-12-16T11:59:41Z</time>
      </trkpt>
      <trkpt lat="44.70737" lon="6.96026">
        <ele>2704</ele>
        <time>2021-12-16T11:59:50Z</time>
      </trkpt>
      <trkpt lat="44.70727" lon="6.9601">
        <ele>2703</ele>
        <time>2021-12-16T11:59:52Z</time>
      </trkpt>
      <trkpt lat="44.70722" lon="6.96">
        <ele>2702</ele>
        <time>2021-12-16T11:59:53Z</time>
      </trkpt>
      <trkpt lat="44.70718" lon="6.95975">
        <ele>2700</ele>
        <time>2021-12-16T11:59:55Z</time>
      </trkpt>
      <trkpt lat="44.70717" lon="6.9596">
        <ele>2698</ele>
        <time>2021-12-16T11:59:56Z</time>
      </trkpt>
      <trkpt lat="44.70713" lon="6.95934">
        <ele>2696</ele>
        <time>2021-12-16T11:59:58Z</time>
      </trkpt>
      <trkpt lat="44.70718" lon="6.95911">
        <ele>2693</ele>
        <time>2021-12-16T12:00:00Z</time>
      </trkpt>
      <trkpt lat="44.70721" lon="6.95901">
        <ele>2691</ele>
        <time>2021-12-16T12:00:01Z</time>
      </trkpt>
      <trkpt lat="44.70722" lon="6.95877">
        <ele>2687</ele>
        <time>2021-12-16T12:00:03Z</time>
      </trkpt>
      <trkpt lat="44.70717" lon="6.95866">
        <ele>2684</ele>
        <time>2021-12-16T12:00:04Z</time>
      </trkpt>
      <trkpt lat="44.70709" lon="6.95855">
        <ele>2682</ele>
        <time>2021-12-16T12:00:05Z</time>
      </trkpt>
      <trkpt lat="44.70702" lon="6.95844">
        <ele>2679</ele>
        <time>2021-12-16T12:00:06Z</time>
      </trkpt>
      <trkpt lat="44.70695" lon="6.95831">
        <ele>2676</ele>
        <time>2021-12-16T12:00:07Z</time>
      </trkpt>
      <trkpt lat="44.7069" lon="6.95819">
        <ele>2672</ele>
        <time>2021-12-16T12:00:08Z</time>
      </trkpt>
      <trkpt lat="44.70686" lon="6.95807">
        <ele>2669</ele>
        <time>2021-12-16T12:00:09Z</time>
      </trkpt>
      <trkpt lat="44.70673" lon="6.95787">
        <ele>2663</ele>
        <time>2021-12-16T12:00:11Z</time>
      </trkpt>
      <trkpt lat="44.70668" lon="6.95776">
        <ele>2661</ele>
        <time>2021-12-16T12:00:12Z</time>
      </trkpt>
      <trkpt lat="44.70666" lon="6.95764">
        <ele>2659</ele>
        <time>2021-12-16T12:00:13Z</time>
      </trkpt>
      <trkpt lat="44.70664" lon="6.95744">
        <ele>2655</ele>
        <time>2021-12-16T12:00:15Z</time>
      </trkpt>
      <trkpt lat="44.70659" lon="6.95725">
        <ele>2651</ele>
        <time>2021-12-16T12:00:17Z</time>
      </trkpt>
      <trkpt lat="44.70654" lon="6.95703">
        <ele>2647</ele>
        <time>2021-12-16T12:00:19Z</time>
      </trkpt>
      <trkpt lat="44.70651" lon="6.95692">
        <ele>2644</ele>
        <time>2021-12-16T12:00:20Z</time>
      </trkpt>
      <trkpt lat="44.70647" lon="6.95681">
        <ele>2641</ele>
        <time>2021-12-16T12:00:21Z</time>
      </trkpt>
      <trkpt lat="44.70644" lon="6.9567">
        <ele>2638</ele>
        <time>2021-12-16T12:00:22Z</time>
      </trkpt>
      <trkpt lat="44.7064" lon="6.95659">
        <ele>2635</ele>
        <time>2021-12-16T12:00:23Z</time>
      </trkpt>
      <trkpt lat="44.70635" lon="6.95649">
        <ele>2632</ele>
        <time>2021-12-16T12:00:24Z</time>
      </trkpt>
      <trkpt lat="44.7063" lon="6.95637">
        <ele>2632</ele>
        <time>2021-12-16T12:00:25Z</time>
      </trkpt>
      <trkpt lat="44.70616" lon="6.95605">
        <ele>2627</ele>
        <time>2021-12-16T12:00:28Z</time>
      </trkpt>
      <trkpt lat="44.70612" lon="6.95593">
        <ele>2626</ele>
        <time>2021-12-16T12:00:29Z</time>
      </trkpt>
      <trkpt lat="44.70606" lon="6.9558">
        <ele>2624</ele>
        <time>2021-12-16T12:00:30Z</time>
      </trkpt>
      <trkpt lat="44.70595" lon="6.95553">
        <ele>2620</ele>
        <time>2021-12-16T12:00:32Z</time>
      </trkpt>
      <trkpt lat="44.70592" lon="6.95536">
        <ele>2619</ele>
        <time>2021-12-16T12:00:33Z</time>
      </trkpt>
      <trkpt lat="44.70589" lon="6.9552">
        <ele>2616</ele>
        <time>2021-12-16T12:00:34Z</time>
      </trkpt>
      <trkpt lat="44.70582" lon="6.95505">
        <ele>2613</ele>
        <time>2021-12-16T12:00:35Z</time>
      </trkpt>
      <trkpt lat="44.70573" lon="6.95492">
        <ele>2609</ele>
        <time>2021-12-16T12:00:36Z</time>
      </trkpt>
      <trkpt lat="44.70566" lon="6.95477">
        <ele>2606</ele>
        <time>2021-12-16T12:00:37Z</time>
      </trkpt>
      <trkpt lat="44.70559" lon="6.95462">
        <ele>2602</ele>
        <time>2021-12-16T12:00:38Z</time>
      </trkpt>
      <trkpt lat="44.70551" lon="6.95449">
        <ele>2598</ele>
        <time>2021-12-16T12:00:39Z</time>
      </trkpt>
      <trkpt lat="44.70543" lon="6.95437">
        <ele>2594</ele>
        <time>2021-12-16T12:00:40Z</time>
      </trkpt>
      <trkpt lat="44.70537" lon="6.95421">
        <ele>2589</ele>
        <time>2021-12-16T12:00:41Z</time>
      </trkpt>
      <trkpt lat="44.7053" lon="6.95407">
        <ele>2585</ele>
        <time>2021-12-16T12:00:42Z</time>
      </trkpt>
      <trkpt lat="44.70521" lon="6.95396">
        <ele>2582</ele>
        <time>2021-12-16T12:00:43Z</time>
      </trkpt>
      <trkpt lat="44.70514" lon="6.95383">
        <ele>2579</ele>
        <time>2021-12-16T12:00:44Z</time>
      </trkpt>
      <trkpt lat="44.70511" lon="6.95368">
        <ele>2577</ele>
        <time>2021-12-16T12:00:45Z</time>
      </trkpt>
      <trkpt lat="44.70505" lon="6.95354">
        <ele>2575</ele>
        <time>2021-12-16T12:00:46Z</time>
      </trkpt>
      <trkpt lat="44.70498" lon="6.95342">
        <ele>2572</ele>
        <time>2021-12-16T12:00:47Z</time>
      </trkpt>
      <trkpt lat="44.70492" lon="6.95329">
        <ele>2570</ele>
        <time>2021-12-16T12:00:48Z</time>
      </trkpt>
      <trkpt lat="44.70478" lon="6.95291">
        <ele>2564</ele>
        <time>2021-12-16T12:00:51Z</time>
      </trkpt>
      <trkpt lat="44.70476" lon="6.95278">
        <ele>2562</ele>
        <time>2021-12-16T12:00:52Z</time>
      </trkpt>
      <trkpt lat="44.70478" lon="6.95269">
        <ele>2559</ele>
        <time>2021-12-16T12:00:53Z</time>
      </trkpt>
      <trkpt lat="44.70477" lon="6.95259">
        <ele>2555</ele>
        <time>2021-12-16T12:00:54Z</time>
      </trkpt>
      <trkpt lat="44.70472" lon="6.95255">
        <ele>2552</ele>
        <time>2021-12-16T12:00:55Z</time>
      </trkpt>
      <trkpt lat="44.70466" lon="6.95257">
        <ele>2550</ele>
        <time>2021-12-16T12:00:56Z</time>
      </trkpt>
      <trkpt lat="44.7046" lon="6.95262">
        <ele>2548</ele>
        <time>2021-12-16T12:00:57Z</time>
      </trkpt>
      <trkpt lat="44.70454" lon="6.95266">
        <ele>2545</ele>
        <time>2021-12-16T12:00:58Z</time>
      </trkpt>
      <trkpt lat="44.70448" lon="6.95267">
        <ele>2543</ele>
        <time>2021-12-16T12:00:59Z</time>
      </trkpt>
      <trkpt lat="44.70443" lon="6.95265">
        <ele>2540</ele>
        <time>2021-12-16T12:01:00Z</time>
      </trkpt>
      <trkpt lat="44.7044" lon="6.9526">
        <ele>2538</ele>
        <time>2021-12-16T12:01:01Z</time>
      </trkpt>
      <trkpt lat="44.7044" lon="6.95251">
        <ele>2536</ele>
        <time>2021-12-16T12:01:02Z</time>
      </trkpt>
      <trkpt lat="44.70453" lon="6.9522">
        <ele>2530</ele>
        <time>2021-12-16T12:01:05Z</time>
      </trkpt>
      <trkpt lat="44.70451" lon="6.95212">
        <ele>2529</ele>
        <time>2021-12-16T12:01:06Z</time>
      </trkpt>
      <trkpt lat="44.70447" lon="6.95203">
        <ele>2527</ele>
        <time>2021-12-16T12:01:07Z</time>
      </trkpt>
      <trkpt lat="44.70446" lon="6.95195">
        <ele>2524</ele>
        <time>2021-12-16T12:01:08Z</time>
      </trkpt>
      <trkpt lat="44.70442" lon="6.95188">
        <ele>2522</ele>
        <time>2021-12-16T12:01:09Z</time>
      </trkpt>
      <trkpt lat="44.70437" lon="6.95186">
        <ele>2517</ele>
        <time>2021-12-16T12:01:10Z</time>
      </trkpt>
      <trkpt lat="44.70435" lon="6.9518">
        <ele>2514</ele>
        <time>2021-12-16T12:01:11Z</time>
      </trkpt>
      <trkpt lat="44.7044" lon="6.95143">
        <ele>2506</ele>
        <time>2021-12-16T12:01:16Z</time>
      </trkpt>
      <trkpt lat="44.70454" lon="6.95117">
        <ele>2502</ele>
        <time>2021-12-16T12:01:21Z</time>
      </trkpt>
      <trkpt lat="44.70465" lon="6.95106">
        <ele>2501</ele>
        <time>2021-12-16T12:01:25Z</time>
      </trkpt>
      <trkpt lat="44.70459" lon="6.95107">
        <ele>2501</ele>
        <time>2021-12-16T12:01:48Z</time>
      </trkpt>
      <trkpt lat="44.70456" lon="6.951">
        <ele>2500</ele>
        <time>2021-12-16T12:01:49Z</time>
      </trkpt>
      <trkpt lat="44.70454" lon="6.95078">
        <ele>2498</ele>
        <time>2021-12-16T12:01:51Z</time>
      </trkpt>
      <trkpt lat="44.70433" lon="6.95053">
        <ele>2495</ele>
        <time>2021-12-16T12:01:54Z</time>
      </trkpt>
      <trkpt lat="44.70427" lon="6.9503">
        <ele>2492</ele>
        <time>2021-12-16T12:01:56Z</time>
      </trkpt>
      <trkpt lat="44.70424" lon="6.94981">
        <ele>2488</ele>
        <time>2021-12-16T12:01:59Z</time>
      </trkpt>
      <trkpt lat="44.70408" lon="6.94939">
        <ele>2485</ele>
        <time>2021-12-16T12:02:02Z</time>
      </trkpt>
      <trkpt lat="44.70405" lon="6.94926">
        <ele>2482</ele>
        <time>2021-12-16T12:02:03Z</time>
      </trkpt>
      <trkpt lat="44.70406" lon="6.94914">
        <ele>2479</ele>
        <time>2021-12-16T12:02:04Z</time>
      </trkpt>
      <trkpt lat="44.70405" lon="6.94901">
        <ele>2475</ele>
        <time>2021-12-16T12:02:05Z</time>
      </trkpt>
      <trkpt lat="44.70402" lon="6.94892">
        <ele>2471</ele>
        <time>2021-12-16T12:02:06Z</time>
      </trkpt>
      <trkpt lat="44.70397" lon="6.94881">
        <ele>2469</ele>
        <time>2021-12-16T12:02:07Z</time>
      </trkpt>
      <trkpt lat="44.70393" lon="6.9487">
        <ele>2466</ele>
        <time>2021-12-16T12:02:08Z</time>
      </trkpt>
      <trkpt lat="44.70389" lon="6.9486">
        <ele>2462</ele>
        <time>2021-12-16T12:02:09Z</time>
      </trkpt>
      <trkpt lat="44.70383" lon="6.94854">
        <ele>2458</ele>
        <time>2021-12-16T12:02:10Z</time>
      </trkpt>
      <trkpt lat="44.70376" lon="6.94848">
        <ele>2455</ele>
        <time>2021-12-16T12:02:11Z</time>
      </trkpt>
      <trkpt lat="44.70369" lon="6.94841">
        <ele>2452</ele>
        <time>2021-12-16T12:02:12Z</time>
      </trkpt>
      <trkpt lat="44.70355" lon="6.94817">
        <ele>2447</ele>
        <time>2021-12-16T12:02:14Z</time>
      </trkpt>
      <trkpt lat="44.70352" lon="6.94804">
        <ele>2446</ele>
        <time>2021-12-16T12:02:15Z</time>
      </trkpt>
      <trkpt lat="44.70346" lon="6.94792">
        <ele>2443</ele>
        <time>2021-12-16T12:02:16Z</time>
      </trkpt>
      <trkpt lat="44.70341" lon="6.94779">
        <ele>2441</ele>
        <time>2021-12-16T12:02:17Z</time>
      </trkpt>
      <trkpt lat="44.7034" lon="6.94764">
        <ele>2439</ele>
        <time>2021-12-16T12:02:18Z</time>
      </trkpt>
      <trkpt lat="44.70337" lon="6.94751">
        <ele>2435</ele>
        <time>2021-12-16T12:02:19Z</time>
      </trkpt>
      <trkpt lat="44.70332" lon="6.94739">
        <ele>2431</ele>
        <time>2021-12-16T12:02:20Z</time>
      </trkpt>
      <trkpt lat="44.70327" lon="6.94727">
        <ele>2429</ele>
        <time>2021-12-16T12:02:21Z</time>
      </trkpt>
      <trkpt lat="44.70325" lon="6.94714">
        <ele>2426</ele>
        <time>2021-12-16T12:02:22Z</time>
      </trkpt>
      <trkpt lat="44.70321" lon="6.94702">
        <ele>2423</ele>
        <time>2021-12-16T12:02:23Z</time>
      </trkpt>
      <trkpt lat="44.70311" lon="6.94678">
        <ele>2419</ele>
        <time>2021-12-16T12:02:25Z</time>
      </trkpt>
      <trkpt lat="44.70309" lon="6.94665">
        <ele>2418</ele>
        <time>2021-12-16T12:02:26Z</time>
      </trkpt>
      <trkpt lat="44.70308" lon="6.94652">
        <ele>2415</ele>
        <time>2021-12-16T12:02:27Z</time>
      </trkpt>
      <trkpt lat="44.70305" lon="6.94638">
        <ele>2413</ele>
        <time>2021-12-16T12:02:28Z</time>
      </trkpt>
      <trkpt lat="44.70299" lon="6.94615">
        <ele>2408</ele>
        <time>2021-12-16T12:02:30Z</time>
      </trkpt>
      <trkpt lat="44.70299" lon="6.94607">
        <ele>2406</ele>
        <time>2021-12-16T12:02:31Z</time>
      </trkpt>
      <trkpt lat="44.70305" lon="6.94611">
        <ele>2390</ele>
        <time>2021-12-16T12:02:32Z</time>
      </trkpt>
      <trkpt lat="44.70303" lon="6.94613">
        <ele>2381</ele>
        <time>2021-12-16T12:02:35Z</time>
      </trkpt>
      <trkpt lat="44.70301" lon="6.94611">
        <ele>2374</ele>
        <time>2021-12-16T12:02:58Z</time>
      </trkpt>
      <trkpt lat="44.70301" lon="6.94593">
        <ele>2373</ele>
        <time>2021-12-16T12:03:01Z</time>
      </trkpt>
      <trkpt lat="44.70307" lon="6.94577">
        <ele>2372</ele>
        <time>2021-12-16T12:03:03Z</time>
      </trkpt>
      <trkpt lat="44.70319" lon="6.94549">
        <ele>2369</ele>
        <time>2021-12-16T12:03:06Z</time>
      </trkpt>
      <trkpt lat="44.70322" lon="6.94537">
        <ele>2367</ele>
        <time>2021-12-16T12:03:07Z</time>
      </trkpt>
      <trkpt lat="44.70325" lon="6.94523">
        <ele>2365</ele>
        <time>2021-12-16T12:03:08Z</time>
      </trkpt>
      <trkpt lat="44.70325" lon="6.94509">
        <ele>2363</ele>
        <time>2021-12-16T12:03:09Z</time>
      </trkpt>
      <trkpt lat="44.70323" lon="6.94494">
        <ele>2361</ele>
        <time>2021-12-16T12:03:10Z</time>
      </trkpt>
      <trkpt lat="44.70319" lon="6.94481">
        <ele>2358</ele>
        <time>2021-12-16T12:03:11Z</time>
      </trkpt>
      <trkpt lat="44.70314" lon="6.94466">
        <ele>2356</ele>
        <time>2021-12-16T12:03:12Z</time>
      </trkpt>
      <trkpt lat="44.7031" lon="6.94452">
        <ele>2353</ele>
        <time>2021-12-16T12:03:13Z</time>
      </trkpt>
      <trkpt lat="44.70306" lon="6.94438">
        <ele>2351</ele>
        <time>2021-12-16T12:03:14Z</time>
      </trkpt>
      <trkpt lat="44.70301" lon="6.94424">
        <ele>2349</ele>
        <time>2021-12-16T12:03:15Z</time>
      </trkpt>
      <trkpt lat="44.70295" lon="6.94412">
        <ele>2346</ele>
        <time>2021-12-16T12:03:16Z</time>
      </trkpt>
      <trkpt lat="44.70289" lon="6.94399">
        <ele>2344</ele>
        <time>2021-12-16T12:03:17Z</time>
      </trkpt>
      <trkpt lat="44.70252" lon="6.94282">
        <ele>2327</ele>
        <time>2021-12-16T12:03:27Z</time>
      </trkpt>
      <trkpt lat="44.70238" lon="6.94262">
        <ele>2324</ele>
        <time>2021-12-16T12:03:30Z</time>
      </trkpt>
      <trkpt lat="44.7022" lon="6.94253">
        <ele>2322</ele>
        <time>2021-12-16T12:03:33Z</time>
      </trkpt>
      <trkpt lat="44.70212" lon="6.94232">
        <ele>2319</ele>
        <time>2021-12-16T12:03:36Z</time>
      </trkpt>
      <trkpt lat="44.70204" lon="6.94238">
        <ele>2315</ele>
        <time>2021-12-16T12:03:38Z</time>
      </trkpt>
      <trkpt lat="44.702" lon="6.94239">
        <ele>2314</ele>
        <time>2021-12-16T12:03:39Z</time>
      </trkpt>
      <trkpt lat="44.70196" lon="6.94238">
        <ele>2312</ele>
        <time>2021-12-16T12:03:40Z</time>
      </trkpt>
      <trkpt lat="44.70195" lon="6.94234">
        <ele>2310</ele>
        <time>2021-12-16T12:03:41Z</time>
      </trkpt>
      <trkpt lat="44.70195" lon="6.94229">
        <ele>2309</ele>
        <time>2021-12-16T12:03:42Z</time>
      </trkpt>
      <trkpt lat="44.702" lon="6.94223">
        <ele>2307</ele>
        <time>2021-12-16T12:03:44Z</time>
      </trkpt>
      <trkpt lat="44.70202" lon="6.94219">
        <ele>2307</ele>
        <time>2021-12-16T12:03:45Z</time>
      </trkpt>
      <trkpt lat="44.70203" lon="6.94215">
        <ele>2306</ele>
        <time>2021-12-16T12:03:46Z</time>
      </trkpt>
      <trkpt lat="44.70201" lon="6.94211">
        <ele>2305</ele>
        <time>2021-12-16T12:03:47Z</time>
      </trkpt>
      <trkpt lat="44.70198" lon="6.94206">
        <ele>2305</ele>
        <time>2021-12-16T12:03:48Z</time>
      </trkpt>
      <trkpt lat="44.70192" lon="6.94181">
        <ele>2303</ele>
        <time>2021-12-16T12:03:51Z</time>
      </trkpt>
      <trkpt lat="44.70194" lon="6.94172">
        <ele>2301</ele>
        <time>2021-12-16T12:03:52Z</time>
      </trkpt>
      <trkpt lat="44.70194" lon="6.94163">
        <ele>2299</ele>
        <time>2021-12-16T12:03:53Z</time>
      </trkpt>
      <trkpt lat="44.7019" lon="6.94158">
        <ele>2296</ele>
        <time>2021-12-16T12:03:54Z</time>
      </trkpt>
      <trkpt lat="44.70183" lon="6.94155">
        <ele>2294</ele>
        <time>2021-12-16T12:03:55Z</time>
      </trkpt>
      <trkpt lat="44.70177" lon="6.94158">
        <ele>2291</ele>
        <time>2021-12-16T12:03:56Z</time>
      </trkpt>
      <trkpt lat="44.70172" lon="6.94163">
        <ele>2288</ele>
        <time>2021-12-16T12:03:57Z</time>
      </trkpt>
      <trkpt lat="44.70166" lon="6.94166">
        <ele>2285</ele>
        <time>2021-12-16T12:03:58Z</time>
      </trkpt>
      <trkpt lat="44.70161" lon="6.94164">
        <ele>2282</ele>
        <time>2021-12-16T12:03:59Z</time>
      </trkpt>
      <trkpt lat="44.70156" lon="6.94163">
        <ele>2279</ele>
        <time>2021-12-16T12:04:00Z</time>
      </trkpt>
      <trkpt lat="44.70152" lon="6.94164">
        <ele>2276</ele>
        <time>2021-12-16T12:04:01Z</time>
      </trkpt>
      <trkpt lat="44.70147" lon="6.94163">
        <ele>2275</ele>
        <time>2021-12-16T12:04:02Z</time>
      </trkpt>
      <trkpt lat="44.70144" lon="6.9416">
        <ele>2274</ele>
        <time>2021-12-16T12:04:03Z</time>
      </trkpt>
      <trkpt lat="44.70142" lon="6.94155">
        <ele>2271</ele>
        <time>2021-12-16T12:04:04Z</time>
      </trkpt>
      <trkpt lat="44.70139" lon="6.94152">
        <ele>2269</ele>
        <time>2021-12-16T12:04:05Z</time>
      </trkpt>
      <trkpt lat="44.70135" lon="6.94152">
        <ele>2266</ele>
        <time>2021-12-16T12:04:06Z</time>
      </trkpt>
      <trkpt lat="44.70129" lon="6.94154">
        <ele>2263</ele>
        <time>2021-12-16T12:04:07Z</time>
      </trkpt>
      <trkpt lat="44.70124" lon="6.94157">
        <ele>2261</ele>
        <time>2021-12-16T12:04:08Z</time>
      </trkpt>
      <trkpt lat="44.7012" lon="6.94155">
        <ele>2259</ele>
        <time>2021-12-16T12:04:09Z</time>
      </trkpt>
      <trkpt lat="44.70118" lon="6.94148">
        <ele>2257</ele>
        <time>2021-12-16T12:04:10Z</time>
      </trkpt>
      <trkpt lat="44.70118" lon="6.9414">
        <ele>2254</ele>
        <time>2021-12-16T12:04:11Z</time>
      </trkpt>
      <trkpt lat="44.70118" lon="6.94132">
        <ele>2253</ele>
        <time>2021-12-16T12:04:12Z</time>
      </trkpt>
      <trkpt lat="44.70113" lon="6.94131">
        <ele>2251</ele>
        <time>2021-12-16T12:04:13Z</time>
      </trkpt>
      <trkpt lat="44.70106" lon="6.94133">
        <ele>2248</ele>
        <time>2021-12-16T12:04:14Z</time>
      </trkpt>
      <trkpt lat="44.701" lon="6.94137">
        <ele>2245</ele>
        <time>2021-12-16T12:04:15Z</time>
      </trkpt>
      <trkpt lat="44.70086" lon="6.94141">
        <ele>2240</ele>
        <time>2021-12-16T12:04:17Z</time>
      </trkpt>
      <trkpt lat="44.70082" lon="6.94135">
        <ele>2239</ele>
        <time>2021-12-16T12:04:18Z</time>
      </trkpt>
      <trkpt lat="44.70079" lon="6.94117">
        <ele>2235</ele>
        <time>2021-12-16T12:04:20Z</time>
      </trkpt>
      <trkpt lat="44.70079" lon="6.94099">
        <ele>2232</ele>
        <time>2021-12-16T12:04:22Z</time>
      </trkpt>
      <trkpt lat="44.70082" lon="6.9408">
        <ele>2229</ele>
        <time>2021-12-16T12:04:24Z</time>
      </trkpt>
      <trkpt lat="44.70077" lon="6.94065">
        <ele>2226</ele>
        <time>2021-12-16T12:04:26Z</time>
      </trkpt>
      <trkpt lat="44.70076" lon="6.94057">
        <ele>2225</ele>
        <time>2021-12-16T12:04:27Z</time>
      </trkpt>
      <trkpt lat="44.70076" lon="6.94048">
        <ele>2224</ele>
        <time>2021-12-16T12:04:28Z</time>
      </trkpt>
      <trkpt lat="44.70075" lon="6.94038">
        <ele>2222</ele>
        <time>2021-12-16T12:04:29Z</time>
      </trkpt>
      <trkpt lat="44.70072" lon="6.94034">
        <ele>2220</ele>
        <time>2021-12-16T12:04:30Z</time>
      </trkpt>
      <trkpt lat="44.70067" lon="6.94035">
        <ele>2218</ele>
        <time>2021-12-16T12:04:31Z</time>
      </trkpt>
      <trkpt lat="44.70063" lon="6.94037">
        <ele>2216</ele>
        <time>2021-12-16T12:04:32Z</time>
      </trkpt>
      <trkpt lat="44.70054" lon="6.94046">
        <ele>2208</ele>
        <time>2021-12-16T12:04:42Z</time>
      </trkpt>
      <trkpt lat="44.70054" lon="6.94043">
        <ele>2206</ele>
        <time>2021-12-16T12:04:45Z</time>
      </trkpt>
      <trkpt lat="44.70058" lon="6.94028">
        <ele>2204</ele>
        <time>2021-12-16T12:04:49Z</time>
      </trkpt>
      <trkpt lat="44.70087" lon="6.93958">
        <ele>2201</ele>
        <time>2021-12-16T12:04:59Z</time>
      </trkpt>
      <trkpt lat="44.7011" lon="6.93925">
        <ele>2197</ele>
        <time>2021-12-16T12:05:03Z</time>
      </trkpt>
      <trkpt lat="44.70131" lon="6.93903">
        <ele>2192</ele>
        <time>2021-12-16T12:05:06Z</time>
      </trkpt>
      <trkpt lat="44.70149" lon="6.93877">
        <ele>2187</ele>
        <time>2021-12-16T12:05:09Z</time>
      </trkpt>
      <trkpt lat="44.70313" lon="6.93632">
        <ele>2162</ele>
        <time>2021-12-16T12:05:35Z</time>
      </trkpt>
      <trkpt lat="44.70371" lon="6.93465">
        <ele>2160</ele>
        <time>2021-12-16T12:05:49Z</time>
      </trkpt>
      <trkpt lat="44.70413" lon="6.93377">
        <ele>2156</ele>
        <time>2021-12-16T12:05:57Z</time>
      </trkpt>
      <trkpt lat="44.70435" lon="6.93318">
        <ele>2154</ele>
        <time>2021-12-16T12:06:02Z</time>
      </trkpt>
      <trkpt lat="44.70495" lon="6.93197">
        <ele>2149</ele>
        <time>2021-12-16T12:06:13Z</time>
      </trkpt>
      <trkpt lat="44.7053" lon="6.93164">
        <ele>2141</ele>
        <time>2021-12-16T12:06:18Z</time>
      </trkpt>
      <trkpt lat="44.70538" lon="6.93144">
        <ele>2138</ele>
        <time>2021-12-16T12:06:20Z</time>
      </trkpt>
      <trkpt lat="44.70547" lon="6.93111">
        <ele>2133</ele>
        <time>2021-12-16T12:06:23Z</time>
      </trkpt>
      <trkpt lat="44.70555" lon="6.9309">
        <ele>2130</ele>
        <time>2021-12-16T12:06:25Z</time>
      </trkpt>
      <trkpt lat="44.70604" lon="6.92967">
        <ele>2129</ele>
        <time>2021-12-16T12:06:44Z</time>
      </trkpt>
      <trkpt lat="44.70643" lon="6.92917">
        <ele>2128</ele>
        <time>2021-12-16T12:06:55Z</time>
      </trkpt>
      <trkpt lat="44.70664" lon="6.92898">
        <ele>2128</ele>
        <time>2021-12-16T12:07:01Z</time>
      </trkpt>
      <trkpt lat="44.70675" lon="6.92878">
        <ele>2128</ele>
        <time>2021-12-16T12:07:06Z</time>
      </trkpt>
      <trkpt lat="44.70679" lon="6.92868">
        <ele>2127</ele>
        <time>2021-12-16T12:07:09Z</time>
      </trkpt>
      <trkpt lat="44.70685" lon="6.92841">
        <ele>2128</ele>
        <time>2021-12-16T12:07:19Z</time>
      </trkpt>
      <trkpt lat="44.70686" lon="6.92837">
        <ele>2128</ele>
        <time>2021-12-16T12:07:20Z</time>
      </trkpt>
      <trkpt lat="44.70687" lon="6.92831">
        <ele>2128</ele>
        <time>2021-12-16T12:07:22Z</time>
      </trkpt>
      <trkpt lat="44.70688" lon="6.92828">
        <ele>2129</ele>
        <time>2021-12-16T12:07:23Z</time>
      </trkpt>
      <trkpt lat="44.70689" lon="6.9282">
        <ele>2129</ele>
        <time>2021-12-16T12:07:25Z</time>
      </trkpt>
      <trkpt lat="44.7069" lon="6.92811">
        <ele>2129</ele>
        <time>2021-12-16T12:07:27Z</time>
      </trkpt>
      <trkpt lat="44.70731" lon="6.92656">
        <ele>2123</ele>
        <time>2021-12-16T12:07:57Z</time>
      </trkpt>
      <trkpt lat="44.70738" lon="6.92636">
        <ele>2123</ele>
        <time>2021-12-16T12:08:01Z</time>
      </trkpt>
      <trkpt lat="44.70752" lon="6.92601">
        <ele>2121</ele>
        <time>2021-12-16T12:08:06Z</time>
      </trkpt>
      <trkpt lat="44.70777" lon="6.92536">
        <ele>2117</ele>
        <time>2021-12-16T12:08:13Z</time>
      </trkpt>
      <trkpt lat="44.70897" lon="6.92316">
        <ele>2096</ele>
        <time>2021-12-16T12:08:38Z</time>
      </trkpt>
      <trkpt lat="44.70971" lon="6.9225">
        <ele>2091</ele>
        <time>2021-12-16T12:08:48Z</time>
      </trkpt>
      <trkpt lat="44.70959" lon="6.92262">
        <ele>2091</ele>
        <time>2021-12-16T12:08:49Z</time>
      </trkpt>
      <trkpt lat="44.70963" lon="6.92241">
        <ele>2089</ele>
        <time>2021-12-16T12:09:00Z</time>
      </trkpt>
      <trkpt lat="44.70965" lon="6.92228">
        <ele>2088</ele>
        <time>2021-12-16T12:09:01Z</time>
      </trkpt>
      <trkpt lat="44.70976" lon="6.92218">
        <ele>2088</ele>
        <time>2021-12-16T12:09:02Z</time>
      </trkpt>
      <trkpt lat="44.71042" lon="6.92087">
        <ele>2086</ele>
        <time>2021-12-16T12:09:08Z</time>
      </trkpt>
      <trkpt lat="44.71083" lon="6.92061">
        <ele>2084</ele>
        <time>2021-12-16T12:09:09Z</time>
      </trkpt>
      <trkpt lat="44.71165" lon="6.91992">
        <ele>2075</ele>
        <time>2021-12-16T12:09:15Z</time>
      </trkpt>
      <trkpt lat="44.712" lon="6.91984">
        <ele>2074</ele>
        <time>2021-12-16T12:09:16Z</time>
      </trkpt>
      <trkpt lat="44.71215" lon="6.91977">
        <ele>2071</ele>
        <time>2021-12-16T12:09:17Z</time>
      </trkpt>
      <trkpt lat="44.71223" lon="6.91968">
        <ele>2068</ele>
        <time>2021-12-16T12:09:18Z</time>
      </trkpt>
      <trkpt lat="44.71263" lon="6.91894">
        <ele>2054</ele>
        <time>2021-12-16T12:09:27Z</time>
      </trkpt>
      <trkpt lat="44.71396" lon="6.91742">
        <ele>2040</ele>
        <time>2021-12-16T12:09:57Z</time>
      </trkpt>
      <trkpt lat="44.71483" lon="6.91644">
        <ele>2038</ele>
        <time>2021-12-16T12:10:25Z</time>
      </trkpt>
      <trkpt lat="44.71492" lon="6.91621">
        <ele>2039</ele>
        <time>2021-12-16T12:10:30Z</time>
      </trkpt>
      <trkpt lat="44.71507" lon="6.91555">
        <ele>2040</ele>
        <time>2021-12-16T12:10:46Z</time>
      </trkpt>
      <trkpt lat="44.7151" lon="6.9154">
        <ele>2040</ele>
        <time>2021-12-16T12:10:49Z</time>
      </trkpt>
      <trkpt lat="44.71519" lon="6.91514">
        <ele>2041</ele>
        <time>2021-12-16T12:10:54Z</time>
      </trkpt>
      <trkpt lat="44.71567" lon="6.91424">
        <ele>2032</ele>
        <time>2021-12-16T12:11:09Z</time>
      </trkpt>
      <trkpt lat="44.71621" lon="6.91349">
        <ele>2027</ele>
        <time>2021-12-16T12:11:18Z</time>
      </trkpt>
      <trkpt lat="44.71646" lon="6.91272">
        <ele>2022</ele>
        <time>2021-12-16T12:11:25Z</time>
      </trkpt>
      <trkpt lat="44.71683" lon="6.91144">
        <ele>2017</ele>
        <time>2021-12-16T12:11:39Z</time>
      </trkpt>
      <trkpt lat="44.71696" lon="6.91119">
        <ele>2016</ele>
        <time>2021-12-16T12:11:43Z</time>
      </trkpt>
      <trkpt lat="44.71696" lon="6.91114">
        <ele>2015</ele>
        <time>2021-12-16T12:11:44Z</time>
      </trkpt>
      <trkpt lat="44.71753" lon="6.9103">
        <ele>2012</ele>
        <time>2021-12-16T12:12:00Z</time>
      </trkpt>
      <trkpt lat="44.71763" lon="6.91002">
        <ele>2011</ele>
        <time>2021-12-16T12:12:04Z</time>
      </trkpt>
      <trkpt lat="44.71804" lon="6.90799">
        <ele>2006</ele>
        <time>2021-12-16T12:12:34Z</time>
      </trkpt>
      <trkpt lat="44.71824" lon="6.9065">
        <ele>2000</ele>
        <time>2021-12-16T12:12:53Z</time>
      </trkpt>
      <trkpt lat="44.71838" lon="6.90608">
        <ele>1998</ele>
        <time>2021-12-16T12:12:59Z</time>
      </trkpt>
      <trkpt lat="44.71872" lon="6.90522">
        <ele>1993</ele>
        <time>2021-12-16T12:13:13Z</time>
      </trkpt>
      <trkpt lat="44.71874" lon="6.90516">
        <ele>1993</ele>
        <time>2021-12-16T12:13:14Z</time>
      </trkpt>
      <trkpt lat="44.71874" lon="6.90503">
        <ele>1992</ele>
        <time>2021-12-16T12:13:16Z</time>
      </trkpt>
      <trkpt lat="44.71875" lon="6.90497">
        <ele>1992</ele>
        <time>2021-12-16T12:13:17Z</time>
      </trkpt>
      <trkpt lat="44.71882" lon="6.90478">
        <ele>1993</ele>
        <time>2021-12-16T12:13:21Z</time>
      </trkpt>
      <trkpt lat="44.71892" lon="6.9043">
        <ele>1991</ele>
        <time>2021-12-16T12:13:30Z</time>
      </trkpt>
      <trkpt lat="44.71893" lon="6.90428">
        <ele>1991</ele>
        <time>2021-12-16T12:13:31Z</time>
      </trkpt>
      <trkpt lat="44.71895" lon="6.90428">
        <ele>1991</ele>
        <time>2021-12-16T12:13:33Z</time>
      </trkpt>
      <trkpt lat="44.71898" lon="6.90438">
        <ele>1990</ele>
        <time>2021-12-16T12:13:52Z</time>
      </trkpt>
    </trkseg>
  </trk>
</gpx>